<?xml version="1.0" encoding="utf-8"?>
<gpx xmlns:xsi="http://www.w3.org/2001/XMLSchema-instance" xmlns:xsd="http://www.w3.org/2001/XMLSchema" version="1.1" creator="Shapelink.com" xmlns="http://www.topografix.com/GPX/1/1" xmlns:gpxtpx="http://www.garmin.com/xmlschemas/TrackPointExtension/v1">
  <metadata>
    <name>Längdskidåkning - Klassisk 25.39 km, 2013-01-22</name>
    <desc></desc>
    <author><name>Alexander Engvall</name></author> 
    <time>2013-01-22T19:32:48Z</time>
  </metadata>
  <trk>
    <name>Längdskidåkning - Klassisk 25.39 km, 2013-01-22</name>
    <trkseg>
      <trkpt lat="59.4852342" lon="17.8766815">
        <ele>0</ele>
        <time>2013-01-22T19:32:48Z</time>
      </trkpt>
      <trkpt lat="59.4854347" lon="17.8768369">
        <ele>0</ele>
        <time>2013-01-22T19:32:53Z</time>
      </trkpt>
      <trkpt lat="59.4855782" lon="17.8769792">
        <ele>0.2</ele>
        <time>2013-01-22T19:32:56Z</time>
      </trkpt>
      <trkpt lat="59.4856305" lon="17.8770182">
        <ele>1.4</ele>
        <time>2013-01-22T19:32:57Z</time>
      </trkpt>
      <trkpt lat="59.4857969" lon="17.8771497">
        <ele>6.4</ele>
        <time>2013-01-22T19:33:00Z</time>
      </trkpt>
      <trkpt lat="59.4858482" lon="17.8771883">
        <ele>8</ele>
        <time>2013-01-22T19:33:01Z</time>
      </trkpt>
      <trkpt lat="59.4859917" lon="17.8772972">
        <ele>11</ele>
        <time>2013-01-22T19:33:04Z</time>
      </trkpt>
      <trkpt lat="59.4861806" lon="17.8774376">
        <ele>12.6</ele>
        <time>2013-01-22T19:33:08Z</time>
      </trkpt>
      <trkpt lat="59.4863634" lon="17.8775806">
        <ele>12.2</ele>
        <time>2013-01-22T19:33:12Z</time>
      </trkpt>
      <trkpt lat="59.4864065" lon="17.8776265">
        <ele>12</ele>
        <time>2013-01-22T19:33:13Z</time>
      </trkpt>
      <trkpt lat="59.486552" lon="17.8777391">
        <ele>13.8</ele>
        <time>2013-01-22T19:33:16Z</time>
      </trkpt>
      <trkpt lat="59.4866385" lon="17.8778339">
        <ele>13.8</ele>
        <time>2013-01-22T19:33:18Z</time>
      </trkpt>
      <trkpt lat="59.4867111" lon="17.8779244">
        <ele>13.2</ele>
        <time>2013-01-22T19:33:20Z</time>
      </trkpt>
      <trkpt lat="59.4868753" lon="17.8781513">
        <ele>12.4</ele>
        <time>2013-01-22T19:33:25Z</time>
      </trkpt>
      <trkpt lat="59.4870136" lon="17.8782933">
        <ele>12.4</ele>
        <time>2013-01-22T19:33:29Z</time>
      </trkpt>
      <trkpt lat="59.487046" lon="17.8783172">
        <ele>12.2</ele>
        <time>2013-01-22T19:33:30Z</time>
      </trkpt>
      <trkpt lat="59.4872379" lon="17.8782079">
        <ele>5.8</ele>
        <time>2013-01-22T19:33:36Z</time>
      </trkpt>
      <trkpt lat="59.4874009" lon="17.877968">
        <ele>1.4</ele>
        <time>2013-01-22T19:33:41Z</time>
      </trkpt>
      <trkpt lat="59.4875664" lon="17.8778324">
        <ele>0</ele>
        <time>2013-01-22T19:33:45Z</time>
      </trkpt>
      <trkpt lat="59.4876595" lon="17.8778011">
        <ele>0</ele>
        <time>2013-01-22T19:33:47Z</time>
      </trkpt>
      <trkpt lat="59.4877492" lon="17.8778205">
        <ele>0</ele>
        <time>2013-01-22T19:33:49Z</time>
      </trkpt>
      <trkpt lat="59.4878786" lon="17.8779826">
        <ele>0</ele>
        <time>2013-01-22T19:33:52Z</time>
      </trkpt>
      <trkpt lat="59.4879242" lon="17.8780448">
        <ele>0</ele>
        <time>2013-01-22T19:33:53Z</time>
      </trkpt>
      <trkpt lat="59.4880192" lon="17.8781492">
        <ele>1</ele>
        <time>2013-01-22T19:33:55Z</time>
      </trkpt>
      <trkpt lat="59.4881076" lon="17.8781851">
        <ele>0.8</ele>
        <time>2013-01-22T19:33:57Z</time>
      </trkpt>
      <trkpt lat="59.4882832" lon="17.8782661">
        <ele>0</ele>
        <time>2013-01-22T19:34:01Z</time>
      </trkpt>
      <trkpt lat="59.4883203" lon="17.8783079">
        <ele>0</ele>
        <time>2013-01-22T19:34:02Z</time>
      </trkpt>
      <trkpt lat="59.4884742" lon="17.8784611">
        <ele>3.4</ele>
        <time>2013-01-22T19:34:06Z</time>
      </trkpt>
      <trkpt lat="59.4885039" lon="17.8785079">
        <ele>3.6</ele>
        <time>2013-01-22T19:34:07Z</time>
      </trkpt>
      <trkpt lat="59.4885416" lon="17.8785503">
        <ele>4.4</ele>
        <time>2013-01-22T19:34:08Z</time>
      </trkpt>
      <trkpt lat="59.488633" lon="17.8786331">
        <ele>5</ele>
        <time>2013-01-22T19:34:10Z</time>
      </trkpt>
      <trkpt lat="59.4888334" lon="17.8787338">
        <ele>3.2</ele>
        <time>2013-01-22T19:34:15Z</time>
      </trkpt>
      <trkpt lat="59.4889177" lon="17.8787447">
        <ele>2.4</ele>
        <time>2013-01-22T19:34:17Z</time>
      </trkpt>
      <trkpt lat="59.4890372" lon="17.8787219">
        <ele>0.6</ele>
        <time>2013-01-22T19:34:20Z</time>
      </trkpt>
      <trkpt lat="59.4890761" lon="17.8787186">
        <ele>0.2</ele>
        <time>2013-01-22T19:34:21Z</time>
      </trkpt>
      <trkpt lat="59.4892378" lon="17.878717">
        <ele>0</ele>
        <time>2013-01-22T19:34:26Z</time>
      </trkpt>
      <trkpt lat="59.4894514" lon="17.8786968">
        <ele>0</ele>
        <time>2013-01-22T19:34:31Z</time>
      </trkpt>
      <trkpt lat="59.4896196" lon="17.878551">
        <ele>0</ele>
        <time>2013-01-22T19:34:36Z</time>
      </trkpt>
      <trkpt lat="59.4896521" lon="17.8781645">
        <ele>0</ele>
        <time>2013-01-22T19:34:42Z</time>
      </trkpt>
      <trkpt lat="59.4896089" lon="17.8780291">
        <ele>0</ele>
        <time>2013-01-22T19:34:44Z</time>
      </trkpt>
      <trkpt lat="59.4894981" lon="17.8779164">
        <ele>0</ele>
        <time>2013-01-22T19:34:47Z</time>
      </trkpt>
      <trkpt lat="59.4894612" lon="17.8778909">
        <ele>0</ele>
        <time>2013-01-22T19:34:48Z</time>
      </trkpt>
      <trkpt lat="59.4893098" lon="17.8778412">
        <ele>0</ele>
        <time>2013-01-22T19:34:52Z</time>
      </trkpt>
      <trkpt lat="59.4891234" lon="17.8779048">
        <ele>0</ele>
        <time>2013-01-22T19:34:57Z</time>
      </trkpt>
      <trkpt lat="59.4889176" lon="17.878057">
        <ele>0</ele>
        <time>2013-01-22T19:35:02Z</time>
      </trkpt>
      <trkpt lat="59.4887612" lon="17.8778676">
        <ele>0</ele>
        <time>2013-01-22T19:35:07Z</time>
      </trkpt>
      <trkpt lat="59.4888011" lon="17.8776386">
        <ele>0</ele>
        <time>2013-01-22T19:35:11Z</time>
      </trkpt>
      <trkpt lat="59.4888368" lon="17.8775403">
        <ele>0</ele>
        <time>2013-01-22T19:35:13Z</time>
      </trkpt>
      <trkpt lat="59.4890056" lon="17.8772947">
        <ele>0</ele>
        <time>2013-01-22T19:35:19Z</time>
      </trkpt>
      <trkpt lat="59.4891876" lon="17.8772562">
        <ele>0</ele>
        <time>2013-01-22T19:35:24Z</time>
      </trkpt>
      <trkpt lat="59.4893788" lon="17.8772683">
        <ele>0</ele>
        <time>2013-01-22T19:35:29Z</time>
      </trkpt>
      <trkpt lat="59.4895808" lon="17.8772578">
        <ele>0</ele>
        <time>2013-01-22T19:35:34Z</time>
      </trkpt>
      <trkpt lat="59.4897962" lon="17.8772288">
        <ele>0</ele>
        <time>2013-01-22T19:35:40Z</time>
      </trkpt>
      <trkpt lat="59.4900077" lon="17.8771108">
        <ele>0</ele>
        <time>2013-01-22T19:35:45Z</time>
      </trkpt>
      <trkpt lat="59.4901473" lon="17.8769999">
        <ele>0</ele>
        <time>2013-01-22T19:35:48Z</time>
      </trkpt>
      <trkpt lat="59.490189" lon="17.8769524">
        <ele>0</ele>
        <time>2013-01-22T19:35:49Z</time>
      </trkpt>
      <trkpt lat="59.4902794" lon="17.8768656">
        <ele>0</ele>
        <time>2013-01-22T19:35:51Z</time>
      </trkpt>
      <trkpt lat="59.4903863" lon="17.8768076">
        <ele>0</ele>
        <time>2013-01-22T19:35:53Z</time>
      </trkpt>
      <trkpt lat="59.4905367" lon="17.8767967">
        <ele>0.2</ele>
        <time>2013-01-22T19:35:56Z</time>
      </trkpt>
      <trkpt lat="59.4905849" lon="17.8768046">
        <ele>1.2</ele>
        <time>2013-01-22T19:35:57Z</time>
      </trkpt>
      <trkpt lat="59.4907214" lon="17.8768223">
        <ele>4</ele>
        <time>2013-01-22T19:36:00Z</time>
      </trkpt>
      <trkpt lat="59.4907674" lon="17.8768365">
        <ele>5</ele>
        <time>2013-01-22T19:36:01Z</time>
      </trkpt>
      <trkpt lat="59.4909777" lon="17.8768918">
        <ele>7.8</ele>
        <time>2013-01-22T19:36:06Z</time>
      </trkpt>
      <trkpt lat="59.4910169" lon="17.8768993">
        <ele>8</ele>
        <time>2013-01-22T19:36:07Z</time>
      </trkpt>
      <trkpt lat="59.4911867" lon="17.8769412">
        <ele>9.6</ele>
        <time>2013-01-22T19:36:11Z</time>
      </trkpt>
      <trkpt lat="59.4912285" lon="17.87696">
        <ele>10.2</ele>
        <time>2013-01-22T19:36:12Z</time>
      </trkpt>
      <trkpt lat="59.4913939" lon="17.8770672">
        <ele>10.8</ele>
        <time>2013-01-22T19:36:16Z</time>
      </trkpt>
      <trkpt lat="59.4915943" lon="17.8771475">
        <ele>9.2</ele>
        <time>2013-01-22T19:36:21Z</time>
      </trkpt>
      <trkpt lat="59.4916767" lon="17.8771455">
        <ele>8</ele>
        <time>2013-01-22T19:36:23Z</time>
      </trkpt>
      <trkpt lat="59.4917858" lon="17.8771012">
        <ele>7.4</ele>
        <time>2013-01-22T19:36:26Z</time>
      </trkpt>
      <trkpt lat="59.4918531" lon="17.8770738">
        <ele>7</ele>
        <time>2013-01-22T19:36:28Z</time>
      </trkpt>
      <trkpt lat="59.4919617" lon="17.8770456">
        <ele>6.2</ele>
        <time>2013-01-22T19:36:31Z</time>
      </trkpt>
      <trkpt lat="59.4921662" lon="17.8770697">
        <ele>6.2</ele>
        <time>2013-01-22T19:36:36Z</time>
      </trkpt>
      <trkpt lat="59.4923662" lon="17.8770704">
        <ele>5.8</ele>
        <time>2013-01-22T19:36:41Z</time>
      </trkpt>
      <trkpt lat="59.4925559" lon="17.877072">
        <ele>5.4</ele>
        <time>2013-01-22T19:36:46Z</time>
      </trkpt>
      <trkpt lat="59.4927424" lon="17.8770873">
        <ele>5</ele>
        <time>2013-01-22T19:36:51Z</time>
      </trkpt>
      <trkpt lat="59.4929337" lon="17.8771678">
        <ele>4.8</ele>
        <time>2013-01-22T19:36:56Z</time>
      </trkpt>
      <trkpt lat="59.4931309" lon="17.8773455">
        <ele>3.6</ele>
        <time>2013-01-22T19:37:01Z</time>
      </trkpt>
      <trkpt lat="59.4931712" lon="17.877386">
        <ele>3.6</ele>
        <time>2013-01-22T19:37:02Z</time>
      </trkpt>
      <trkpt lat="59.4932534" lon="17.8774558">
        <ele>3.4</ele>
        <time>2013-01-22T19:37:04Z</time>
      </trkpt>
      <trkpt lat="59.4933207" lon="17.8775328">
        <ele>2.8</ele>
        <time>2013-01-22T19:37:06Z</time>
      </trkpt>
      <trkpt lat="59.4934403" lon="17.8776603">
        <ele>1.6</ele>
        <time>2013-01-22T19:37:09Z</time>
      </trkpt>
      <trkpt lat="59.4934885" lon="17.8777069">
        <ele>1.2</ele>
        <time>2013-01-22T19:37:10Z</time>
      </trkpt>
      <trkpt lat="59.4935869" lon="17.8778123">
        <ele>0.8</ele>
        <time>2013-01-22T19:37:12Z</time>
      </trkpt>
      <trkpt lat="59.4936732" lon="17.8779463">
        <ele>0.6</ele>
        <time>2013-01-22T19:37:14Z</time>
      </trkpt>
      <trkpt lat="59.4937616" lon="17.8780585">
        <ele>0</ele>
        <time>2013-01-22T19:37:16Z</time>
      </trkpt>
      <trkpt lat="59.4938581" lon="17.8781137">
        <ele>0</ele>
        <time>2013-01-22T19:37:18Z</time>
      </trkpt>
      <trkpt lat="59.4939998" lon="17.8780521">
        <ele>0</ele>
        <time>2013-01-22T19:37:21Z</time>
      </trkpt>
      <trkpt lat="59.49404" lon="17.8780076">
        <ele>0</ele>
        <time>2013-01-22T19:37:22Z</time>
      </trkpt>
      <trkpt lat="59.4942175" lon="17.8777661">
        <ele>0</ele>
        <time>2013-01-22T19:37:27Z</time>
      </trkpt>
      <trkpt lat="59.4943262" lon="17.8776542">
        <ele>0</ele>
        <time>2013-01-22T19:37:30Z</time>
      </trkpt>
      <trkpt lat="59.4943983" lon="17.8775785">
        <ele>0</ele>
        <time>2013-01-22T19:37:32Z</time>
      </trkpt>
      <trkpt lat="59.4944651" lon="17.8775002">
        <ele>0</ele>
        <time>2013-01-22T19:37:34Z</time>
      </trkpt>
      <trkpt lat="59.4945756" lon="17.8774108">
        <ele>0</ele>
        <time>2013-01-22T19:37:37Z</time>
      </trkpt>
      <trkpt lat="59.4946107" lon="17.8773874">
        <ele>0</ele>
        <time>2013-01-22T19:37:38Z</time>
      </trkpt>
      <trkpt lat="59.4947647" lon="17.8773346">
        <ele>0</ele>
        <time>2013-01-22T19:37:42Z</time>
      </trkpt>
      <trkpt lat="59.4949527" lon="17.8772992">
        <ele>0</ele>
        <time>2013-01-22T19:37:47Z</time>
      </trkpt>
      <trkpt lat="59.4951385" lon="17.8772144">
        <ele>0</ele>
        <time>2013-01-22T19:37:53Z</time>
      </trkpt>
      <trkpt lat="59.4952701" lon="17.8769461">
        <ele>0.6</ele>
        <time>2013-01-22T19:37:59Z</time>
      </trkpt>
      <trkpt lat="59.4952793" lon="17.8765643">
        <ele>2.2</ele>
        <time>2013-01-22T19:38:05Z</time>
      </trkpt>
      <trkpt lat="59.4952205" lon="17.8761659">
        <ele>3</ele>
        <time>2013-01-22T19:38:11Z</time>
      </trkpt>
      <trkpt lat="59.495221" lon="17.8757296">
        <ele>3</ele>
        <time>2013-01-22T19:38:16Z</time>
      </trkpt>
      <trkpt lat="59.4952146" lon="17.8756214">
        <ele>2.8</ele>
        <time>2013-01-22T19:38:17Z</time>
      </trkpt>
      <trkpt lat="59.4951532" lon="17.8754037">
        <ele>2.6</ele>
        <time>2013-01-22T19:38:19Z</time>
      </trkpt>
      <trkpt lat="59.4949852" lon="17.875232">
        <ele>4.2</ele>
        <time>2013-01-22T19:38:22Z</time>
      </trkpt>
      <trkpt lat="59.4949299" lon="17.8752054">
        <ele>4</ele>
        <time>2013-01-22T19:38:23Z</time>
      </trkpt>
      <trkpt lat="59.4947837" lon="17.8751506">
        <ele>4.6</ele>
        <time>2013-01-22T19:38:26Z</time>
      </trkpt>
      <trkpt lat="59.4947081" lon="17.8751232">
        <ele>4.4</ele>
        <time>2013-01-22T19:38:28Z</time>
      </trkpt>
      <trkpt lat="59.4946074" lon="17.8751002">
        <ele>4.2</ele>
        <time>2013-01-22T19:38:31Z</time>
      </trkpt>
      <trkpt lat="59.4945784" lon="17.8750993">
        <ele>4.8</ele>
        <time>2013-01-22T19:38:32Z</time>
      </trkpt>
      <trkpt lat="59.494394" lon="17.87512">
        <ele>6.8</ele>
        <time>2013-01-22T19:38:38Z</time>
      </trkpt>
      <trkpt lat="59.4942116" lon="17.8751904">
        <ele>7.2</ele>
        <time>2013-01-22T19:38:43Z</time>
      </trkpt>
      <trkpt lat="59.4940274" lon="17.8752874">
        <ele>7.4</ele>
        <time>2013-01-22T19:38:48Z</time>
      </trkpt>
      <trkpt lat="59.4938278" lon="17.8754077">
        <ele>9.6</ele>
        <time>2013-01-22T19:38:54Z</time>
      </trkpt>
      <trkpt lat="59.4936439" lon="17.8754939">
        <ele>9.4</ele>
        <time>2013-01-22T19:39:01Z</time>
      </trkpt>
      <trkpt lat="59.4934585" lon="17.8756221">
        <ele>8</ele>
        <time>2013-01-22T19:39:06Z</time>
      </trkpt>
      <trkpt lat="59.4932846" lon="17.8758642">
        <ele>6.8</ele>
        <time>2013-01-22T19:39:11Z</time>
      </trkpt>
      <trkpt lat="59.4932279" lon="17.8759727">
        <ele>6</ele>
        <time>2013-01-22T19:39:13Z</time>
      </trkpt>
      <trkpt lat="59.4931361" lon="17.8760903">
        <ele>4.8</ele>
        <time>2013-01-22T19:39:16Z</time>
      </trkpt>
      <trkpt lat="59.4930679" lon="17.8761327">
        <ele>4.2</ele>
        <time>2013-01-22T19:39:18Z</time>
      </trkpt>
      <trkpt lat="59.4929638" lon="17.8761787">
        <ele>2.8</ele>
        <time>2013-01-22T19:39:21Z</time>
      </trkpt>
      <trkpt lat="59.4927646" lon="17.8761872">
        <ele>4</ele>
        <time>2013-01-22T19:39:27Z</time>
      </trkpt>
      <trkpt lat="59.4925707" lon="17.8762741">
        <ele>6.2</ele>
        <time>2013-01-22T19:39:33Z</time>
      </trkpt>
      <trkpt lat="59.4923885" lon="17.8764232">
        <ele>7</ele>
        <time>2013-01-22T19:39:39Z</time>
      </trkpt>
      <trkpt lat="59.4922092" lon="17.8765917">
        <ele>6.4</ele>
        <time>2013-01-22T19:39:44Z</time>
      </trkpt>
      <trkpt lat="59.4920693" lon="17.8768088">
        <ele>5.2</ele>
        <time>2013-01-22T19:39:48Z</time>
      </trkpt>
      <trkpt lat="59.4920428" lon="17.8768678">
        <ele>5</ele>
        <time>2013-01-22T19:39:49Z</time>
      </trkpt>
      <trkpt lat="59.4919554" lon="17.8771023">
        <ele>5.2</ele>
        <time>2013-01-22T19:39:53Z</time>
      </trkpt>
      <trkpt lat="59.4918837" lon="17.8771472">
        <ele>5.2</ele>
        <time>2013-01-22T19:39:55Z</time>
      </trkpt>
      <trkpt lat="59.491777" lon="17.8771826">
        <ele>4.6</ele>
        <time>2013-01-22T19:39:58Z</time>
      </trkpt>
      <trkpt lat="59.4915928" lon="17.8771502">
        <ele>4.2</ele>
        <time>2013-01-22T19:40:03Z</time>
      </trkpt>
      <trkpt lat="59.491384" lon="17.8770434">
        <ele>4.4</ele>
        <time>2013-01-22T19:40:09Z</time>
      </trkpt>
      <trkpt lat="59.4912017" lon="17.8768978">
        <ele>5</ele>
        <time>2013-01-22T19:40:14Z</time>
      </trkpt>
      <trkpt lat="59.4910314" lon="17.8767415">
        <ele>5.6</ele>
        <time>2013-01-22T19:40:19Z</time>
      </trkpt>
      <trkpt lat="59.4908369" lon="17.8766">
        <ele>7</ele>
        <time>2013-01-22T19:40:25Z</time>
      </trkpt>
      <trkpt lat="59.4906614" lon="17.8765249">
        <ele>8.2</ele>
        <time>2013-01-22T19:40:29Z</time>
      </trkpt>
      <trkpt lat="59.4904635" lon="17.8763931">
        <ele>8.6</ele>
        <time>2013-01-22T19:40:34Z</time>
      </trkpt>
      <trkpt lat="59.49039" lon="17.8763477">
        <ele>8.8</ele>
        <time>2013-01-22T19:40:36Z</time>
      </trkpt>
      <trkpt lat="59.4903144" lon="17.876297">
        <ele>10</ele>
        <time>2013-01-22T19:40:38Z</time>
      </trkpt>
      <trkpt lat="59.4902781" lon="17.8762776">
        <ele>9.8</ele>
        <time>2013-01-22T19:40:39Z</time>
      </trkpt>
      <trkpt lat="59.4901787" lon="17.8761987">
        <ele>9.6</ele>
        <time>2013-01-22T19:40:42Z</time>
      </trkpt>
      <trkpt lat="59.4901004" lon="17.8761101">
        <ele>10.4</ele>
        <time>2013-01-22T19:40:45Z</time>
      </trkpt>
      <trkpt lat="59.4899574" lon="17.8759053">
        <ele>11.4</ele>
        <time>2013-01-22T19:40:50Z</time>
      </trkpt>
      <trkpt lat="59.4899042" lon="17.8758079">
        <ele>12.2</ele>
        <time>2013-01-22T19:40:52Z</time>
      </trkpt>
      <trkpt lat="59.4898371" lon="17.8756239">
        <ele>12.6</ele>
        <time>2013-01-22T19:40:55Z</time>
      </trkpt>
      <trkpt lat="59.4897923" lon="17.8752198">
        <ele>12.8</ele>
        <time>2013-01-22T19:41:00Z</time>
      </trkpt>
      <trkpt lat="59.4897969" lon="17.8751391">
        <ele>12.6</ele>
        <time>2013-01-22T19:41:01Z</time>
      </trkpt>
      <trkpt lat="59.4898346" lon="17.8748331">
        <ele>11.6</ele>
        <time>2013-01-22T19:41:05Z</time>
      </trkpt>
      <trkpt lat="59.4898373" lon="17.8747607">
        <ele>11.8</ele>
        <time>2013-01-22T19:41:06Z</time>
      </trkpt>
      <trkpt lat="59.4897461" lon="17.8745218">
        <ele>12.6</ele>
        <time>2013-01-22T19:41:11Z</time>
      </trkpt>
      <trkpt lat="59.4895477" lon="17.8746015">
        <ele>12.2</ele>
        <time>2013-01-22T19:41:17Z</time>
      </trkpt>
      <trkpt lat="59.4894016" lon="17.8747135">
        <ele>11.4</ele>
        <time>2013-01-22T19:41:21Z</time>
      </trkpt>
      <trkpt lat="59.4893655" lon="17.8747448">
        <ele>11.2</ele>
        <time>2013-01-22T19:41:22Z</time>
      </trkpt>
      <trkpt lat="59.4892555" lon="17.8747873">
        <ele>11.6</ele>
        <time>2013-01-22T19:41:25Z</time>
      </trkpt>
      <trkpt lat="59.489183" lon="17.8747439">
        <ele>11.2</ele>
        <time>2013-01-22T19:41:27Z</time>
      </trkpt>
      <trkpt lat="59.4890628" lon="17.8744694">
        <ele>10.8</ele>
        <time>2013-01-22T19:41:32Z</time>
      </trkpt>
      <trkpt lat="59.4890616" lon="17.874088">
        <ele>11.4</ele>
        <time>2013-01-22T19:41:38Z</time>
      </trkpt>
      <trkpt lat="59.489078" lon="17.8736913">
        <ele>14.4</ele>
        <time>2013-01-22T19:41:45Z</time>
      </trkpt>
      <trkpt lat="59.4891443" lon="17.8733221">
        <ele>15.6</ele>
        <time>2013-01-22T19:41:51Z</time>
      </trkpt>
      <trkpt lat="59.4891929" lon="17.872973">
        <ele>16.6</ele>
        <time>2013-01-22T19:41:57Z</time>
      </trkpt>
      <trkpt lat="59.4891965" lon="17.8727589">
        <ele>17.4</ele>
        <time>2013-01-22T19:42:01Z</time>
      </trkpt>
      <trkpt lat="59.4891773" lon="17.8725865">
        <ele>18.6</ele>
        <time>2013-01-22T19:42:04Z</time>
      </trkpt>
      <trkpt lat="59.4891385" lon="17.8722361">
        <ele>20.4</ele>
        <time>2013-01-22T19:42:11Z</time>
      </trkpt>
      <trkpt lat="59.4891137" lon="17.872141">
        <ele>20.6</ele>
        <time>2013-01-22T19:42:13Z</time>
      </trkpt>
      <trkpt lat="59.4890227" lon="17.8719044">
        <ele>20.4</ele>
        <time>2013-01-22T19:42:18Z</time>
      </trkpt>
      <trkpt lat="59.4889489" lon="17.8715323">
        <ele>20.2</ele>
        <time>2013-01-22T19:42:25Z</time>
      </trkpt>
      <trkpt lat="59.488911" lon="17.8711874">
        <ele>20.8</ele>
        <time>2013-01-22T19:42:31Z</time>
      </trkpt>
      <trkpt lat="59.4888878" lon="17.8708838">
        <ele>21</ele>
        <time>2013-01-22T19:42:36Z</time>
      </trkpt>
      <trkpt lat="59.4888944" lon="17.8708292">
        <ele>21.2</ele>
        <time>2013-01-22T19:42:37Z</time>
      </trkpt>
      <trkpt lat="59.4888831" lon="17.8706168">
        <ele>22.2</ele>
        <time>2013-01-22T19:42:41Z</time>
      </trkpt>
      <trkpt lat="59.4888734" lon="17.8704451">
        <ele>23</ele>
        <time>2013-01-22T19:42:44Z</time>
      </trkpt>
      <trkpt lat="59.4888903" lon="17.8700805">
        <ele>24.4</ele>
        <time>2013-01-22T19:42:50Z</time>
      </trkpt>
      <trkpt lat="59.4890312" lon="17.8698028">
        <ele>25.8</ele>
        <time>2013-01-22T19:42:57Z</time>
      </trkpt>
      <trkpt lat="59.4891679" lon="17.8695318">
        <ele>26</ele>
        <time>2013-01-22T19:43:03Z</time>
      </trkpt>
      <trkpt lat="59.4893098" lon="17.869279">
        <ele>25</ele>
        <time>2013-01-22T19:43:08Z</time>
      </trkpt>
      <trkpt lat="59.4894974" lon="17.8691018">
        <ele>24.4</ele>
        <time>2013-01-22T19:43:14Z</time>
      </trkpt>
      <trkpt lat="59.4896944" lon="17.8690666">
        <ele>24.2</ele>
        <time>2013-01-22T19:43:20Z</time>
      </trkpt>
      <trkpt lat="59.4898886" lon="17.8690729">
        <ele>25</ele>
        <time>2013-01-22T19:43:26Z</time>
      </trkpt>
      <trkpt lat="59.4900679" lon="17.8690731">
        <ele>26.4</ele>
        <time>2013-01-22T19:43:32Z</time>
      </trkpt>
      <trkpt lat="59.4902728" lon="17.8690498">
        <ele>26.6</ele>
        <time>2013-01-22T19:43:39Z</time>
      </trkpt>
      <trkpt lat="59.4904501" lon="17.8689635">
        <ele>26.6</ele>
        <time>2013-01-22T19:43:44Z</time>
      </trkpt>
      <trkpt lat="59.4906372" lon="17.8688437">
        <ele>25.8</ele>
        <time>2013-01-22T19:43:50Z</time>
      </trkpt>
      <trkpt lat="59.4908154" lon="17.8687463">
        <ele>26.2</ele>
        <time>2013-01-22T19:43:56Z</time>
      </trkpt>
      <trkpt lat="59.490995" lon="17.868764">
        <ele>27.2</ele>
        <time>2013-01-22T19:44:04Z</time>
      </trkpt>
      <trkpt lat="59.4911849" lon="17.8688785">
        <ele>27.2</ele>
        <time>2013-01-22T19:44:10Z</time>
      </trkpt>
      <trkpt lat="59.491369" lon="17.8690619">
        <ele>27.8</ele>
        <time>2013-01-22T19:44:16Z</time>
      </trkpt>
      <trkpt lat="59.4915216" lon="17.8692687">
        <ele>31</ele>
        <time>2013-01-22T19:44:24Z</time>
      </trkpt>
      <trkpt lat="59.4916865" lon="17.8694218">
        <ele>34.6</ele>
        <time>2013-01-22T19:44:31Z</time>
      </trkpt>
      <trkpt lat="59.4918668" lon="17.8695094">
        <ele>35</ele>
        <time>2013-01-22T19:44:38Z</time>
      </trkpt>
      <trkpt lat="59.4920455" lon="17.8694611">
        <ele>35</ele>
        <time>2013-01-22T19:44:43Z</time>
      </trkpt>
      <trkpt lat="59.4922181" lon="17.8692552">
        <ele>33.4</ele>
        <time>2013-01-22T19:44:49Z</time>
      </trkpt>
      <trkpt lat="59.4923211" lon="17.8689599">
        <ele>34</ele>
        <time>2013-01-22T19:44:55Z</time>
      </trkpt>
      <trkpt lat="59.4922521" lon="17.8686215">
        <ele>33.6</ele>
        <time>2013-01-22T19:45:00Z</time>
      </trkpt>
      <trkpt lat="59.4922099" lon="17.8685931">
        <ele>33.4</ele>
        <time>2013-01-22T19:45:01Z</time>
      </trkpt>
      <trkpt lat="59.4920523" lon="17.8685797">
        <ele>33.2</ele>
        <time>2013-01-22T19:45:05Z</time>
      </trkpt>
      <trkpt lat="59.4919232" lon="17.8685574">
        <ele>33.2</ele>
        <time>2013-01-22T19:45:08Z</time>
      </trkpt>
      <trkpt lat="59.4918751" lon="17.8685283">
        <ele>32.6</ele>
        <time>2013-01-22T19:45:09Z</time>
      </trkpt>
      <trkpt lat="59.4917793" lon="17.8684449">
        <ele>32</ele>
        <time>2013-01-22T19:45:11Z</time>
      </trkpt>
      <trkpt lat="59.4916836" lon="17.8683029">
        <ele>30.4</ele>
        <time>2013-01-22T19:45:13Z</time>
      </trkpt>
      <trkpt lat="59.4915166" lon="17.8680456">
        <ele>28.8</ele>
        <time>2013-01-22T19:45:16Z</time>
      </trkpt>
      <trkpt lat="59.4913493" lon="17.8678147">
        <ele>28.8</ele>
        <time>2013-01-22T19:45:19Z</time>
      </trkpt>
      <trkpt lat="59.4911797" lon="17.8675789">
        <ele>29.2</ele>
        <time>2013-01-22T19:45:22Z</time>
      </trkpt>
      <trkpt lat="59.4910375" lon="17.8673835">
        <ele>29.4</ele>
        <time>2013-01-22T19:45:25Z</time>
      </trkpt>
      <trkpt lat="59.4909827" lon="17.8673339">
        <ele>29.4</ele>
        <time>2013-01-22T19:45:26Z</time>
      </trkpt>
      <trkpt lat="59.4908048" lon="17.8672896">
        <ele>30</ele>
        <time>2013-01-22T19:45:29Z</time>
      </trkpt>
      <trkpt lat="59.4907441" lon="17.8673008">
        <ele>29.4</ele>
        <time>2013-01-22T19:45:30Z</time>
      </trkpt>
      <trkpt lat="59.4906959" lon="17.867322">
        <ele>29.4</ele>
        <time>2013-01-22T19:45:31Z</time>
      </trkpt>
      <trkpt lat="59.4906001" lon="17.867383">
        <ele>28.2</ele>
        <time>2013-01-22T19:45:33Z</time>
      </trkpt>
      <trkpt lat="59.4905065" lon="17.8674474">
        <ele>27.6</ele>
        <time>2013-01-22T19:45:35Z</time>
      </trkpt>
      <trkpt lat="59.4904142" lon="17.8675056">
        <ele>26.8</ele>
        <time>2013-01-22T19:45:37Z</time>
      </trkpt>
      <trkpt lat="59.490204" lon="17.8675478">
        <ele>25.4</ele>
        <time>2013-01-22T19:45:42Z</time>
      </trkpt>
      <trkpt lat="59.4901485" lon="17.8675412">
        <ele>26.4</ele>
        <time>2013-01-22T19:45:44Z</time>
      </trkpt>
      <trkpt lat="59.4900041" lon="17.8675357">
        <ele>25.6</ele>
        <time>2013-01-22T19:45:49Z</time>
      </trkpt>
      <trkpt lat="59.4898174" lon="17.8675616">
        <ele>22.8</ele>
        <time>2013-01-22T19:45:53Z</time>
      </trkpt>
      <trkpt lat="59.4896353" lon="17.8675849">
        <ele>22</ele>
        <time>2013-01-22T19:45:56Z</time>
      </trkpt>
      <trkpt lat="59.4894592" lon="17.8676571">
        <ele>21.2</ele>
        <time>2013-01-22T19:45:59Z</time>
      </trkpt>
      <trkpt lat="59.4892408" lon="17.8676277">
        <ele>19.4</ele>
        <time>2013-01-22T19:46:03Z</time>
      </trkpt>
      <trkpt lat="59.4891893" lon="17.8676082">
        <ele>19.4</ele>
        <time>2013-01-22T19:46:04Z</time>
      </trkpt>
      <trkpt lat="59.4890426" lon="17.8675689">
        <ele>20.2</ele>
        <time>2013-01-22T19:46:07Z</time>
      </trkpt>
      <trkpt lat="59.4889969" lon="17.8675561">
        <ele>20.4</ele>
        <time>2013-01-22T19:46:08Z</time>
      </trkpt>
      <trkpt lat="59.4888503" lon="17.8675587">
        <ele>20.4</ele>
        <time>2013-01-22T19:46:12Z</time>
      </trkpt>
      <trkpt lat="59.4887091" lon="17.8676426">
        <ele>19.6</ele>
        <time>2013-01-22T19:46:16Z</time>
      </trkpt>
      <trkpt lat="59.4886617" lon="17.8676698">
        <ele>19.6</ele>
        <time>2013-01-22T19:46:17Z</time>
      </trkpt>
      <trkpt lat="59.488507" lon="17.8677155">
        <ele>18.8</ele>
        <time>2013-01-22T19:46:20Z</time>
      </trkpt>
      <trkpt lat="59.4884562" lon="17.8677142">
        <ele>18.6</ele>
        <time>2013-01-22T19:46:21Z</time>
      </trkpt>
      <trkpt lat="59.4882714" lon="17.8676814">
        <ele>17.6</ele>
        <time>2013-01-22T19:46:25Z</time>
      </trkpt>
      <trkpt lat="59.4880544" lon="17.8676214">
        <ele>16</ele>
        <time>2013-01-22T19:46:30Z</time>
      </trkpt>
      <trkpt lat="59.4878598" lon="17.8675265">
        <ele>15.8</ele>
        <time>2013-01-22T19:46:35Z</time>
      </trkpt>
      <trkpt lat="59.4877786" lon="17.8674969">
        <ele>16</ele>
        <time>2013-01-22T19:46:37Z</time>
      </trkpt>
      <trkpt lat="59.4876658" lon="17.8674717">
        <ele>16.6</ele>
        <time>2013-01-22T19:46:40Z</time>
      </trkpt>
      <trkpt lat="59.4875019" lon="17.8676618">
        <ele>16.2</ele>
        <time>2013-01-22T19:46:46Z</time>
      </trkpt>
      <trkpt lat="59.4875275" lon="17.8679441">
        <ele>17.4</ele>
        <time>2013-01-22T19:46:51Z</time>
      </trkpt>
      <trkpt lat="59.4875523" lon="17.8680006">
        <ele>17.8</ele>
        <time>2013-01-22T19:46:52Z</time>
      </trkpt>
      <trkpt lat="59.4875953" lon="17.8683767">
        <ele>19.4</ele>
        <time>2013-01-22T19:46:57Z</time>
      </trkpt>
      <trkpt lat="59.4875373" lon="17.8687397">
        <ele>19.2</ele>
        <time>2013-01-22T19:47:02Z</time>
      </trkpt>
      <trkpt lat="59.4875104" lon="17.8691296">
        <ele>18.2</ele>
        <time>2013-01-22T19:47:07Z</time>
      </trkpt>
      <trkpt lat="59.487462" lon="17.8695089">
        <ele>17.8</ele>
        <time>2013-01-22T19:47:12Z</time>
      </trkpt>
      <trkpt lat="59.4874388" lon="17.8696141">
        <ele>18.4</ele>
        <time>2013-01-22T19:47:14Z</time>
      </trkpt>
      <trkpt lat="59.4873478" lon="17.869841">
        <ele>19.8</ele>
        <time>2013-01-22T19:47:18Z</time>
      </trkpt>
      <trkpt lat="59.4872612" lon="17.8701568">
        <ele>17.4</ele>
        <time>2013-01-22T19:47:22Z</time>
      </trkpt>
      <trkpt lat="59.4872032" lon="17.8704294">
        <ele>16.2</ele>
        <time>2013-01-22T19:47:25Z</time>
      </trkpt>
      <trkpt lat="59.4872002" lon="17.8705201">
        <ele>16</ele>
        <time>2013-01-22T19:47:26Z</time>
      </trkpt>
      <trkpt lat="59.4872774" lon="17.8708636">
        <ele>16.8</ele>
        <time>2013-01-22T19:47:31Z</time>
      </trkpt>
      <trkpt lat="59.4874036" lon="17.8709852">
        <ele>17.4</ele>
        <time>2013-01-22T19:47:34Z</time>
      </trkpt>
      <trkpt lat="59.4874596" lon="17.8710256">
        <ele>17.2</ele>
        <time>2013-01-22T19:47:35Z</time>
      </trkpt>
      <trkpt lat="59.4875175" lon="17.8710768">
        <ele>17.2</ele>
        <time>2013-01-22T19:47:36Z</time>
      </trkpt>
      <trkpt lat="59.4876304" lon="17.8711893">
        <ele>18</ele>
        <time>2013-01-22T19:47:38Z</time>
      </trkpt>
      <trkpt lat="59.4876755" lon="17.8712313">
        <ele>18.2</ele>
        <time>2013-01-22T19:47:39Z</time>
      </trkpt>
      <trkpt lat="59.4878144" lon="17.8713014">
        <ele>18</ele>
        <time>2013-01-22T19:47:42Z</time>
      </trkpt>
      <trkpt lat="59.4878627" lon="17.8713377">
        <ele>18</ele>
        <time>2013-01-22T19:47:43Z</time>
      </trkpt>
      <trkpt lat="59.4879999" lon="17.871578">
        <ele>19</ele>
        <time>2013-01-22T19:47:46Z</time>
      </trkpt>
      <trkpt lat="59.4880575" lon="17.8717756">
        <ele>19.2</ele>
        <time>2013-01-22T19:47:48Z</time>
      </trkpt>
      <trkpt lat="59.4880794" lon="17.8718768">
        <ele>19.2</ele>
        <time>2013-01-22T19:47:49Z</time>
      </trkpt>
      <trkpt lat="59.4881004" lon="17.871986">
        <ele>19.6</ele>
        <time>2013-01-22T19:47:50Z</time>
      </trkpt>
      <trkpt lat="59.4881951" lon="17.8723891">
        <ele>19.8</ele>
        <time>2013-01-22T19:47:54Z</time>
      </trkpt>
      <trkpt lat="59.4882831" lon="17.872715">
        <ele>20.4</ele>
        <time>2013-01-22T19:47:57Z</time>
      </trkpt>
      <trkpt lat="59.4883096" lon="17.8728332">
        <ele>20</ele>
        <time>2013-01-22T19:47:58Z</time>
      </trkpt>
      <trkpt lat="59.4883646" lon="17.8730733">
        <ele>18.6</ele>
        <time>2013-01-22T19:48:00Z</time>
      </trkpt>
      <trkpt lat="59.4884935" lon="17.8733187">
        <ele>17.4</ele>
        <time>2013-01-22T19:48:03Z</time>
      </trkpt>
      <trkpt lat="59.4886536" lon="17.8733847">
        <ele>13.8</ele>
        <time>2013-01-22T19:48:06Z</time>
      </trkpt>
      <trkpt lat="59.4887044" lon="17.873397">
        <ele>12.8</ele>
        <time>2013-01-22T19:48:07Z</time>
      </trkpt>
      <trkpt lat="59.4888067" lon="17.8734431">
        <ele>11.2</ele>
        <time>2013-01-22T19:48:09Z</time>
      </trkpt>
      <trkpt lat="59.4889018" lon="17.8735614">
        <ele>10.6</ele>
        <time>2013-01-22T19:48:11Z</time>
      </trkpt>
      <trkpt lat="59.4889868" lon="17.8739194">
        <ele>9.8</ele>
        <time>2013-01-22T19:48:15Z</time>
      </trkpt>
      <trkpt lat="59.4889965" lon="17.8740301">
        <ele>9.2</ele>
        <time>2013-01-22T19:48:16Z</time>
      </trkpt>
      <trkpt lat="59.4890308" lon="17.87436">
        <ele>8.6</ele>
        <time>2013-01-22T19:48:19Z</time>
      </trkpt>
      <trkpt lat="59.4891519" lon="17.8746569">
        <ele>10</ele>
        <time>2013-01-22T19:48:22Z</time>
      </trkpt>
      <trkpt lat="59.4893223" lon="17.8748883">
        <ele>11.2</ele>
        <time>2013-01-22T19:48:26Z</time>
      </trkpt>
      <trkpt lat="59.489389" lon="17.8749098">
        <ele>10.6</ele>
        <time>2013-01-22T19:48:28Z</time>
      </trkpt>
      <trkpt lat="59.4894199" lon="17.8749112">
        <ele>9.6</ele>
        <time>2013-01-22T19:48:29Z</time>
      </trkpt>
      <trkpt lat="59.4895053" lon="17.874927">
        <ele>9.4</ele>
        <time>2013-01-22T19:48:31Z</time>
      </trkpt>
      <trkpt lat="59.4896782" lon="17.8750587">
        <ele>9</ele>
        <time>2013-01-22T19:48:35Z</time>
      </trkpt>
      <trkpt lat="59.489718" lon="17.8751162">
        <ele>9.4</ele>
        <time>2013-01-22T19:48:36Z</time>
      </trkpt>
      <trkpt lat="59.4897917" lon="17.8752382">
        <ele>9</ele>
        <time>2013-01-22T19:48:38Z</time>
      </trkpt>
      <trkpt lat="59.4898151" lon="17.8753159">
        <ele>8.8</ele>
        <time>2013-01-22T19:48:39Z</time>
      </trkpt>
      <trkpt lat="59.4898635" lon="17.8755258">
        <ele>9.4</ele>
        <time>2013-01-22T19:48:42Z</time>
      </trkpt>
      <trkpt lat="59.4899067" lon="17.8756359">
        <ele>9.6</ele>
        <time>2013-01-22T19:48:44Z</time>
      </trkpt>
      <trkpt lat="59.4900388" lon="17.8759308">
        <ele>11.2</ele>
        <time>2013-01-22T19:48:49Z</time>
      </trkpt>
      <trkpt lat="59.4900774" lon="17.8761173">
        <ele>10.8</ele>
        <time>2013-01-22T19:48:51Z</time>
      </trkpt>
      <trkpt lat="59.4901014" lon="17.8762016">
        <ele>11.2</ele>
        <time>2013-01-22T19:48:52Z</time>
      </trkpt>
      <trkpt lat="59.4901346" lon="17.876284">
        <ele>11.6</ele>
        <time>2013-01-22T19:48:53Z</time>
      </trkpt>
      <trkpt lat="59.4903149" lon="17.876524">
        <ele>14.4</ele>
        <time>2013-01-22T19:48:57Z</time>
      </trkpt>
      <trkpt lat="59.49036" lon="17.8766803">
        <ele>15.8</ele>
        <time>2013-01-22T19:48:59Z</time>
      </trkpt>
      <trkpt lat="59.4903672" lon="17.876762">
        <ele>16</ele>
        <time>2013-01-22T19:49:00Z</time>
      </trkpt>
      <trkpt lat="59.4903613" lon="17.8768506">
        <ele>16.6</ele>
        <time>2013-01-22T19:49:01Z</time>
      </trkpt>
      <trkpt lat="59.4901972" lon="17.8770495">
        <ele>6.8</ele>
        <time>2013-01-22T19:49:05Z</time>
      </trkpt>
      <trkpt lat="59.4900622" lon="17.8771097">
        <ele>3.6</ele>
        <time>2013-01-22T19:49:08Z</time>
      </trkpt>
      <trkpt lat="59.4900202" lon="17.8771263">
        <ele>2.8</ele>
        <time>2013-01-22T19:49:09Z</time>
      </trkpt>
      <trkpt lat="59.4898738" lon="17.8771808">
        <ele>0</ele>
        <time>2013-01-22T19:49:12Z</time>
      </trkpt>
      <trkpt lat="59.4898264" lon="17.8771842">
        <ele>0</ele>
        <time>2013-01-22T19:49:13Z</time>
      </trkpt>
      <trkpt lat="59.4896911" lon="17.8771925">
        <ele>0</ele>
        <time>2013-01-22T19:49:16Z</time>
      </trkpt>
      <trkpt lat="59.4896416" lon="17.8771911">
        <ele>0</ele>
        <time>2013-01-22T19:49:17Z</time>
      </trkpt>
      <trkpt lat="59.4895948" lon="17.8771869">
        <ele>0</ele>
        <time>2013-01-22T19:49:18Z</time>
      </trkpt>
      <trkpt lat="59.4894555" lon="17.877123">
        <ele>0</ele>
        <time>2013-01-22T19:49:21Z</time>
      </trkpt>
      <trkpt lat="59.4893317" lon="17.8770059">
        <ele>0.8</ele>
        <time>2013-01-22T19:49:24Z</time>
      </trkpt>
      <trkpt lat="59.4892921" lon="17.8769601">
        <ele>1</ele>
        <time>2013-01-22T19:49:25Z</time>
      </trkpt>
      <trkpt lat="59.4892545" lon="17.8769103">
        <ele>1.4</ele>
        <time>2013-01-22T19:49:26Z</time>
      </trkpt>
      <trkpt lat="59.4891176" lon="17.8767228">
        <ele>2.6</ele>
        <time>2013-01-22T19:49:30Z</time>
      </trkpt>
      <trkpt lat="59.4890819" lon="17.8766832">
        <ele>2.8</ele>
        <time>2013-01-22T19:49:31Z</time>
      </trkpt>
      <trkpt lat="59.4889747" lon="17.876599">
        <ele>3.8</ele>
        <time>2013-01-22T19:49:34Z</time>
      </trkpt>
      <trkpt lat="59.488934" lon="17.8765855">
        <ele>4.4</ele>
        <time>2013-01-22T19:49:35Z</time>
      </trkpt>
      <trkpt lat="59.4887551" lon="17.8766654">
        <ele>5.4</ele>
        <time>2013-01-22T19:49:40Z</time>
      </trkpt>
      <trkpt lat="59.4887132" lon="17.8766993">
        <ele>5.6</ele>
        <time>2013-01-22T19:49:41Z</time>
      </trkpt>
      <trkpt lat="59.488563" lon="17.8767968">
        <ele>5.6</ele>
        <time>2013-01-22T19:49:45Z</time>
      </trkpt>
      <trkpt lat="59.4883656" lon="17.8767882">
        <ele>5</ele>
        <time>2013-01-22T19:49:50Z</time>
      </trkpt>
      <trkpt lat="59.4882221" lon="17.8769455">
        <ele>4.4</ele>
        <time>2013-01-22T19:49:55Z</time>
      </trkpt>
      <trkpt lat="59.4881988" lon="17.8773763">
        <ele>4.6</ele>
        <time>2013-01-22T19:50:00Z</time>
      </trkpt>
      <trkpt lat="59.4881958" lon="17.8777344">
        <ele>4.2</ele>
        <time>2013-01-22T19:50:04Z</time>
      </trkpt>
      <trkpt lat="59.4882132" lon="17.8779934">
        <ele>5.6</ele>
        <time>2013-01-22T19:50:07Z</time>
      </trkpt>
      <trkpt lat="59.4881831" lon="17.8781248">
        <ele>5.8</ele>
        <time>2013-01-22T19:50:09Z</time>
      </trkpt>
      <trkpt lat="59.4881574" lon="17.878172">
        <ele>5.8</ele>
        <time>2013-01-22T19:50:10Z</time>
      </trkpt>
      <trkpt lat="59.4879992" lon="17.878225">
        <ele>5.8</ele>
        <time>2013-01-22T19:50:14Z</time>
      </trkpt>
      <trkpt lat="59.4879334" lon="17.8781611">
        <ele>5</ele>
        <time>2013-01-22T19:50:16Z</time>
      </trkpt>
      <trkpt lat="59.4878274" lon="17.8779773">
        <ele>6.8</ele>
        <time>2013-01-22T19:50:20Z</time>
      </trkpt>
      <trkpt lat="59.4876409" lon="17.8777558">
        <ele>7.4</ele>
        <time>2013-01-22T19:50:26Z</time>
      </trkpt>
      <trkpt lat="59.4875566" lon="17.8776296">
        <ele>8</ele>
        <time>2013-01-22T19:50:29Z</time>
      </trkpt>
      <trkpt lat="59.4875063" lon="17.8774931">
        <ele>7.8</ele>
        <time>2013-01-22T19:50:31Z</time>
      </trkpt>
      <trkpt lat="59.4873876" lon="17.8771749">
        <ele>7.8</ele>
        <time>2013-01-22T19:50:36Z</time>
      </trkpt>
      <trkpt lat="59.4872731" lon="17.8768596">
        <ele>8.2</ele>
        <time>2013-01-22T19:50:41Z</time>
      </trkpt>
      <trkpt lat="59.4871706" lon="17.876627">
        <ele>9.4</ele>
        <time>2013-01-22T19:50:45Z</time>
      </trkpt>
      <trkpt lat="59.4871452" lon="17.8765735">
        <ele>9.6</ele>
        <time>2013-01-22T19:50:46Z</time>
      </trkpt>
      <trkpt lat="59.4870023" lon="17.8763389">
        <ele>8.6</ele>
        <time>2013-01-22T19:50:51Z</time>
      </trkpt>
      <trkpt lat="59.4868499" lon="17.8761007">
        <ele>7.6</ele>
        <time>2013-01-22T19:50:56Z</time>
      </trkpt>
      <trkpt lat="59.4866993" lon="17.875835">
        <ele>6.6</ele>
        <time>2013-01-22T19:51:01Z</time>
      </trkpt>
      <trkpt lat="59.4865437" lon="17.8755422">
        <ele>7</ele>
        <time>2013-01-22T19:51:07Z</time>
      </trkpt>
      <trkpt lat="59.4864089" lon="17.8752102">
        <ele>8</ele>
        <time>2013-01-22T19:51:13Z</time>
      </trkpt>
      <trkpt lat="59.4862675" lon="17.8749339">
        <ele>8.4</ele>
        <time>2013-01-22T19:51:19Z</time>
      </trkpt>
      <trkpt lat="59.4860727" lon="17.8748543">
        <ele>8.8</ele>
        <time>2013-01-22T19:51:25Z</time>
      </trkpt>
      <trkpt lat="59.4858874" lon="17.8749215">
        <ele>9.4</ele>
        <time>2013-01-22T19:51:31Z</time>
      </trkpt>
      <trkpt lat="59.4857112" lon="17.8750941">
        <ele>10.2</ele>
        <time>2013-01-22T19:51:37Z</time>
      </trkpt>
      <trkpt lat="59.4855362" lon="17.8753377">
        <ele>10.4</ele>
        <time>2013-01-22T19:51:42Z</time>
      </trkpt>
      <trkpt lat="59.4853912" lon="17.8756442">
        <ele>10.2</ele>
        <time>2013-01-22T19:51:48Z</time>
      </trkpt>
      <trkpt lat="59.4852812" lon="17.8760114">
        <ele>10</ele>
        <time>2013-01-22T19:51:54Z</time>
      </trkpt>
      <trkpt lat="59.4852119" lon="17.8763576">
        <ele>8.6</ele>
        <time>2013-01-22T19:51:59Z</time>
      </trkpt>
      <trkpt lat="59.485341" lon="17.8766618">
        <ele>9.2</ele>
        <time>2013-01-22T19:52:05Z</time>
      </trkpt>
      <trkpt lat="59.485517" lon="17.8768138">
        <ele>9.4</ele>
        <time>2013-01-22T19:52:10Z</time>
      </trkpt>
      <trkpt lat="59.485687" lon="17.8769516">
        <ele>12.4</ele>
        <time>2013-01-22T19:52:15Z</time>
      </trkpt>
      <trkpt lat="59.485874" lon="17.8771558">
        <ele>15</ele>
        <time>2013-01-22T19:52:20Z</time>
      </trkpt>
      <trkpt lat="59.4860518" lon="17.8773188">
        <ele>16.8</ele>
        <time>2013-01-22T19:52:25Z</time>
      </trkpt>
      <trkpt lat="59.4861152" lon="17.8773856">
        <ele>17</ele>
        <time>2013-01-22T19:52:27Z</time>
      </trkpt>
      <trkpt lat="59.4862141" lon="17.877481">
        <ele>16</ele>
        <time>2013-01-22T19:52:30Z</time>
      </trkpt>
      <trkpt lat="59.486393" lon="17.8776682">
        <ele>16</ele>
        <time>2013-01-22T19:52:35Z</time>
      </trkpt>
      <trkpt lat="59.4865661" lon="17.8778605">
        <ele>15.4</ele>
        <time>2013-01-22T19:52:40Z</time>
      </trkpt>
      <trkpt lat="59.4867381" lon="17.8780503">
        <ele>15.4</ele>
        <time>2013-01-22T19:52:45Z</time>
      </trkpt>
      <trkpt lat="59.486897" lon="17.8782358">
        <ele>14</ele>
        <time>2013-01-22T19:52:50Z</time>
      </trkpt>
      <trkpt lat="59.4870881" lon="17.8783611">
        <ele>11</ele>
        <time>2013-01-22T19:52:56Z</time>
      </trkpt>
      <trkpt lat="59.487246" lon="17.8781758">
        <ele>7.4</ele>
        <time>2013-01-22T19:53:01Z</time>
      </trkpt>
      <trkpt lat="59.4874062" lon="17.8779375">
        <ele>5.8</ele>
        <time>2013-01-22T19:53:06Z</time>
      </trkpt>
      <trkpt lat="59.4875312" lon="17.8778386">
        <ele>6</ele>
        <time>2013-01-22T19:53:09Z</time>
      </trkpt>
      <trkpt lat="59.4875757" lon="17.8778168">
        <ele>6.2</ele>
        <time>2013-01-22T19:53:10Z</time>
      </trkpt>
      <trkpt lat="59.4876661" lon="17.8777807">
        <ele>5.4</ele>
        <time>2013-01-22T19:53:12Z</time>
      </trkpt>
      <trkpt lat="59.487766" lon="17.8778008">
        <ele>5.8</ele>
        <time>2013-01-22T19:53:14Z</time>
      </trkpt>
      <trkpt lat="59.4879233" lon="17.878">
        <ele>5.2</ele>
        <time>2013-01-22T19:53:18Z</time>
      </trkpt>
      <trkpt lat="59.4879641" lon="17.8780689">
        <ele>5.4</ele>
        <time>2013-01-22T19:53:19Z</time>
      </trkpt>
      <trkpt lat="59.4880935" lon="17.8781818">
        <ele>5.6</ele>
        <time>2013-01-22T19:53:22Z</time>
      </trkpt>
      <trkpt lat="59.4881822" lon="17.8781903">
        <ele>5.6</ele>
        <time>2013-01-22T19:53:24Z</time>
      </trkpt>
      <trkpt lat="59.48823" lon="17.8782048">
        <ele>6</ele>
        <time>2013-01-22T19:53:25Z</time>
      </trkpt>
      <trkpt lat="59.488277" lon="17.8782341">
        <ele>6.2</ele>
        <time>2013-01-22T19:53:26Z</time>
      </trkpt>
      <trkpt lat="59.4883568" lon="17.8783015">
        <ele>6.4</ele>
        <time>2013-01-22T19:53:28Z</time>
      </trkpt>
      <trkpt lat="59.4884496" lon="17.8784123">
        <ele>6.8</ele>
        <time>2013-01-22T19:53:31Z</time>
      </trkpt>
      <trkpt lat="59.4886114" lon="17.8785571">
        <ele>8.8</ele>
        <time>2013-01-22T19:53:35Z</time>
      </trkpt>
      <trkpt lat="59.4887406" lon="17.8786502">
        <ele>9.8</ele>
        <time>2013-01-22T19:53:38Z</time>
      </trkpt>
      <trkpt lat="59.4888027" lon="17.8786902">
        <ele>8.6</ele>
        <time>2013-01-22T19:53:40Z</time>
      </trkpt>
      <trkpt lat="59.4889032" lon="17.8787455">
        <ele>8</ele>
        <time>2013-01-22T19:53:43Z</time>
      </trkpt>
      <trkpt lat="59.4889707" lon="17.8789">
        <ele>9.6</ele>
        <time>2013-01-22T19:53:46Z</time>
      </trkpt>
      <trkpt lat="59.4888246" lon="17.8790145">
        <ele>10</ele>
        <time>2013-01-22T19:53:52Z</time>
      </trkpt>
      <trkpt lat="59.488609" lon="17.8790466">
        <ele>8.4</ele>
        <time>2013-01-22T19:53:57Z</time>
      </trkpt>
      <trkpt lat="59.488411" lon="17.8791471">
        <ele>6</ele>
        <time>2013-01-22T19:54:02Z</time>
      </trkpt>
      <trkpt lat="59.4883729" lon="17.8791811">
        <ele>5.8</ele>
        <time>2013-01-22T19:54:03Z</time>
      </trkpt>
      <trkpt lat="59.4882268" lon="17.8793608">
        <ele>5.6</ele>
        <time>2013-01-22T19:54:07Z</time>
      </trkpt>
      <trkpt lat="59.4881119" lon="17.8795971">
        <ele>4.4</ele>
        <time>2013-01-22T19:54:11Z</time>
      </trkpt>
      <trkpt lat="59.4880915" lon="17.8796578">
        <ele>4.2</ele>
        <time>2013-01-22T19:54:12Z</time>
      </trkpt>
      <trkpt lat="59.4879921" lon="17.880009">
        <ele>3.2</ele>
        <time>2013-01-22T19:54:17Z</time>
      </trkpt>
      <trkpt lat="59.4879078" lon="17.8803714">
        <ele>2.6</ele>
        <time>2013-01-22T19:54:22Z</time>
      </trkpt>
      <trkpt lat="59.4878781" lon="17.8805088">
        <ele>2.2</ele>
        <time>2013-01-22T19:54:24Z</time>
      </trkpt>
      <trkpt lat="59.4878362" lon="17.8807476">
        <ele>2.4</ele>
        <time>2013-01-22T19:54:28Z</time>
      </trkpt>
      <trkpt lat="59.4877586" lon="17.8810808">
        <ele>3.8</ele>
        <time>2013-01-22T19:54:33Z</time>
      </trkpt>
      <trkpt lat="59.4876937" lon="17.8813274">
        <ele>4.6</ele>
        <time>2013-01-22T19:54:37Z</time>
      </trkpt>
      <trkpt lat="59.4876579" lon="17.881358">
        <ele>4.6</ele>
        <time>2013-01-22T19:54:38Z</time>
      </trkpt>
      <trkpt lat="59.4874664" lon="17.8815035">
        <ele>5</ele>
        <time>2013-01-22T19:54:43Z</time>
      </trkpt>
      <trkpt lat="59.4873209" lon="17.8815025">
        <ele>3.8</ele>
        <time>2013-01-22T19:54:46Z</time>
      </trkpt>
      <trkpt lat="59.4872751" lon="17.8814894">
        <ele>3.2</ele>
        <time>2013-01-22T19:54:47Z</time>
      </trkpt>
      <trkpt lat="59.4872307" lon="17.8814723">
        <ele>3</ele>
        <time>2013-01-22T19:54:48Z</time>
      </trkpt>
      <trkpt lat="59.4871126" lon="17.8814178">
        <ele>2.6</ele>
        <time>2013-01-22T19:54:51Z</time>
      </trkpt>
      <trkpt lat="59.4870798" lon="17.8814064">
        <ele>2.4</ele>
        <time>2013-01-22T19:54:52Z</time>
      </trkpt>
      <trkpt lat="59.4870484" lon="17.8813852">
        <ele>2.2</ele>
        <time>2013-01-22T19:54:53Z</time>
      </trkpt>
      <trkpt lat="59.4869048" lon="17.8813008">
        <ele>1.2</ele>
        <time>2013-01-22T19:54:57Z</time>
      </trkpt>
      <trkpt lat="59.4867127" lon="17.8812115">
        <ele>1.8</ele>
        <time>2013-01-22T19:55:02Z</time>
      </trkpt>
      <trkpt lat="59.486511" lon="17.8811917">
        <ele>5.2</ele>
        <time>2013-01-22T19:55:08Z</time>
      </trkpt>
      <trkpt lat="59.4863203" lon="17.8811672">
        <ele>7</ele>
        <time>2013-01-22T19:55:14Z</time>
      </trkpt>
      <trkpt lat="59.4861268" lon="17.8811119">
        <ele>9.2</ele>
        <time>2013-01-22T19:55:20Z</time>
      </trkpt>
      <trkpt lat="59.4859309" lon="17.8810995">
        <ele>10</ele>
        <time>2013-01-22T19:55:26Z</time>
      </trkpt>
      <trkpt lat="59.4857765" lon="17.8813142">
        <ele>10</ele>
        <time>2013-01-22T19:55:32Z</time>
      </trkpt>
      <trkpt lat="59.4857099" lon="17.8817029">
        <ele>8.8</ele>
        <time>2013-01-22T19:55:37Z</time>
      </trkpt>
      <trkpt lat="59.4857251" lon="17.8821114">
        <ele>7</ele>
        <time>2013-01-22T19:55:42Z</time>
      </trkpt>
      <trkpt lat="59.4857334" lon="17.8822676">
        <ele>6.4</ele>
        <time>2013-01-22T19:55:44Z</time>
      </trkpt>
      <trkpt lat="59.4857231" lon="17.882522">
        <ele>5.6</ele>
        <time>2013-01-22T19:55:47Z</time>
      </trkpt>
      <trkpt lat="59.4857118" lon="17.882889">
        <ele>3.4</ele>
        <time>2013-01-22T19:55:51Z</time>
      </trkpt>
      <trkpt lat="59.485715" lon="17.8829858">
        <ele>2.4</ele>
        <time>2013-01-22T19:55:52Z</time>
      </trkpt>
      <trkpt lat="59.4857246" lon="17.883084">
        <ele>2</ele>
        <time>2013-01-22T19:55:53Z</time>
      </trkpt>
      <trkpt lat="59.4857594" lon="17.8832555">
        <ele>0.8</ele>
        <time>2013-01-22T19:55:55Z</time>
      </trkpt>
      <trkpt lat="59.485805" lon="17.8835382">
        <ele>0</ele>
        <time>2013-01-22T19:55:58Z</time>
      </trkpt>
      <trkpt lat="59.4858232" lon="17.8836218">
        <ele>0</ele>
        <time>2013-01-22T19:55:59Z</time>
      </trkpt>
      <trkpt lat="59.4858507" lon="17.8839071">
        <ele>0</ele>
        <time>2013-01-22T19:56:02Z</time>
      </trkpt>
      <trkpt lat="59.4858499" lon="17.8839976">
        <ele>0</ele>
        <time>2013-01-22T19:56:03Z</time>
      </trkpt>
      <trkpt lat="59.4857315" lon="17.8843039">
        <ele>0</ele>
        <time>2013-01-22T19:56:07Z</time>
      </trkpt>
      <trkpt lat="59.4855396" lon="17.8844488">
        <ele>0</ele>
        <time>2013-01-22T19:56:11Z</time>
      </trkpt>
      <trkpt lat="59.4854316" lon="17.8844929">
        <ele>0</ele>
        <time>2013-01-22T19:56:13Z</time>
      </trkpt>
      <trkpt lat="59.4853198" lon="17.884535">
        <ele>0</ele>
        <time>2013-01-22T19:56:15Z</time>
      </trkpt>
      <trkpt lat="59.4851473" lon="17.8846174">
        <ele>0</ele>
        <time>2013-01-22T19:56:18Z</time>
      </trkpt>
      <trkpt lat="59.4850934" lon="17.8846489">
        <ele>0</ele>
        <time>2013-01-22T19:56:19Z</time>
      </trkpt>
      <trkpt lat="59.4850037" lon="17.8846896">
        <ele>0</ele>
        <time>2013-01-22T19:56:21Z</time>
      </trkpt>
      <trkpt lat="59.4848781" lon="17.8846964">
        <ele>0.4</ele>
        <time>2013-01-22T19:56:24Z</time>
      </trkpt>
      <trkpt lat="59.4848375" lon="17.8847002">
        <ele>0.2</ele>
        <time>2013-01-22T19:56:25Z</time>
      </trkpt>
      <trkpt lat="59.4846841" lon="17.8847093">
        <ele>1.6</ele>
        <time>2013-01-22T19:56:29Z</time>
      </trkpt>
      <trkpt lat="59.4845027" lon="17.8847431">
        <ele>2.8</ele>
        <time>2013-01-22T19:56:34Z</time>
      </trkpt>
      <trkpt lat="59.4844588" lon="17.8847535">
        <ele>3.4</ele>
        <time>2013-01-22T19:56:35Z</time>
      </trkpt>
      <trkpt lat="59.4843138" lon="17.8847805">
        <ele>3.4</ele>
        <time>2013-01-22T19:56:38Z</time>
      </trkpt>
      <trkpt lat="59.4842126" lon="17.8847938">
        <ele>3.2</ele>
        <time>2013-01-22T19:56:40Z</time>
      </trkpt>
      <trkpt lat="59.4841236" lon="17.8848042">
        <ele>2.2</ele>
        <time>2013-01-22T19:56:42Z</time>
      </trkpt>
      <trkpt lat="59.4839305" lon="17.8849139">
        <ele>1.8</ele>
        <time>2013-01-22T19:56:47Z</time>
      </trkpt>
      <trkpt lat="59.4837974" lon="17.8851449">
        <ele>0.8</ele>
        <time>2013-01-22T19:56:51Z</time>
      </trkpt>
      <trkpt lat="59.4837584" lon="17.8852112">
        <ele>0.4</ele>
        <time>2013-01-22T19:56:52Z</time>
      </trkpt>
      <trkpt lat="59.4837196" lon="17.8852829">
        <ele>0</ele>
        <time>2013-01-22T19:56:53Z</time>
      </trkpt>
      <trkpt lat="59.4836201" lon="17.885445">
        <ele>0</ele>
        <time>2013-01-22T19:56:55Z</time>
      </trkpt>
      <trkpt lat="59.483476" lon="17.8857026">
        <ele>0</ele>
        <time>2013-01-22T19:56:58Z</time>
      </trkpt>
      <trkpt lat="59.4833274" lon="17.886015">
        <ele>0</ele>
        <time>2013-01-22T19:57:02Z</time>
      </trkpt>
      <trkpt lat="59.4832637" lon="17.8861563">
        <ele>0</ele>
        <time>2013-01-22T19:57:04Z</time>
      </trkpt>
      <trkpt lat="59.4831953" lon="17.8862789">
        <ele>0</ele>
        <time>2013-01-22T19:57:06Z</time>
      </trkpt>
      <trkpt lat="59.4831253" lon="17.8863716">
        <ele>0</ele>
        <time>2013-01-22T19:57:08Z</time>
      </trkpt>
      <trkpt lat="59.4829983" lon="17.8863744">
        <ele>0</ele>
        <time>2013-01-22T19:57:11Z</time>
      </trkpt>
      <trkpt lat="59.4829602" lon="17.8863561">
        <ele>0</ele>
        <time>2013-01-22T19:57:12Z</time>
      </trkpt>
      <trkpt lat="59.4828114" lon="17.8861863">
        <ele>0</ele>
        <time>2013-01-22T19:57:16Z</time>
      </trkpt>
      <trkpt lat="59.4827825" lon="17.886122">
        <ele>0</ele>
        <time>2013-01-22T19:57:17Z</time>
      </trkpt>
      <trkpt lat="59.4827369" lon="17.8858346">
        <ele>0</ele>
        <time>2013-01-22T19:57:21Z</time>
      </trkpt>
      <trkpt lat="59.4827131" lon="17.8856147">
        <ele>0</ele>
        <time>2013-01-22T19:57:24Z</time>
      </trkpt>
      <trkpt lat="59.4826862" lon="17.885483">
        <ele>0</ele>
        <time>2013-01-22T19:57:26Z</time>
      </trkpt>
      <trkpt lat="59.4826611" lon="17.8853155">
        <ele>0</ele>
        <time>2013-01-22T19:57:29Z</time>
      </trkpt>
      <trkpt lat="59.4826836" lon="17.8850734">
        <ele>1.4</ele>
        <time>2013-01-22T19:57:33Z</time>
      </trkpt>
      <trkpt lat="59.4827126" lon="17.8847034">
        <ele>3.6</ele>
        <time>2013-01-22T19:57:38Z</time>
      </trkpt>
      <trkpt lat="59.4827069" lon="17.8843112">
        <ele>6.6</ele>
        <time>2013-01-22T19:57:44Z</time>
      </trkpt>
      <trkpt lat="59.4827213" lon="17.8839278">
        <ele>10.2</ele>
        <time>2013-01-22T19:57:51Z</time>
      </trkpt>
      <trkpt lat="59.4827702" lon="17.883585">
        <ele>12.8</ele>
        <time>2013-01-22T19:57:58Z</time>
      </trkpt>
      <trkpt lat="59.4827776" lon="17.8832161">
        <ele>13.4</ele>
        <time>2013-01-22T19:58:03Z</time>
      </trkpt>
      <trkpt lat="59.4827964" lon="17.8828591">
        <ele>16.4</ele>
        <time>2013-01-22T19:58:10Z</time>
      </trkpt>
      <trkpt lat="59.4828864" lon="17.8824953">
        <ele>19.4</ele>
        <time>2013-01-22T19:58:18Z</time>
      </trkpt>
      <trkpt lat="59.4829432" lon="17.8821577">
        <ele>22.2</ele>
        <time>2013-01-22T19:58:25Z</time>
      </trkpt>
      <trkpt lat="59.4829807" lon="17.881792">
        <ele>23.4</ele>
        <time>2013-01-22T19:58:32Z</time>
      </trkpt>
      <trkpt lat="59.4830558" lon="17.8814199">
        <ele>23.6</ele>
        <time>2013-01-22T19:58:37Z</time>
      </trkpt>
      <trkpt lat="59.4831384" lon="17.8810419">
        <ele>25</ele>
        <time>2013-01-22T19:58:43Z</time>
      </trkpt>
      <trkpt lat="59.4832047" lon="17.8806629">
        <ele>25.2</ele>
        <time>2013-01-22T19:58:49Z</time>
      </trkpt>
      <trkpt lat="59.4832713" lon="17.8802685">
        <ele>25.6</ele>
        <time>2013-01-22T19:58:55Z</time>
      </trkpt>
      <trkpt lat="59.483327" lon="17.879914">
        <ele>25.8</ele>
        <time>2013-01-22T19:59:01Z</time>
      </trkpt>
      <trkpt lat="59.4833223" lon="17.8796397">
        <ele>26</ele>
        <time>2013-01-22T19:59:06Z</time>
      </trkpt>
      <trkpt lat="59.4833062" lon="17.8795003">
        <ele>25.8</ele>
        <time>2013-01-22T19:59:08Z</time>
      </trkpt>
      <trkpt lat="59.4832788" lon="17.8792821">
        <ele>24.8</ele>
        <time>2013-01-22T19:59:11Z</time>
      </trkpt>
      <trkpt lat="59.4832694" lon="17.8790839">
        <ele>24.6</ele>
        <time>2013-01-22T19:59:14Z</time>
      </trkpt>
      <trkpt lat="59.4833405" lon="17.8787367">
        <ele>24</ele>
        <time>2013-01-22T19:59:19Z</time>
      </trkpt>
      <trkpt lat="59.4834765" lon="17.8784317">
        <ele>21.4</ele>
        <time>2013-01-22T19:59:24Z</time>
      </trkpt>
      <trkpt lat="59.4835434" lon="17.8783229">
        <ele>21.4</ele>
        <time>2013-01-22T19:59:26Z</time>
      </trkpt>
      <trkpt lat="59.4836422" lon="17.878152">
        <ele>21</ele>
        <time>2013-01-22T19:59:29Z</time>
      </trkpt>
      <trkpt lat="59.4836735" lon="17.8780896">
        <ele>20.6</ele>
        <time>2013-01-22T19:59:30Z</time>
      </trkpt>
      <trkpt lat="59.4837697" lon="17.8778835">
        <ele>19.8</ele>
        <time>2013-01-22T19:59:33Z</time>
      </trkpt>
      <trkpt lat="59.4838195" lon="17.8776361">
        <ele>19.4</ele>
        <time>2013-01-22T19:59:36Z</time>
      </trkpt>
      <trkpt lat="59.4838082" lon="17.8774863">
        <ele>19</ele>
        <time>2013-01-22T19:59:38Z</time>
      </trkpt>
      <trkpt lat="59.4836206" lon="17.8773896">
        <ele>17.8</ele>
        <time>2013-01-22T19:59:44Z</time>
      </trkpt>
      <trkpt lat="59.4835497" lon="17.8774069">
        <ele>18</ele>
        <time>2013-01-22T19:59:46Z</time>
      </trkpt>
      <trkpt lat="59.4834325" lon="17.8774315">
        <ele>17.2</ele>
        <time>2013-01-22T19:59:49Z</time>
      </trkpt>
      <trkpt lat="59.4832211" lon="17.8774526">
        <ele>16.2</ele>
        <time>2013-01-22T19:59:54Z</time>
      </trkpt>
      <trkpt lat="59.4830993" lon="17.8774672">
        <ele>15.8</ele>
        <time>2013-01-22T19:59:57Z</time>
      </trkpt>
      <trkpt lat="59.4830268" lon="17.8774942">
        <ele>15.6</ele>
        <time>2013-01-22T19:59:59Z</time>
      </trkpt>
      <trkpt lat="59.4829915" lon="17.8775153">
        <ele>15.6</ele>
        <time>2013-01-22T20:00:00Z</time>
      </trkpt>
      <trkpt lat="59.4828503" lon="17.8776864">
        <ele>15.6</ele>
        <time>2013-01-22T20:00:05Z</time>
      </trkpt>
      <trkpt lat="59.48279" lon="17.8780469">
        <ele>15.6</ele>
        <time>2013-01-22T20:00:11Z</time>
      </trkpt>
      <trkpt lat="59.4828538" lon="17.8784306">
        <ele>15.8</ele>
        <time>2013-01-22T20:00:17Z</time>
      </trkpt>
      <trkpt lat="59.4829278" lon="17.8787685">
        <ele>16.2</ele>
        <time>2013-01-22T20:00:22Z</time>
      </trkpt>
      <trkpt lat="59.4829866" lon="17.8791098">
        <ele>16.4</ele>
        <time>2013-01-22T20:00:27Z</time>
      </trkpt>
      <trkpt lat="59.4830435" lon="17.8794879">
        <ele>19</ele>
        <time>2013-01-22T20:00:32Z</time>
      </trkpt>
      <trkpt lat="59.4830461" lon="17.8798988">
        <ele>19</ele>
        <time>2013-01-22T20:00:37Z</time>
      </trkpt>
      <trkpt lat="59.4829731" lon="17.880301">
        <ele>18</ele>
        <time>2013-01-22T20:00:42Z</time>
      </trkpt>
      <trkpt lat="59.4829589" lon="17.8803845">
        <ele>17.6</ele>
        <time>2013-01-22T20:00:43Z</time>
      </trkpt>
      <trkpt lat="59.4829099" lon="17.8806753">
        <ele>17.6</ele>
        <time>2013-01-22T20:00:46Z</time>
      </trkpt>
      <trkpt lat="59.4828382" lon="17.8810827">
        <ele>17.6</ele>
        <time>2013-01-22T20:00:50Z</time>
      </trkpt>
      <trkpt lat="59.4828228" lon="17.8811785">
        <ele>17.2</ele>
        <time>2013-01-22T20:00:51Z</time>
      </trkpt>
      <trkpt lat="59.4827869" lon="17.881489">
        <ele>16</ele>
        <time>2013-01-22T20:00:54Z</time>
      </trkpt>
      <trkpt lat="59.4827841" lon="17.8815815">
        <ele>15.6</ele>
        <time>2013-01-22T20:00:55Z</time>
      </trkpt>
      <trkpt lat="59.4827927" lon="17.8819081">
        <ele>15.4</ele>
        <time>2013-01-22T20:00:59Z</time>
      </trkpt>
      <trkpt lat="59.4827934" lon="17.8819868">
        <ele>15.4</ele>
        <time>2013-01-22T20:01:00Z</time>
      </trkpt>
      <trkpt lat="59.4827916" lon="17.8821504">
        <ele>14.2</ele>
        <time>2013-01-22T20:01:02Z</time>
      </trkpt>
      <trkpt lat="59.4827873" lon="17.8823316">
        <ele>13.6</ele>
        <time>2013-01-22T20:01:04Z</time>
      </trkpt>
      <trkpt lat="59.4827631" lon="17.8827176">
        <ele>11.8</ele>
        <time>2013-01-22T20:01:08Z</time>
      </trkpt>
      <trkpt lat="59.4827478" lon="17.8828311">
        <ele>11.2</ele>
        <time>2013-01-22T20:01:09Z</time>
      </trkpt>
      <trkpt lat="59.4827028" lon="17.8830757">
        <ele>10.2</ele>
        <time>2013-01-22T20:01:11Z</time>
      </trkpt>
      <trkpt lat="59.4826298" lon="17.8834614">
        <ele>7.8</ele>
        <time>2013-01-22T20:01:14Z</time>
      </trkpt>
      <trkpt lat="59.4825562" lon="17.8838496">
        <ele>6.2</ele>
        <time>2013-01-22T20:01:17Z</time>
      </trkpt>
      <trkpt lat="59.4824163" lon="17.8842003">
        <ele>4</ele>
        <time>2013-01-22T20:01:20Z</time>
      </trkpt>
      <trkpt lat="59.482295" lon="17.8844137">
        <ele>3.2</ele>
        <time>2013-01-22T20:01:22Z</time>
      </trkpt>
      <trkpt lat="59.4822349" lon="17.8845163">
        <ele>3.4</ele>
        <time>2013-01-22T20:01:23Z</time>
      </trkpt>
      <trkpt lat="59.4821809" lon="17.8846238">
        <ele>3.2</ele>
        <time>2013-01-22T20:01:24Z</time>
      </trkpt>
      <trkpt lat="59.4820951" lon="17.884859">
        <ele>2.8</ele>
        <time>2013-01-22T20:01:26Z</time>
      </trkpt>
      <trkpt lat="59.4820376" lon="17.8851084">
        <ele>2.6</ele>
        <time>2013-01-22T20:01:28Z</time>
      </trkpt>
      <trkpt lat="59.4820231" lon="17.8852247">
        <ele>2.4</ele>
        <time>2013-01-22T20:01:29Z</time>
      </trkpt>
      <trkpt lat="59.4819959" lon="17.8856051">
        <ele>0.8</ele>
        <time>2013-01-22T20:01:32Z</time>
      </trkpt>
      <trkpt lat="59.4819885" lon="17.8857064">
        <ele>0.2</ele>
        <time>2013-01-22T20:01:33Z</time>
      </trkpt>
      <trkpt lat="59.4819804" lon="17.8859625">
        <ele>0</ele>
        <time>2013-01-22T20:01:36Z</time>
      </trkpt>
      <trkpt lat="59.4819671" lon="17.8860547">
        <ele>0</ele>
        <time>2013-01-22T20:01:37Z</time>
      </trkpt>
      <trkpt lat="59.4818278" lon="17.8863543">
        <ele>0</ele>
        <time>2013-01-22T20:01:41Z</time>
      </trkpt>
      <trkpt lat="59.4817761" lon="17.8864185">
        <ele>0</ele>
        <time>2013-01-22T20:01:42Z</time>
      </trkpt>
      <trkpt lat="59.4817226" lon="17.88648">
        <ele>0</ele>
        <time>2013-01-22T20:01:43Z</time>
      </trkpt>
      <trkpt lat="59.4816222" lon="17.8865835">
        <ele>0</ele>
        <time>2013-01-22T20:01:45Z</time>
      </trkpt>
      <trkpt lat="59.4815325" lon="17.8866752">
        <ele>0</ele>
        <time>2013-01-22T20:01:47Z</time>
      </trkpt>
      <trkpt lat="59.4814489" lon="17.8867448">
        <ele>0</ele>
        <time>2013-01-22T20:01:49Z</time>
      </trkpt>
      <trkpt lat="59.4813615" lon="17.8868114">
        <ele>0</ele>
        <time>2013-01-22T20:01:51Z</time>
      </trkpt>
      <trkpt lat="59.4812869" lon="17.8868576">
        <ele>0</ele>
        <time>2013-01-22T20:01:53Z</time>
      </trkpt>
      <trkpt lat="59.4812476" lon="17.8868745">
        <ele>0</ele>
        <time>2013-01-22T20:01:54Z</time>
      </trkpt>
      <trkpt lat="59.4812086" lon="17.8868986">
        <ele>0</ele>
        <time>2013-01-22T20:01:55Z</time>
      </trkpt>
      <trkpt lat="59.4811019" lon="17.8869632">
        <ele>0</ele>
        <time>2013-01-22T20:01:58Z</time>
      </trkpt>
      <trkpt lat="59.4810651" lon="17.8869897">
        <ele>0</ele>
        <time>2013-01-22T20:01:59Z</time>
      </trkpt>
      <trkpt lat="59.4808568" lon="17.8870274">
        <ele>0.6</ele>
        <time>2013-01-22T20:02:05Z</time>
      </trkpt>
      <trkpt lat="59.4807343" lon="17.8867882">
        <ele>1.8</ele>
        <time>2013-01-22T20:02:10Z</time>
      </trkpt>
      <trkpt lat="59.4806965" lon="17.8864303">
        <ele>3.2</ele>
        <time>2013-01-22T20:02:15Z</time>
      </trkpt>
      <trkpt lat="59.4806793" lon="17.8860195">
        <ele>6.2</ele>
        <time>2013-01-22T20:02:20Z</time>
      </trkpt>
      <trkpt lat="59.4806776" lon="17.8858448">
        <ele>6.6</ele>
        <time>2013-01-22T20:02:22Z</time>
      </trkpt>
      <trkpt lat="59.4806861" lon="17.8855844">
        <ele>6.8</ele>
        <time>2013-01-22T20:02:25Z</time>
      </trkpt>
      <trkpt lat="59.4807212" lon="17.8852323">
        <ele>6.6</ele>
        <time>2013-01-22T20:02:29Z</time>
      </trkpt>
      <trkpt lat="59.4807327" lon="17.8849931">
        <ele>5.6</ele>
        <time>2013-01-22T20:02:32Z</time>
      </trkpt>
      <trkpt lat="59.4807234" lon="17.8848455">
        <ele>5.2</ele>
        <time>2013-01-22T20:02:34Z</time>
      </trkpt>
      <trkpt lat="59.4806367" lon="17.8844809">
        <ele>5.6</ele>
        <time>2013-01-22T20:02:40Z</time>
      </trkpt>
      <trkpt lat="59.4805136" lon="17.8842045">
        <ele>6</ele>
        <time>2013-01-22T20:02:46Z</time>
      </trkpt>
      <trkpt lat="59.480488" lon="17.8841511">
        <ele>6.2</ele>
        <time>2013-01-22T20:02:47Z</time>
      </trkpt>
      <trkpt lat="59.4803623" lon="17.8839346">
        <ele>6.4</ele>
        <time>2013-01-22T20:02:52Z</time>
      </trkpt>
      <trkpt lat="59.4801936" lon="17.8837278">
        <ele>5.2</ele>
        <time>2013-01-22T20:02:58Z</time>
      </trkpt>
      <trkpt lat="59.4800303" lon="17.8835407">
        <ele>6.2</ele>
        <time>2013-01-22T20:03:04Z</time>
      </trkpt>
      <trkpt lat="59.4798728" lon="17.8834964">
        <ele>8.6</ele>
        <time>2013-01-22T20:03:10Z</time>
      </trkpt>
      <trkpt lat="59.4798258" lon="17.8834735">
        <ele>8.8</ele>
        <time>2013-01-22T20:03:12Z</time>
      </trkpt>
      <trkpt lat="59.4796397" lon="17.8833676">
        <ele>10.2</ele>
        <time>2013-01-22T20:03:18Z</time>
      </trkpt>
      <trkpt lat="59.4794427" lon="17.8833044">
        <ele>10.4</ele>
        <time>2013-01-22T20:03:24Z</time>
      </trkpt>
      <trkpt lat="59.4792639" lon="17.8832804">
        <ele>10.8</ele>
        <time>2013-01-22T20:03:28Z</time>
      </trkpt>
      <trkpt lat="59.4790928" lon="17.8832466">
        <ele>11.8</ele>
        <time>2013-01-22T20:03:32Z</time>
      </trkpt>
      <trkpt lat="59.4790622" lon="17.8832434">
        <ele>12</ele>
        <time>2013-01-22T20:03:33Z</time>
      </trkpt>
      <trkpt lat="59.4789886" lon="17.88325">
        <ele>12.4</ele>
        <time>2013-01-22T20:03:35Z</time>
      </trkpt>
      <trkpt lat="59.4788633" lon="17.8832402">
        <ele>9.6</ele>
        <time>2013-01-22T20:03:38Z</time>
      </trkpt>
      <trkpt lat="59.4786594" lon="17.8832053">
        <ele>10.8</ele>
        <time>2013-01-22T20:03:44Z</time>
      </trkpt>
      <trkpt lat="59.4786279" lon="17.8831907">
        <ele>11.2</ele>
        <time>2013-01-22T20:03:45Z</time>
      </trkpt>
      <trkpt lat="59.4784647" lon="17.8831161">
        <ele>11</ele>
        <time>2013-01-22T20:03:50Z</time>
      </trkpt>
      <trkpt lat="59.4782834" lon="17.8829901">
        <ele>11</ele>
        <time>2013-01-22T20:03:56Z</time>
      </trkpt>
      <trkpt lat="59.4781878" lon="17.8827649">
        <ele>12.8</ele>
        <time>2013-01-22T20:04:01Z</time>
      </trkpt>
      <trkpt lat="59.4781743" lon="17.8827047">
        <ele>13.2</ele>
        <time>2013-01-22T20:04:02Z</time>
      </trkpt>
      <trkpt lat="59.4781319" lon="17.8823487">
        <ele>14.6</ele>
        <time>2013-01-22T20:04:07Z</time>
      </trkpt>
      <trkpt lat="59.4781199" lon="17.8819589">
        <ele>17.4</ele>
        <time>2013-01-22T20:04:14Z</time>
      </trkpt>
      <trkpt lat="59.4780541" lon="17.881588">
        <ele>19.2</ele>
        <time>2013-01-22T20:04:21Z</time>
      </trkpt>
      <trkpt lat="59.4778578" lon="17.8814705">
        <ele>19.6</ele>
        <time>2013-01-22T20:04:27Z</time>
      </trkpt>
      <trkpt lat="59.4777163" lon="17.8817123">
        <ele>17.8</ele>
        <time>2013-01-22T20:04:32Z</time>
      </trkpt>
      <trkpt lat="59.4777153" lon="17.882018">
        <ele>16.8</ele>
        <time>2013-01-22T20:04:35Z</time>
      </trkpt>
      <trkpt lat="59.4777377" lon="17.8820986">
        <ele>16.2</ele>
        <time>2013-01-22T20:04:36Z</time>
      </trkpt>
      <trkpt lat="59.4777909" lon="17.8822385">
        <ele>15.2</ele>
        <time>2013-01-22T20:04:38Z</time>
      </trkpt>
      <trkpt lat="59.4778776" lon="17.8823463">
        <ele>15.2</ele>
        <time>2013-01-22T20:04:40Z</time>
      </trkpt>
      <trkpt lat="59.4779707" lon="17.8824514">
        <ele>14.4</ele>
        <time>2013-01-22T20:04:42Z</time>
      </trkpt>
      <trkpt lat="59.4780638" lon="17.8825823">
        <ele>14</ele>
        <time>2013-01-22T20:04:44Z</time>
      </trkpt>
      <trkpt lat="59.4781965" lon="17.8827876">
        <ele>13.8</ele>
        <time>2013-01-22T20:04:47Z</time>
      </trkpt>
      <trkpt lat="59.4782364" lon="17.8828582">
        <ele>13.4</ele>
        <time>2013-01-22T20:04:48Z</time>
      </trkpt>
      <trkpt lat="59.4783194" lon="17.8831554">
        <ele>12.8</ele>
        <time>2013-01-22T20:04:51Z</time>
      </trkpt>
      <trkpt lat="59.4783377" lon="17.8832663">
        <ele>12.6</ele>
        <time>2013-01-22T20:04:52Z</time>
      </trkpt>
      <trkpt lat="59.4783422" lon="17.8836282">
        <ele>13.4</ele>
        <time>2013-01-22T20:04:55Z</time>
      </trkpt>
      <trkpt lat="59.4783446" lon="17.8838864">
        <ele>14.4</ele>
        <time>2013-01-22T20:04:57Z</time>
      </trkpt>
      <trkpt lat="59.4783357" lon="17.8840102">
        <ele>13.2</ele>
        <time>2013-01-22T20:04:58Z</time>
      </trkpt>
      <trkpt lat="59.4782986" lon="17.8844011">
        <ele>13.4</ele>
        <time>2013-01-22T20:05:01Z</time>
      </trkpt>
      <trkpt lat="59.4782394" lon="17.8847753">
        <ele>14.6</ele>
        <time>2013-01-22T20:05:04Z</time>
      </trkpt>
      <trkpt lat="59.4781079" lon="17.8850082">
        <ele>13.2</ele>
        <time>2013-01-22T20:05:07Z</time>
      </trkpt>
      <trkpt lat="59.4779551" lon="17.8850213">
        <ele>12.6</ele>
        <time>2013-01-22T20:05:10Z</time>
      </trkpt>
      <trkpt lat="59.4779132" lon="17.8850073">
        <ele>12.8</ele>
        <time>2013-01-22T20:05:11Z</time>
      </trkpt>
      <trkpt lat="59.4777272" lon="17.8849757">
        <ele>13.2</ele>
        <time>2013-01-22T20:05:16Z</time>
      </trkpt>
      <trkpt lat="59.4775211" lon="17.8851171">
        <ele>13.4</ele>
        <time>2013-01-22T20:05:21Z</time>
      </trkpt>
      <trkpt lat="59.4774163" lon="17.8852405">
        <ele>12.6</ele>
        <time>2013-01-22T20:05:24Z</time>
      </trkpt>
      <trkpt lat="59.4773496" lon="17.8853171">
        <ele>12.8</ele>
        <time>2013-01-22T20:05:26Z</time>
      </trkpt>
      <trkpt lat="59.4772772" lon="17.8853763">
        <ele>13.4</ele>
        <time>2013-01-22T20:05:28Z</time>
      </trkpt>
      <trkpt lat="59.4771444" lon="17.8854077">
        <ele>13.2</ele>
        <time>2013-01-22T20:05:31Z</time>
      </trkpt>
      <trkpt lat="59.4769663" lon="17.88543">
        <ele>11.8</ele>
        <time>2013-01-22T20:05:36Z</time>
      </trkpt>
      <trkpt lat="59.4769285" lon="17.8854415">
        <ele>11.8</ele>
        <time>2013-01-22T20:05:37Z</time>
      </trkpt>
      <trkpt lat="59.4767166" lon="17.8855443">
        <ele>10.4</ele>
        <time>2013-01-22T20:05:42Z</time>
      </trkpt>
      <trkpt lat="59.476589" lon="17.8857132">
        <ele>10</ele>
        <time>2013-01-22T20:05:46Z</time>
      </trkpt>
      <trkpt lat="59.4765689" lon="17.8857635">
        <ele>9.6</ele>
        <time>2013-01-22T20:05:47Z</time>
      </trkpt>
      <trkpt lat="59.476451" lon="17.886107">
        <ele>8</ele>
        <time>2013-01-22T20:05:53Z</time>
      </trkpt>
      <trkpt lat="59.4764037" lon="17.886234">
        <ele>7.2</ele>
        <time>2013-01-22T20:05:55Z</time>
      </trkpt>
      <trkpt lat="59.4763317" lon="17.8864189">
        <ele>6.4</ele>
        <time>2013-01-22T20:05:58Z</time>
      </trkpt>
      <trkpt lat="59.4762127" lon="17.8867432">
        <ele>6</ele>
        <time>2013-01-22T20:06:03Z</time>
      </trkpt>
      <trkpt lat="59.4761618" lon="17.8871318">
        <ele>4.2</ele>
        <time>2013-01-22T20:06:08Z</time>
      </trkpt>
      <trkpt lat="59.4761275" lon="17.8875062">
        <ele>3.8</ele>
        <time>2013-01-22T20:06:12Z</time>
      </trkpt>
      <trkpt lat="59.4761742" lon="17.8878957">
        <ele>4</ele>
        <time>2013-01-22T20:06:16Z</time>
      </trkpt>
      <trkpt lat="59.4761968" lon="17.8879728">
        <ele>4.2</ele>
        <time>2013-01-22T20:06:17Z</time>
      </trkpt>
      <trkpt lat="59.4762757" lon="17.8882061">
        <ele>5</ele>
        <time>2013-01-22T20:06:21Z</time>
      </trkpt>
      <trkpt lat="59.4763246" lon="17.8883138">
        <ele>4.8</ele>
        <time>2013-01-22T20:06:23Z</time>
      </trkpt>
      <trkpt lat="59.4764282" lon="17.8885201">
        <ele>5.4</ele>
        <time>2013-01-22T20:06:26Z</time>
      </trkpt>
      <trkpt lat="59.4765984" lon="17.8886599">
        <ele>5.4</ele>
        <time>2013-01-22T20:06:30Z</time>
      </trkpt>
      <trkpt lat="59.4766452" lon="17.8886855">
        <ele>5.4</ele>
        <time>2013-01-22T20:06:31Z</time>
      </trkpt>
      <trkpt lat="59.4767756" lon="17.8887613">
        <ele>5.6</ele>
        <time>2013-01-22T20:06:34Z</time>
      </trkpt>
      <trkpt lat="59.4768128" lon="17.8887767">
        <ele>5</ele>
        <time>2013-01-22T20:06:35Z</time>
      </trkpt>
      <trkpt lat="59.4769482" lon="17.8886862">
        <ele>3.2</ele>
        <time>2013-01-22T20:06:39Z</time>
      </trkpt>
      <trkpt lat="59.4769921" lon="17.8886436">
        <ele>3.4</ele>
        <time>2013-01-22T20:06:40Z</time>
      </trkpt>
      <trkpt lat="59.4771303" lon="17.8884977">
        <ele>4.4</ele>
        <time>2013-01-22T20:06:44Z</time>
      </trkpt>
      <trkpt lat="59.4773267" lon="17.8883132">
        <ele>6.4</ele>
        <time>2013-01-22T20:06:50Z</time>
      </trkpt>
      <trkpt lat="59.4774988" lon="17.888144">
        <ele>9.6</ele>
        <time>2013-01-22T20:06:55Z</time>
      </trkpt>
      <trkpt lat="59.4776718" lon="17.8880065">
        <ele>12</ele>
        <time>2013-01-22T20:07:00Z</time>
      </trkpt>
      <trkpt lat="59.4778515" lon="17.8878689">
        <ele>13</ele>
        <time>2013-01-22T20:07:05Z</time>
      </trkpt>
      <trkpt lat="59.4780245" lon="17.8876948">
        <ele>14</ele>
        <time>2013-01-22T20:07:10Z</time>
      </trkpt>
      <trkpt lat="59.4782017" lon="17.8874652">
        <ele>13.4</ele>
        <time>2013-01-22T20:07:15Z</time>
      </trkpt>
      <trkpt lat="59.4783928" lon="17.8874048">
        <ele>14.4</ele>
        <time>2013-01-22T20:07:21Z</time>
      </trkpt>
      <trkpt lat="59.4785768" lon="17.8874786">
        <ele>13.6</ele>
        <time>2013-01-22T20:07:26Z</time>
      </trkpt>
      <trkpt lat="59.4787229" lon="17.8877533">
        <ele>11.6</ele>
        <time>2013-01-22T20:07:30Z</time>
      </trkpt>
      <trkpt lat="59.478733" lon="17.8878222">
        <ele>11.2</ele>
        <time>2013-01-22T20:07:31Z</time>
      </trkpt>
      <trkpt lat="59.4786908" lon="17.8881071">
        <ele>9</ele>
        <time>2013-01-22T20:07:35Z</time>
      </trkpt>
      <trkpt lat="59.4786765" lon="17.8881807">
        <ele>8.6</ele>
        <time>2013-01-22T20:07:36Z</time>
      </trkpt>
      <trkpt lat="59.4785983" lon="17.8885873">
        <ele>8.8</ele>
        <time>2013-01-22T20:07:41Z</time>
      </trkpt>
      <trkpt lat="59.4785321" lon="17.8887996">
        <ele>7.6</ele>
        <time>2013-01-22T20:07:44Z</time>
      </trkpt>
      <trkpt lat="59.4784781" lon="17.8889068">
        <ele>7.2</ele>
        <time>2013-01-22T20:07:46Z</time>
      </trkpt>
      <trkpt lat="59.4783302" lon="17.8890925">
        <ele>6</ele>
        <time>2013-01-22T20:07:50Z</time>
      </trkpt>
      <trkpt lat="59.4782893" lon="17.8891434">
        <ele>5.6</ele>
        <time>2013-01-22T20:07:51Z</time>
      </trkpt>
      <trkpt lat="59.4780958" lon="17.8893196">
        <ele>4.2</ele>
        <time>2013-01-22T20:07:55Z</time>
      </trkpt>
      <trkpt lat="59.4778977" lon="17.8894829">
        <ele>3.2</ele>
        <time>2013-01-22T20:07:59Z</time>
      </trkpt>
      <trkpt lat="59.4778458" lon="17.8895236">
        <ele>2.8</ele>
        <time>2013-01-22T20:08:00Z</time>
      </trkpt>
      <trkpt lat="59.477722" lon="17.8895843">
        <ele>2.2</ele>
        <time>2013-01-22T20:08:02Z</time>
      </trkpt>
      <trkpt lat="59.4775483" lon="17.8896741">
        <ele>0.4</ele>
        <time>2013-01-22T20:08:05Z</time>
      </trkpt>
      <trkpt lat="59.4774328" lon="17.889733">
        <ele>0</ele>
        <time>2013-01-22T20:08:07Z</time>
      </trkpt>
      <trkpt lat="59.4773305" lon="17.8897935">
        <ele>0</ele>
        <time>2013-01-22T20:08:09Z</time>
      </trkpt>
      <trkpt lat="59.4772832" lon="17.8898207">
        <ele>0</ele>
        <time>2013-01-22T20:08:10Z</time>
      </trkpt>
      <trkpt lat="59.4771479" lon="17.8898788">
        <ele>0</ele>
        <time>2013-01-22T20:08:13Z</time>
      </trkpt>
      <trkpt lat="59.4770026" lon="17.889829">
        <ele>0</ele>
        <time>2013-01-22T20:08:16Z</time>
      </trkpt>
      <trkpt lat="59.4769553" lon="17.889817">
        <ele>0</ele>
        <time>2013-01-22T20:08:17Z</time>
      </trkpt>
      <trkpt lat="59.4767995" lon="17.889745">
        <ele>0</ele>
        <time>2013-01-22T20:08:21Z</time>
      </trkpt>
      <trkpt lat="59.4767646" lon="17.889728">
        <ele>0</ele>
        <time>2013-01-22T20:08:22Z</time>
      </trkpt>
      <trkpt lat="59.4766885" lon="17.8897">
        <ele>0</ele>
        <time>2013-01-22T20:08:24Z</time>
      </trkpt>
      <trkpt lat="59.476561" lon="17.889761">
        <ele>0</ele>
        <time>2013-01-22T20:08:27Z</time>
      </trkpt>
      <trkpt lat="59.4764409" lon="17.8898564">
        <ele>0</ele>
        <time>2013-01-22T20:08:30Z</time>
      </trkpt>
      <trkpt lat="59.4763633" lon="17.8898797">
        <ele>0</ele>
        <time>2013-01-22T20:08:32Z</time>
      </trkpt>
      <trkpt lat="59.476197" lon="17.8897435">
        <ele>0.8</ele>
        <time>2013-01-22T20:08:37Z</time>
      </trkpt>
      <trkpt lat="59.4760493" lon="17.8895014">
        <ele>3.4</ele>
        <time>2013-01-22T20:08:42Z</time>
      </trkpt>
      <trkpt lat="59.4758832" lon="17.8893164">
        <ele>6.2</ele>
        <time>2013-01-22T20:08:48Z</time>
      </trkpt>
      <trkpt lat="59.4756978" lon="17.8893942">
        <ele>7.2</ele>
        <time>2013-01-22T20:08:53Z</time>
      </trkpt>
      <trkpt lat="59.4756703" lon="17.889754">
        <ele>5.4</ele>
        <time>2013-01-22T20:08:59Z</time>
      </trkpt>
      <trkpt lat="59.4758205" lon="17.8899211">
        <ele>3.8</ele>
        <time>2013-01-22T20:09:03Z</time>
      </trkpt>
      <trkpt lat="59.4759567" lon="17.8901952">
        <ele>2.8</ele>
        <time>2013-01-22T20:09:07Z</time>
      </trkpt>
      <trkpt lat="59.4760334" lon="17.8906076">
        <ele>1.2</ele>
        <time>2013-01-22T20:09:11Z</time>
      </trkpt>
      <trkpt lat="59.4760913" lon="17.8910124">
        <ele>0.4</ele>
        <time>2013-01-22T20:09:15Z</time>
      </trkpt>
      <trkpt lat="59.4761198" lon="17.8912032">
        <ele>0.8</ele>
        <time>2013-01-22T20:09:17Z</time>
      </trkpt>
      <trkpt lat="59.4761543" lon="17.8913701">
        <ele>0.6</ele>
        <time>2013-01-22T20:09:19Z</time>
      </trkpt>
      <trkpt lat="59.4763259" lon="17.8915025">
        <ele>2.8</ele>
        <time>2013-01-22T20:09:24Z</time>
      </trkpt>
      <trkpt lat="59.4763984" lon="17.8911816">
        <ele>2.4</ele>
        <time>2013-01-22T20:09:29Z</time>
      </trkpt>
      <trkpt lat="59.4763441" lon="17.8909741">
        <ele>2.8</ele>
        <time>2013-01-22T20:09:32Z</time>
      </trkpt>
      <trkpt lat="59.4763046" lon="17.8908513">
        <ele>3.6</ele>
        <time>2013-01-22T20:09:34Z</time>
      </trkpt>
      <trkpt lat="59.4762769" lon="17.8904428">
        <ele>6.8</ele>
        <time>2013-01-22T20:09:40Z</time>
      </trkpt>
      <trkpt lat="59.4764175" lon="17.8901899">
        <ele>10</ele>
        <time>2013-01-22T20:09:46Z</time>
      </trkpt>
      <trkpt lat="59.47659" lon="17.8903271">
        <ele>10.2</ele>
        <time>2013-01-22T20:09:51Z</time>
      </trkpt>
      <trkpt lat="59.4767814" lon="17.8905089">
        <ele>9.4</ele>
        <time>2013-01-22T20:09:56Z</time>
      </trkpt>
      <trkpt lat="59.4768891" lon="17.8906146">
        <ele>9.8</ele>
        <time>2013-01-22T20:09:59Z</time>
      </trkpt>
      <trkpt lat="59.4769663" lon="17.8906687">
        <ele>9.2</ele>
        <time>2013-01-22T20:10:01Z</time>
      </trkpt>
      <trkpt lat="59.4771441" lon="17.8907857">
        <ele>7.4</ele>
        <time>2013-01-22T20:10:05Z</time>
      </trkpt>
      <trkpt lat="59.4772304" lon="17.8908309">
        <ele>6.8</ele>
        <time>2013-01-22T20:10:07Z</time>
      </trkpt>
      <trkpt lat="59.47732" lon="17.8908872">
        <ele>6.2</ele>
        <time>2013-01-22T20:10:09Z</time>
      </trkpt>
      <trkpt lat="59.4774945" lon="17.8909863">
        <ele>6.8</ele>
        <time>2013-01-22T20:10:13Z</time>
      </trkpt>
      <trkpt lat="59.4775847" lon="17.8910184">
        <ele>6.4</ele>
        <time>2013-01-22T20:10:15Z</time>
      </trkpt>
      <trkpt lat="59.4777204" lon="17.8910381">
        <ele>5.6</ele>
        <time>2013-01-22T20:10:18Z</time>
      </trkpt>
      <trkpt lat="59.4777711" lon="17.8910396">
        <ele>5.6</ele>
        <time>2013-01-22T20:10:19Z</time>
      </trkpt>
      <trkpt lat="59.4778427" lon="17.8910328">
        <ele>6</ele>
        <time>2013-01-22T20:10:21Z</time>
      </trkpt>
      <trkpt lat="59.4779002" lon="17.8910095">
        <ele>5.2</ele>
        <time>2013-01-22T20:10:23Z</time>
      </trkpt>
      <trkpt lat="59.4779335" lon="17.8909845">
        <ele>4.2</ele>
        <time>2013-01-22T20:10:24Z</time>
      </trkpt>
      <trkpt lat="59.47801" lon="17.8909168">
        <ele>3.6</ele>
        <time>2013-01-22T20:10:26Z</time>
      </trkpt>
      <trkpt lat="59.4781187" lon="17.8907598">
        <ele>4</ele>
        <time>2013-01-22T20:10:29Z</time>
      </trkpt>
      <trkpt lat="59.4782997" lon="17.8905305">
        <ele>5.4</ele>
        <time>2013-01-22T20:10:34Z</time>
      </trkpt>
      <trkpt lat="59.478413" lon="17.8904372">
        <ele>6.2</ele>
        <time>2013-01-22T20:10:37Z</time>
      </trkpt>
      <trkpt lat="59.4784872" lon="17.8903765">
        <ele>6.8</ele>
        <time>2013-01-22T20:10:39Z</time>
      </trkpt>
      <trkpt lat="59.4785615" lon="17.8903169">
        <ele>6.8</ele>
        <time>2013-01-22T20:10:41Z</time>
      </trkpt>
      <trkpt lat="59.4786375" lon="17.8902587">
        <ele>7.2</ele>
        <time>2013-01-22T20:10:43Z</time>
      </trkpt>
      <trkpt lat="59.4786663" lon="17.8902248">
        <ele>6.6</ele>
        <time>2013-01-22T20:10:44Z</time>
      </trkpt>
      <trkpt lat="59.4788258" lon="17.8900461">
        <ele>6.2</ele>
        <time>2013-01-22T20:10:49Z</time>
      </trkpt>
      <trkpt lat="59.4790026" lon="17.8899439">
        <ele>7.8</ele>
        <time>2013-01-22T20:10:55Z</time>
      </trkpt>
      <trkpt lat="59.4791953" lon="17.8897975">
        <ele>8.8</ele>
        <time>2013-01-22T20:11:01Z</time>
      </trkpt>
      <trkpt lat="59.4793526" lon="17.8896022">
        <ele>8.8</ele>
        <time>2013-01-22T20:11:05Z</time>
      </trkpt>
      <trkpt lat="59.4794936" lon="17.8894439">
        <ele>9.4</ele>
        <time>2013-01-22T20:11:09Z</time>
      </trkpt>
      <trkpt lat="59.4795276" lon="17.8894103">
        <ele>9.6</ele>
        <time>2013-01-22T20:11:10Z</time>
      </trkpt>
      <trkpt lat="59.4796382" lon="17.8893572">
        <ele>9.6</ele>
        <time>2013-01-22T20:11:13Z</time>
      </trkpt>
      <trkpt lat="59.4797267" lon="17.8893424">
        <ele>9.6</ele>
        <time>2013-01-22T20:11:15Z</time>
      </trkpt>
      <trkpt lat="59.4799462" lon="17.8893776">
        <ele>9</ele>
        <time>2013-01-22T20:11:20Z</time>
      </trkpt>
      <trkpt lat="59.4800363" lon="17.8894212">
        <ele>9</ele>
        <time>2013-01-22T20:11:22Z</time>
      </trkpt>
      <trkpt lat="59.4801298" lon="17.8894719">
        <ele>8.6</ele>
        <time>2013-01-22T20:11:24Z</time>
      </trkpt>
      <trkpt lat="59.4803259" lon="17.8895316">
        <ele>6.4</ele>
        <time>2013-01-22T20:11:28Z</time>
      </trkpt>
      <trkpt lat="59.4805157" lon="17.8894756">
        <ele>5.2</ele>
        <time>2013-01-22T20:11:32Z</time>
      </trkpt>
      <trkpt lat="59.4806066" lon="17.8894523">
        <ele>5.2</ele>
        <time>2013-01-22T20:11:34Z</time>
      </trkpt>
      <trkpt lat="59.4807327" lon="17.8894498">
        <ele>5.4</ele>
        <time>2013-01-22T20:11:37Z</time>
      </trkpt>
      <trkpt lat="59.4809167" lon="17.8894285">
        <ele>6.8</ele>
        <time>2013-01-22T20:11:41Z</time>
      </trkpt>
      <trkpt lat="59.4810058" lon="17.8894187">
        <ele>6.2</ele>
        <time>2013-01-22T20:11:43Z</time>
      </trkpt>
      <trkpt lat="59.4810791" lon="17.8893822">
        <ele>5.6</ele>
        <time>2013-01-22T20:11:45Z</time>
      </trkpt>
      <trkpt lat="59.4811177" lon="17.8893425">
        <ele>5.4</ele>
        <time>2013-01-22T20:11:46Z</time>
      </trkpt>
      <trkpt lat="59.4812683" lon="17.8891442">
        <ele>6.2</ele>
        <time>2013-01-22T20:11:50Z</time>
      </trkpt>
      <trkpt lat="59.4813089" lon="17.8891047">
        <ele>6</ele>
        <time>2013-01-22T20:11:51Z</time>
      </trkpt>
      <trkpt lat="59.4814186" lon="17.8890064">
        <ele>8.6</ele>
        <time>2013-01-22T20:11:54Z</time>
      </trkpt>
      <trkpt lat="59.4814564" lon="17.8889653">
        <ele>9.4</ele>
        <time>2013-01-22T20:11:56Z</time>
      </trkpt>
      <trkpt lat="59.4816572" lon="17.8888851">
        <ele>7.6</ele>
        <time>2013-01-22T20:12:01Z</time>
      </trkpt>
      <trkpt lat="59.4818349" lon="17.8889603">
        <ele>6.4</ele>
        <time>2013-01-22T20:12:05Z</time>
      </trkpt>
      <trkpt lat="59.4818853" lon="17.8889773">
        <ele>6.4</ele>
        <time>2013-01-22T20:12:06Z</time>
      </trkpt>
      <trkpt lat="59.482017" lon="17.8889647">
        <ele>5</ele>
        <time>2013-01-22T20:12:09Z</time>
      </trkpt>
      <trkpt lat="59.4821829" lon="17.8888231">
        <ele>4</ele>
        <time>2013-01-22T20:12:13Z</time>
      </trkpt>
      <trkpt lat="59.4823101" lon="17.8886209">
        <ele>3.6</ele>
        <time>2013-01-22T20:12:17Z</time>
      </trkpt>
      <trkpt lat="59.4823313" lon="17.888564">
        <ele>3.4</ele>
        <time>2013-01-22T20:12:18Z</time>
      </trkpt>
      <trkpt lat="59.4823706" lon="17.8884525">
        <ele>3.2</ele>
        <time>2013-01-22T20:12:20Z</time>
      </trkpt>
      <trkpt lat="59.4824228" lon="17.8883305">
        <ele>3.4</ele>
        <time>2013-01-22T20:12:22Z</time>
      </trkpt>
      <trkpt lat="59.4824411" lon="17.8882756">
        <ele>3.4</ele>
        <time>2013-01-22T20:12:23Z</time>
      </trkpt>
      <trkpt lat="59.4825497" lon="17.8879382">
        <ele>4.6</ele>
        <time>2013-01-22T20:12:29Z</time>
      </trkpt>
      <trkpt lat="59.4826497" lon="17.8876534">
        <ele>4.6</ele>
        <time>2013-01-22T20:12:33Z</time>
      </trkpt>
      <trkpt lat="59.4827896" lon="17.8873371">
        <ele>4.6</ele>
        <time>2013-01-22T20:12:38Z</time>
      </trkpt>
      <trkpt lat="59.4828494" lon="17.8872255">
        <ele>5</ele>
        <time>2013-01-22T20:12:40Z</time>
      </trkpt>
      <trkpt lat="59.4829134" lon="17.8870768">
        <ele>4.2</ele>
        <time>2013-01-22T20:12:43Z</time>
      </trkpt>
      <trkpt lat="59.4830626" lon="17.88682">
        <ele>5.4</ele>
        <time>2013-01-22T20:12:49Z</time>
      </trkpt>
      <trkpt lat="59.4832504" lon="17.8866695">
        <ele>6</ele>
        <time>2013-01-22T20:12:54Z</time>
      </trkpt>
      <trkpt lat="59.4834574" lon="17.8866624">
        <ele>4.4</ele>
        <time>2013-01-22T20:12:59Z</time>
      </trkpt>
      <trkpt lat="59.4834956" lon="17.8866392">
        <ele>4</ele>
        <time>2013-01-22T20:13:00Z</time>
      </trkpt>
      <trkpt lat="59.4835705" lon="17.886567">
        <ele>3.4</ele>
        <time>2013-01-22T20:13:02Z</time>
      </trkpt>
      <trkpt lat="59.483637" lon="17.8864713">
        <ele>3.4</ele>
        <time>2013-01-22T20:13:04Z</time>
      </trkpt>
      <trkpt lat="59.4837901" lon="17.8863249">
        <ele>2.8</ele>
        <time>2013-01-22T20:13:08Z</time>
      </trkpt>
      <trkpt lat="59.4838261" lon="17.8862957">
        <ele>2.8</ele>
        <time>2013-01-22T20:13:09Z</time>
      </trkpt>
      <trkpt lat="59.4839008" lon="17.8862476">
        <ele>3.2</ele>
        <time>2013-01-22T20:13:11Z</time>
      </trkpt>
      <trkpt lat="59.4840071" lon="17.8861464">
        <ele>3.4</ele>
        <time>2013-01-22T20:13:14Z</time>
      </trkpt>
      <trkpt lat="59.4841866" lon="17.8859952">
        <ele>3.6</ele>
        <time>2013-01-22T20:13:19Z</time>
      </trkpt>
      <trkpt lat="59.4843962" lon="17.8859542">
        <ele>4.2</ele>
        <time>2013-01-22T20:13:24Z</time>
      </trkpt>
      <trkpt lat="59.4845421" lon="17.8858652">
        <ele>4.6</ele>
        <time>2013-01-22T20:13:28Z</time>
      </trkpt>
      <trkpt lat="59.4845717" lon="17.885831">
        <ele>5.2</ele>
        <time>2013-01-22T20:13:29Z</time>
      </trkpt>
      <trkpt lat="59.4847058" lon="17.8855673">
        <ele>7.2</ele>
        <time>2013-01-22T20:13:36Z</time>
      </trkpt>
      <trkpt lat="59.4848456" lon="17.8853508">
        <ele>8.2</ele>
        <time>2013-01-22T20:13:42Z</time>
      </trkpt>
      <trkpt lat="59.4850328" lon="17.8852229">
        <ele>8</ele>
        <time>2013-01-22T20:13:47Z</time>
      </trkpt>
      <trkpt lat="59.4852099" lon="17.8852988">
        <ele>6.4</ele>
        <time>2013-01-22T20:13:51Z</time>
      </trkpt>
      <trkpt lat="59.4853409" lon="17.8856109">
        <ele>4.8</ele>
        <time>2013-01-22T20:13:55Z</time>
      </trkpt>
      <trkpt lat="59.4853714" lon="17.8856959">
        <ele>4</ele>
        <time>2013-01-22T20:13:56Z</time>
      </trkpt>
      <trkpt lat="59.4853894" lon="17.8857791">
        <ele>3.4</ele>
        <time>2013-01-22T20:13:57Z</time>
      </trkpt>
      <trkpt lat="59.4854364" lon="17.8859549">
        <ele>3.2</ele>
        <time>2013-01-22T20:13:59Z</time>
      </trkpt>
      <trkpt lat="59.4855765" lon="17.8862759">
        <ele>3.4</ele>
        <time>2013-01-22T20:14:03Z</time>
      </trkpt>
      <trkpt lat="59.4856189" lon="17.8863396">
        <ele>3.6</ele>
        <time>2013-01-22T20:14:04Z</time>
      </trkpt>
      <trkpt lat="59.4857621" lon="17.8864577">
        <ele>3.4</ele>
        <time>2013-01-22T20:14:07Z</time>
      </trkpt>
      <trkpt lat="59.4859572" lon="17.8864733">
        <ele>1.4</ele>
        <time>2013-01-22T20:14:11Z</time>
      </trkpt>
      <trkpt lat="59.4860061" lon="17.8864656">
        <ele>1</ele>
        <time>2013-01-22T20:14:12Z</time>
      </trkpt>
      <trkpt lat="59.4861695" lon="17.8864148">
        <ele>1.6</ele>
        <time>2013-01-22T20:14:16Z</time>
      </trkpt>
      <trkpt lat="59.486211" lon="17.8864045">
        <ele>2</ele>
        <time>2013-01-22T20:14:17Z</time>
      </trkpt>
      <trkpt lat="59.4862882" lon="17.8863754">
        <ele>3</ele>
        <time>2013-01-22T20:14:19Z</time>
      </trkpt>
      <trkpt lat="59.4863727" lon="17.886336">
        <ele>4</ele>
        <time>2013-01-22T20:14:21Z</time>
      </trkpt>
      <trkpt lat="59.4865028" lon="17.8862765">
        <ele>4</ele>
        <time>2013-01-22T20:14:25Z</time>
      </trkpt>
      <trkpt lat="59.4865747" lon="17.8862605">
        <ele>5</ele>
        <time>2013-01-22T20:14:27Z</time>
      </trkpt>
      <trkpt lat="59.4867561" lon="17.886209">
        <ele>6</ele>
        <time>2013-01-22T20:14:32Z</time>
      </trkpt>
      <trkpt lat="59.4869512" lon="17.8861571">
        <ele>5.6</ele>
        <time>2013-01-22T20:14:37Z</time>
      </trkpt>
      <trkpt lat="59.4871123" lon="17.8859644">
        <ele>5.4</ele>
        <time>2013-01-22T20:14:43Z</time>
      </trkpt>
      <trkpt lat="59.4870425" lon="17.8857143">
        <ele>6.8</ele>
        <time>2013-01-22T20:14:49Z</time>
      </trkpt>
      <trkpt lat="59.4870201" lon="17.8856817">
        <ele>7</ele>
        <time>2013-01-22T20:14:50Z</time>
      </trkpt>
      <trkpt lat="59.486973" lon="17.8856381">
        <ele>6.8</ele>
        <time>2013-01-22T20:14:52Z</time>
      </trkpt>
      <trkpt lat="59.4868349" lon="17.8856526">
        <ele>6.8</ele>
        <time>2013-01-22T20:14:56Z</time>
      </trkpt>
      <trkpt lat="59.4866576" lon="17.885601">
        <ele>5.8</ele>
        <time>2013-01-22T20:15:00Z</time>
      </trkpt>
      <trkpt lat="59.4864562" lon="17.8854679">
        <ele>6.2</ele>
        <time>2013-01-22T20:15:06Z</time>
      </trkpt>
      <trkpt lat="59.4863138" lon="17.8851968">
        <ele>7.4</ele>
        <time>2013-01-22T20:15:12Z</time>
      </trkpt>
      <trkpt lat="59.4862002" lon="17.8848571">
        <ele>10.2</ele>
        <time>2013-01-22T20:15:18Z</time>
      </trkpt>
      <trkpt lat="59.4861196" lon="17.8844775">
        <ele>11.2</ele>
        <time>2013-01-22T20:15:24Z</time>
      </trkpt>
      <trkpt lat="59.4860454" lon="17.8841201">
        <ele>12.4</ele>
        <time>2013-01-22T20:15:30Z</time>
      </trkpt>
      <trkpt lat="59.4859599" lon="17.8837478">
        <ele>14.4</ele>
        <time>2013-01-22T20:15:36Z</time>
      </trkpt>
      <trkpt lat="59.4858662" lon="17.8834056">
        <ele>15.8</ele>
        <time>2013-01-22T20:15:42Z</time>
      </trkpt>
      <trkpt lat="59.4857937" lon="17.8830403">
        <ele>16.2</ele>
        <time>2013-01-22T20:15:48Z</time>
      </trkpt>
      <trkpt lat="59.4857688" lon="17.8826592">
        <ele>15.4</ele>
        <time>2013-01-22T20:15:54Z</time>
      </trkpt>
      <trkpt lat="59.4858655" lon="17.8823042">
        <ele>14.8</ele>
        <time>2013-01-22T20:16:00Z</time>
      </trkpt>
      <trkpt lat="59.4860654" lon="17.8821285">
        <ele>12.8</ele>
        <time>2013-01-22T20:16:05Z</time>
      </trkpt>
      <trkpt lat="59.4862593" lon="17.8820304">
        <ele>11</ele>
        <time>2013-01-22T20:16:09Z</time>
      </trkpt>
      <trkpt lat="59.4864399" lon="17.882066">
        <ele>8.2</ele>
        <time>2013-01-22T20:16:13Z</time>
      </trkpt>
      <trkpt lat="59.4864759" lon="17.8820971">
        <ele>7.6</ele>
        <time>2013-01-22T20:16:14Z</time>
      </trkpt>
      <trkpt lat="59.4866462" lon="17.8822741">
        <ele>5.8</ele>
        <time>2013-01-22T20:16:18Z</time>
      </trkpt>
      <trkpt lat="59.486815" lon="17.8824991">
        <ele>6.4</ele>
        <time>2013-01-22T20:16:23Z</time>
      </trkpt>
      <trkpt lat="59.4868461" lon="17.8825494">
        <ele>7.4</ele>
        <time>2013-01-22T20:16:24Z</time>
      </trkpt>
      <trkpt lat="59.4869883" lon="17.8827504">
        <ele>8.4</ele>
        <time>2013-01-22T20:16:28Z</time>
      </trkpt>
      <trkpt lat="59.4871176" lon="17.8828923">
        <ele>8.4</ele>
        <time>2013-01-22T20:16:31Z</time>
      </trkpt>
      <trkpt lat="59.4871543" lon="17.8829379">
        <ele>8.6</ele>
        <time>2013-01-22T20:16:32Z</time>
      </trkpt>
      <trkpt lat="59.4872359" lon="17.8830369">
        <ele>10</ele>
        <time>2013-01-22T20:16:35Z</time>
      </trkpt>
      <trkpt lat="59.4872973" lon="17.8831819">
        <ele>11.4</ele>
        <time>2013-01-22T20:16:38Z</time>
      </trkpt>
      <trkpt lat="59.4873369" lon="17.8833699">
        <ele>11.6</ele>
        <time>2013-01-22T20:16:40Z</time>
      </trkpt>
      <trkpt lat="59.4874043" lon="17.8835574">
        <ele>11</ele>
        <time>2013-01-22T20:16:42Z</time>
      </trkpt>
      <trkpt lat="59.4876051" lon="17.883599">
        <ele>9.6</ele>
        <time>2013-01-22T20:16:46Z</time>
      </trkpt>
      <trkpt lat="59.4877072" lon="17.8835377">
        <ele>9.4</ele>
        <time>2013-01-22T20:16:48Z</time>
      </trkpt>
      <trkpt lat="59.4878059" lon="17.8834739">
        <ele>8.4</ele>
        <time>2013-01-22T20:16:50Z</time>
      </trkpt>
      <trkpt lat="59.4879988" lon="17.8833625">
        <ele>7.8</ele>
        <time>2013-01-22T20:16:54Z</time>
      </trkpt>
      <trkpt lat="59.4880439" lon="17.8833383">
        <ele>7.8</ele>
        <time>2013-01-22T20:16:55Z</time>
      </trkpt>
      <trkpt lat="59.488172" lon="17.8832376">
        <ele>8.2</ele>
        <time>2013-01-22T20:16:58Z</time>
      </trkpt>
      <trkpt lat="59.488252" lon="17.8831876">
        <ele>8</ele>
        <time>2013-01-22T20:17:00Z</time>
      </trkpt>
      <trkpt lat="59.4882889" lon="17.8831625">
        <ele>8</ele>
        <time>2013-01-22T20:17:01Z</time>
      </trkpt>
      <trkpt lat="59.4883593" lon="17.8830846">
        <ele>7.6</ele>
        <time>2013-01-22T20:17:03Z</time>
      </trkpt>
      <trkpt lat="59.4884661" lon="17.8830022">
        <ele>8.6</ele>
        <time>2013-01-22T20:17:06Z</time>
      </trkpt>
      <trkpt lat="59.4885297" lon="17.8829475">
        <ele>9.4</ele>
        <time>2013-01-22T20:17:08Z</time>
      </trkpt>
      <trkpt lat="59.4887012" lon="17.8827669">
        <ele>7</ele>
        <time>2013-01-22T20:17:13Z</time>
      </trkpt>
      <trkpt lat="59.4888296" lon="17.8824526">
        <ele>6.2</ele>
        <time>2013-01-22T20:17:18Z</time>
      </trkpt>
      <trkpt lat="59.4889282" lon="17.8821495">
        <ele>4.6</ele>
        <time>2013-01-22T20:17:23Z</time>
      </trkpt>
      <trkpt lat="59.4890613" lon="17.881919">
        <ele>3</ele>
        <time>2013-01-22T20:17:27Z</time>
      </trkpt>
      <trkpt lat="59.4892391" lon="17.8816961">
        <ele>1.8</ele>
        <time>2013-01-22T20:17:31Z</time>
      </trkpt>
      <trkpt lat="59.4892917" lon="17.8816518">
        <ele>1.8</ele>
        <time>2013-01-22T20:17:32Z</time>
      </trkpt>
      <trkpt lat="59.4894379" lon="17.8815158">
        <ele>1.4</ele>
        <time>2013-01-22T20:17:35Z</time>
      </trkpt>
      <trkpt lat="59.4895359" lon="17.8814557">
        <ele>1.4</ele>
        <time>2013-01-22T20:17:37Z</time>
      </trkpt>
      <trkpt lat="59.4896281" lon="17.8814399">
        <ele>1.6</ele>
        <time>2013-01-22T20:17:39Z</time>
      </trkpt>
      <trkpt lat="59.4898078" lon="17.8814356">
        <ele>0</ele>
        <time>2013-01-22T20:17:43Z</time>
      </trkpt>
      <trkpt lat="59.4899588" lon="17.8814042">
        <ele>0</ele>
        <time>2013-01-22T20:17:46Z</time>
      </trkpt>
      <trkpt lat="59.4900045" lon="17.8813958">
        <ele>0</ele>
        <time>2013-01-22T20:17:47Z</time>
      </trkpt>
      <trkpt lat="59.490204" lon="17.881401">
        <ele>0</ele>
        <time>2013-01-22T20:17:51Z</time>
      </trkpt>
      <trkpt lat="59.4904178" lon="17.8814133">
        <ele>0</ele>
        <time>2013-01-22T20:17:56Z</time>
      </trkpt>
      <trkpt lat="59.4905472" lon="17.8814341">
        <ele>0.2</ele>
        <time>2013-01-22T20:17:59Z</time>
      </trkpt>
      <trkpt lat="59.4906277" lon="17.8814562">
        <ele>0.6</ele>
        <time>2013-01-22T20:18:01Z</time>
      </trkpt>
      <trkpt lat="59.4908009" lon="17.8814584">
        <ele>0.8</ele>
        <time>2013-01-22T20:18:05Z</time>
      </trkpt>
      <trkpt lat="59.4908401" lon="17.8814627">
        <ele>0.6</ele>
        <time>2013-01-22T20:18:06Z</time>
      </trkpt>
      <trkpt lat="59.4909229" lon="17.8814705">
        <ele>0.8</ele>
        <time>2013-01-22T20:18:08Z</time>
      </trkpt>
      <trkpt lat="59.491036" lon="17.8814714">
        <ele>0.6</ele>
        <time>2013-01-22T20:18:11Z</time>
      </trkpt>
      <trkpt lat="59.4912369" lon="17.8815031">
        <ele>1.6</ele>
        <time>2013-01-22T20:18:16Z</time>
      </trkpt>
      <trkpt lat="59.4913301" lon="17.8815279">
        <ele>2.4</ele>
        <time>2013-01-22T20:18:18Z</time>
      </trkpt>
      <trkpt lat="59.4914276" lon="17.881538">
        <ele>3.6</ele>
        <time>2013-01-22T20:18:20Z</time>
      </trkpt>
      <trkpt lat="59.4914767" lon="17.8815486">
        <ele>4.2</ele>
        <time>2013-01-22T20:18:21Z</time>
      </trkpt>
      <trkpt lat="59.4916214" lon="17.8815859">
        <ele>6</ele>
        <time>2013-01-22T20:18:24Z</time>
      </trkpt>
      <trkpt lat="59.4916729" lon="17.8816002">
        <ele>6.4</ele>
        <time>2013-01-22T20:18:25Z</time>
      </trkpt>
      <trkpt lat="59.4918133" lon="17.8816719">
        <ele>7.6</ele>
        <time>2013-01-22T20:18:28Z</time>
      </trkpt>
      <trkpt lat="59.4919481" lon="17.8817372">
        <ele>9.2</ele>
        <time>2013-01-22T20:18:31Z</time>
      </trkpt>
      <trkpt lat="59.4919911" lon="17.8817649">
        <ele>9.4</ele>
        <time>2013-01-22T20:18:32Z</time>
      </trkpt>
      <trkpt lat="59.4921156" lon="17.8818268">
        <ele>10</ele>
        <time>2013-01-22T20:18:35Z</time>
      </trkpt>
      <trkpt lat="59.4922007" lon="17.8818603">
        <ele>10.2</ele>
        <time>2013-01-22T20:18:37Z</time>
      </trkpt>
      <trkpt lat="59.4922748" lon="17.8818822">
        <ele>10.4</ele>
        <time>2013-01-22T20:18:39Z</time>
      </trkpt>
      <trkpt lat="59.4923108" lon="17.8818994">
        <ele>10.8</ele>
        <time>2013-01-22T20:18:40Z</time>
      </trkpt>
      <trkpt lat="59.4923836" lon="17.8819403">
        <ele>11</ele>
        <time>2013-01-22T20:18:42Z</time>
      </trkpt>
      <trkpt lat="59.4924201" lon="17.881963">
        <ele>10.8</ele>
        <time>2013-01-22T20:18:43Z</time>
      </trkpt>
      <trkpt lat="59.4925516" lon="17.8820567">
        <ele>11</ele>
        <time>2013-01-22T20:18:46Z</time>
      </trkpt>
      <trkpt lat="59.4927367" lon="17.8821831">
        <ele>12</ele>
        <time>2013-01-22T20:18:50Z</time>
      </trkpt>
      <trkpt lat="59.4927852" lon="17.8822121">
        <ele>12.4</ele>
        <time>2013-01-22T20:18:51Z</time>
      </trkpt>
      <trkpt lat="59.4928284" lon="17.8822308">
        <ele>12.4</ele>
        <time>2013-01-22T20:18:52Z</time>
      </trkpt>
      <trkpt lat="59.4929443" lon="17.8822159">
        <ele>12.2</ele>
        <time>2013-01-22T20:18:55Z</time>
      </trkpt>
      <trkpt lat="59.4929768" lon="17.8821926">
        <ele>11.8</ele>
        <time>2013-01-22T20:18:56Z</time>
      </trkpt>
      <trkpt lat="59.4930028" lon="17.8821665">
        <ele>11.2</ele>
        <time>2013-01-22T20:18:57Z</time>
      </trkpt>
      <trkpt lat="59.4930511" lon="17.8819185">
        <ele>9</ele>
        <time>2013-01-22T20:19:02Z</time>
      </trkpt>
      <trkpt lat="59.4930257" lon="17.8815289">
        <ele>8.6</ele>
        <time>2013-01-22T20:19:08Z</time>
      </trkpt>
      <trkpt lat="59.493021" lon="17.8814673">
        <ele>8.6</ele>
        <time>2013-01-22T20:19:09Z</time>
      </trkpt>
      <trkpt lat="59.4930091" lon="17.8811467">
        <ele>9</ele>
        <time>2013-01-22T20:19:14Z</time>
      </trkpt>
      <trkpt lat="59.493037" lon="17.8808016">
        <ele>8.6</ele>
        <time>2013-01-22T20:19:19Z</time>
      </trkpt>
      <trkpt lat="59.493144" lon="17.8804912">
        <ele>8.6</ele>
        <time>2013-01-22T20:19:23Z</time>
      </trkpt>
      <trkpt lat="59.4932317" lon="17.8803125">
        <ele>8.8</ele>
        <time>2013-01-22T20:19:26Z</time>
      </trkpt>
      <trkpt lat="59.4932634" lon="17.8801856">
        <ele>8.2</ele>
        <time>2013-01-22T20:19:28Z</time>
      </trkpt>
      <trkpt lat="59.4932106" lon="17.8798491">
        <ele>6.8</ele>
        <time>2013-01-22T20:19:33Z</time>
      </trkpt>
      <trkpt lat="59.4930908" lon="17.8795442">
        <ele>6</ele>
        <time>2013-01-22T20:19:38Z</time>
      </trkpt>
      <trkpt lat="59.4929312" lon="17.8793515">
        <ele>5.8</ele>
        <time>2013-01-22T20:19:43Z</time>
      </trkpt>
      <trkpt lat="59.4927521" lon="17.8791947">
        <ele>6.8</ele>
        <time>2013-01-22T20:19:48Z</time>
      </trkpt>
      <trkpt lat="59.4925729" lon="17.8791501">
        <ele>7.8</ele>
        <time>2013-01-22T20:19:53Z</time>
      </trkpt>
      <trkpt lat="59.4923595" lon="17.8791429">
        <ele>8.4</ele>
        <time>2013-01-22T20:19:58Z</time>
      </trkpt>
      <trkpt lat="59.4921598" lon="17.8791502">
        <ele>8.6</ele>
        <time>2013-01-22T20:20:03Z</time>
      </trkpt>
      <trkpt lat="59.4919557" lon="17.8791419">
        <ele>8.8</ele>
        <time>2013-01-22T20:20:08Z</time>
      </trkpt>
      <trkpt lat="59.4919182" lon="17.8791472">
        <ele>9</ele>
        <time>2013-01-22T20:20:09Z</time>
      </trkpt>
      <trkpt lat="59.4917561" lon="17.8791548">
        <ele>8.2</ele>
        <time>2013-01-22T20:20:13Z</time>
      </trkpt>
      <trkpt lat="59.4915724" lon="17.8791724">
        <ele>7.6</ele>
        <time>2013-01-22T20:20:18Z</time>
      </trkpt>
      <trkpt lat="59.4913588" lon="17.879213">
        <ele>6.8</ele>
        <time>2013-01-22T20:20:24Z</time>
      </trkpt>
      <trkpt lat="59.4911606" lon="17.8791921">
        <ele>6</ele>
        <time>2013-01-22T20:20:29Z</time>
      </trkpt>
      <trkpt lat="59.4909529" lon="17.8791783">
        <ele>5.4</ele>
        <time>2013-01-22T20:20:34Z</time>
      </trkpt>
      <trkpt lat="59.4908584" lon="17.8791738">
        <ele>4.8</ele>
        <time>2013-01-22T20:20:36Z</time>
      </trkpt>
      <trkpt lat="59.490738" lon="17.8791707">
        <ele>4.2</ele>
        <time>2013-01-22T20:20:39Z</time>
      </trkpt>
      <trkpt lat="59.4905236" lon="17.8791574">
        <ele>2.2</ele>
        <time>2013-01-22T20:20:44Z</time>
      </trkpt>
      <trkpt lat="59.4903189" lon="17.8791383">
        <ele>0</ele>
        <time>2013-01-22T20:20:50Z</time>
      </trkpt>
      <trkpt lat="59.4901221" lon="17.8791315">
        <ele>0</ele>
        <time>2013-01-22T20:20:54Z</time>
      </trkpt>
      <trkpt lat="59.490081" lon="17.8791304">
        <ele>0</ele>
        <time>2013-01-22T20:20:55Z</time>
      </trkpt>
      <trkpt lat="59.4899265" lon="17.8791081">
        <ele>0</ele>
        <time>2013-01-22T20:21:00Z</time>
      </trkpt>
      <trkpt lat="59.4897391" lon="17.8790998">
        <ele>0</ele>
        <time>2013-01-22T20:21:05Z</time>
      </trkpt>
      <trkpt lat="59.4895274" lon="17.8791092">
        <ele>1</ele>
        <time>2013-01-22T20:21:10Z</time>
      </trkpt>
      <trkpt lat="59.4893239" lon="17.8791191">
        <ele>1.6</ele>
        <time>2013-01-22T20:21:16Z</time>
      </trkpt>
      <trkpt lat="59.4891383" lon="17.879119">
        <ele>2.6</ele>
        <time>2013-01-22T20:21:22Z</time>
      </trkpt>
      <trkpt lat="59.4889385" lon="17.8791247">
        <ele>2.4</ele>
        <time>2013-01-22T20:21:26Z</time>
      </trkpt>
      <trkpt lat="59.4887423" lon="17.8791116">
        <ele>2</ele>
        <time>2013-01-22T20:21:31Z</time>
      </trkpt>
      <trkpt lat="59.4885443" lon="17.8791129">
        <ele>0.8</ele>
        <time>2013-01-22T20:21:36Z</time>
      </trkpt>
      <trkpt lat="59.4885008" lon="17.8791139">
        <ele>1</ele>
        <time>2013-01-22T20:21:38Z</time>
      </trkpt>
      <trkpt lat="59.4883842" lon="17.8791322">
        <ele>0.8</ele>
        <time>2013-01-22T20:21:40Z</time>
      </trkpt>
      <trkpt lat="59.4883558" lon="17.87916">
        <ele>0.6</ele>
        <time>2013-01-22T20:21:41Z</time>
      </trkpt>
      <trkpt lat="59.4882597" lon="17.8792797">
        <ele>0</ele>
        <time>2013-01-22T20:21:44Z</time>
      </trkpt>
      <trkpt lat="59.4881956" lon="17.8793801">
        <ele>0</ele>
        <time>2013-01-22T20:21:46Z</time>
      </trkpt>
      <trkpt lat="59.488062" lon="17.8796873">
        <ele>0</ele>
        <time>2013-01-22T20:21:51Z</time>
      </trkpt>
      <trkpt lat="59.4879667" lon="17.8799822">
        <ele>1.8</ele>
        <time>2013-01-22T20:21:55Z</time>
      </trkpt>
      <trkpt lat="59.4878867" lon="17.8803171">
        <ele>2.6</ele>
        <time>2013-01-22T20:21:59Z</time>
      </trkpt>
      <trkpt lat="59.487817" lon="17.8806406">
        <ele>4.8</ele>
        <time>2013-01-22T20:22:05Z</time>
      </trkpt>
      <trkpt lat="59.4878075" lon="17.8807027">
        <ele>5.4</ele>
        <time>2013-01-22T20:22:06Z</time>
      </trkpt>
      <trkpt lat="59.4877658" lon="17.8809073">
        <ele>6.8</ele>
        <time>2013-01-22T20:22:09Z</time>
      </trkpt>
      <trkpt lat="59.4877391" lon="17.8810664">
        <ele>7.8</ele>
        <time>2013-01-22T20:22:11Z</time>
      </trkpt>
      <trkpt lat="59.4876887" lon="17.8813004">
        <ele>8.6</ele>
        <time>2013-01-22T20:22:13Z</time>
      </trkpt>
      <trkpt lat="59.4876226" lon="17.8813842">
        <ele>8.2</ele>
        <time>2013-01-22T20:22:16Z</time>
      </trkpt>
      <trkpt lat="59.4874763" lon="17.8814948">
        <ele>6.2</ele>
        <time>2013-01-22T20:22:19Z</time>
      </trkpt>
      <trkpt lat="59.4874321" lon="17.8815014">
        <ele>5.4</ele>
        <time>2013-01-22T20:22:20Z</time>
      </trkpt>
      <trkpt lat="59.4872809" lon="17.8814828">
        <ele>3.4</ele>
        <time>2013-01-22T20:22:24Z</time>
      </trkpt>
      <trkpt lat="59.4872309" lon="17.8814634">
        <ele>2.8</ele>
        <time>2013-01-22T20:22:25Z</time>
      </trkpt>
      <trkpt lat="59.4871519" lon="17.8814145">
        <ele>2.4</ele>
        <time>2013-01-22T20:22:26Z</time>
      </trkpt>
      <trkpt lat="59.4870903" lon="17.8813693">
        <ele>2.4</ele>
        <time>2013-01-22T20:22:29Z</time>
      </trkpt>
      <trkpt lat="59.4870177" lon="17.8813149">
        <ele>2.2</ele>
        <time>2013-01-22T20:22:30Z</time>
      </trkpt>
      <trkpt lat="59.4868281" lon="17.8811388">
        <ele>3.2</ele>
        <time>2013-01-22T20:22:36Z</time>
      </trkpt>
      <trkpt lat="59.486619" lon="17.8810848">
        <ele>2.8</ele>
        <time>2013-01-22T20:22:41Z</time>
      </trkpt>
      <trkpt lat="59.4865748" lon="17.881083">
        <ele>3</ele>
        <time>2013-01-22T20:22:42Z</time>
      </trkpt>
      <trkpt lat="59.4864376" lon="17.8810942">
        <ele>3.6</ele>
        <time>2013-01-22T20:22:46Z</time>
      </trkpt>
      <trkpt lat="59.486307" lon="17.8810663">
        <ele>4.4</ele>
        <time>2013-01-22T20:22:49Z</time>
      </trkpt>
      <trkpt lat="59.4862267" lon="17.8810664">
        <ele>4.4</ele>
        <time>2013-01-22T20:22:50Z</time>
      </trkpt>
      <trkpt lat="59.4860136" lon="17.8810352">
        <ele>4.8</ele>
        <time>2013-01-22T20:22:56Z</time>
      </trkpt>
      <trkpt lat="59.4858418" lon="17.8811678">
        <ele>4.8</ele>
        <time>2013-01-22T20:23:02Z</time>
      </trkpt>
      <trkpt lat="59.4857403" lon="17.8815231">
        <ele>6</ele>
        <time>2013-01-22T20:23:08Z</time>
      </trkpt>
      <trkpt lat="59.4857269" lon="17.8818737">
        <ele>5.6</ele>
        <time>2013-01-22T20:23:12Z</time>
      </trkpt>
      <trkpt lat="59.4857515" lon="17.8822836">
        <ele>4.4</ele>
        <time>2013-01-22T20:23:17Z</time>
      </trkpt>
      <trkpt lat="59.4857351" lon="17.8826155">
        <ele>6</ele>
        <time>2013-01-22T20:23:20Z</time>
      </trkpt>
      <trkpt lat="59.4857325" lon="17.8826963">
        <ele>5.8</ele>
        <time>2013-01-22T20:23:22Z</time>
      </trkpt>
      <trkpt lat="59.485732" lon="17.8828736">
        <ele>6</ele>
        <time>2013-01-22T20:23:24Z</time>
      </trkpt>
      <trkpt lat="59.4857492" lon="17.8830418">
        <ele>5.8</ele>
        <time>2013-01-22T20:23:26Z</time>
      </trkpt>
      <trkpt lat="59.4857771" lon="17.883219">
        <ele>6.2</ele>
        <time>2013-01-22T20:23:28Z</time>
      </trkpt>
      <trkpt lat="59.4858082" lon="17.8833824">
        <ele>6</ele>
        <time>2013-01-22T20:23:30Z</time>
      </trkpt>
      <trkpt lat="59.4858465" lon="17.8836615">
        <ele>5.4</ele>
        <time>2013-01-22T20:23:32Z</time>
      </trkpt>
      <trkpt lat="59.4858601" lon="17.8837501">
        <ele>5.2</ele>
        <time>2013-01-22T20:23:34Z</time>
      </trkpt>
      <trkpt lat="59.4858542" lon="17.8841239">
        <ele>6.8</ele>
        <time>2013-01-22T20:23:38Z</time>
      </trkpt>
      <trkpt lat="59.4857225" lon="17.8843691">
        <ele>5</ele>
        <time>2013-01-22T20:23:42Z</time>
      </trkpt>
      <trkpt lat="59.4856805" lon="17.8844135">
        <ele>4.4</ele>
        <time>2013-01-22T20:23:43Z</time>
      </trkpt>
      <trkpt lat="59.4855446" lon="17.8845007">
        <ele>3.4</ele>
        <time>2013-01-22T20:23:46Z</time>
      </trkpt>
      <trkpt lat="59.4854535" lon="17.8845419">
        <ele>2.4</ele>
        <time>2013-01-22T20:23:48Z</time>
      </trkpt>
      <trkpt lat="59.4853446" lon="17.8845768">
        <ele>2</ele>
        <time>2013-01-22T20:23:50Z</time>
      </trkpt>
      <trkpt lat="59.4851242" lon="17.8846199">
        <ele>1.6</ele>
        <time>2013-01-22T20:23:54Z</time>
      </trkpt>
      <trkpt lat="59.4850066" lon="17.8846354">
        <ele>0.6</ele>
        <time>2013-01-22T20:23:56Z</time>
      </trkpt>
      <trkpt lat="59.4848939" lon="17.8846338">
        <ele>0.4</ele>
        <time>2013-01-22T20:23:58Z</time>
      </trkpt>
      <trkpt lat="59.484792" lon="17.884636">
        <ele>0</ele>
        <time>2013-01-22T20:24:00Z</time>
      </trkpt>
      <trkpt lat="59.4846946" lon="17.8846607">
        <ele>0</ele>
        <time>2013-01-22T20:24:02Z</time>
      </trkpt>
      <trkpt lat="59.4845464" lon="17.8846996">
        <ele>0</ele>
        <time>2013-01-22T20:24:06Z</time>
      </trkpt>
      <trkpt lat="59.4844794" lon="17.8847398">
        <ele>0</ele>
        <time>2013-01-22T20:24:08Z</time>
      </trkpt>
      <trkpt lat="59.4843365" lon="17.8848009">
        <ele>1.2</ele>
        <time>2013-01-22T20:24:11Z</time>
      </trkpt>
      <trkpt lat="59.4842866" lon="17.8848092">
        <ele>2</ele>
        <time>2013-01-22T20:24:12Z</time>
      </trkpt>
      <trkpt lat="59.4842137" lon="17.8847938">
        <ele>1</ele>
        <time>2013-01-22T20:24:14Z</time>
      </trkpt>
      <trkpt lat="59.484091" lon="17.8847968">
        <ele>0</ele>
        <time>2013-01-22T20:24:17Z</time>
      </trkpt>
      <trkpt lat="59.4840029" lon="17.8848276">
        <ele>0</ele>
        <time>2013-01-22T20:24:19Z</time>
      </trkpt>
      <trkpt lat="59.4839215" lon="17.8849154">
        <ele>0</ele>
        <time>2013-01-22T20:24:21Z</time>
      </trkpt>
      <trkpt lat="59.4838393" lon="17.8850337">
        <ele>0</ele>
        <time>2013-01-22T20:24:23Z</time>
      </trkpt>
      <trkpt lat="59.4837596" lon="17.8851855">
        <ele>0</ele>
        <time>2013-01-22T20:24:25Z</time>
      </trkpt>
      <trkpt lat="59.4836095" lon="17.8854387">
        <ele>1.4</ele>
        <time>2013-01-22T20:24:28Z</time>
      </trkpt>
      <trkpt lat="59.4834465" lon="17.8857703">
        <ele>3</ele>
        <time>2013-01-22T20:24:32Z</time>
      </trkpt>
      <trkpt lat="59.4833331" lon="17.8860887">
        <ele>4</ele>
        <time>2013-01-22T20:24:36Z</time>
      </trkpt>
      <trkpt lat="59.4832112" lon="17.8863877">
        <ele>4.2</ele>
        <time>2013-01-22T20:24:40Z</time>
      </trkpt>
      <trkpt lat="59.4830661" lon="17.8864515">
        <ele>2.8</ele>
        <time>2013-01-22T20:24:43Z</time>
      </trkpt>
      <trkpt lat="59.4830204" lon="17.8864439">
        <ele>1.6</ele>
        <time>2013-01-22T20:24:44Z</time>
      </trkpt>
      <trkpt lat="59.4828771" lon="17.8862562">
        <ele>0</ele>
        <time>2013-01-22T20:24:48Z</time>
      </trkpt>
      <trkpt lat="59.4828493" lon="17.8861844">
        <ele>0</ele>
        <time>2013-01-22T20:24:49Z</time>
      </trkpt>
      <trkpt lat="59.4827983" lon="17.8859715">
        <ele>0</ele>
        <time>2013-01-22T20:24:52Z</time>
      </trkpt>
      <trkpt lat="59.4827873" lon="17.8858963">
        <ele>0</ele>
        <time>2013-01-22T20:24:53Z</time>
      </trkpt>
      <trkpt lat="59.4827788" lon="17.8858137">
        <ele>0</ele>
        <time>2013-01-22T20:24:54Z</time>
      </trkpt>
      <trkpt lat="59.4827504" lon="17.8856036">
        <ele>0</ele>
        <time>2013-01-22T20:24:57Z</time>
      </trkpt>
      <trkpt lat="59.4827426" lon="17.885459">
        <ele>0.2</ele>
        <time>2013-01-22T20:24:59Z</time>
      </trkpt>
      <trkpt lat="59.4827202" lon="17.8852187">
        <ele>1.8</ele>
        <time>2013-01-22T20:25:03Z</time>
      </trkpt>
      <trkpt lat="59.4827245" lon="17.8850875">
        <ele>2.4</ele>
        <time>2013-01-22T20:25:05Z</time>
      </trkpt>
      <trkpt lat="59.4827429" lon="17.8847184">
        <ele>3.8</ele>
        <time>2013-01-22T20:25:10Z</time>
      </trkpt>
      <trkpt lat="59.4827214" lon="17.8843514">
        <ele>5</ele>
        <time>2013-01-22T20:25:16Z</time>
      </trkpt>
      <trkpt lat="59.4827104" lon="17.8840827">
        <ele>5.6</ele>
        <time>2013-01-22T20:25:20Z</time>
      </trkpt>
      <trkpt lat="59.4827142" lon="17.8839817">
        <ele>5.8</ele>
        <time>2013-01-22T20:25:23Z</time>
      </trkpt>
      <trkpt lat="59.4827564" lon="17.8835958">
        <ele>8.6</ele>
        <time>2013-01-22T20:25:31Z</time>
      </trkpt>
      <trkpt lat="59.4827818" lon="17.8832019">
        <ele>10</ele>
        <time>2013-01-22T20:25:37Z</time>
      </trkpt>
      <trkpt lat="59.4827871" lon="17.8828279">
        <ele>10.2</ele>
        <time>2013-01-22T20:25:44Z</time>
      </trkpt>
      <trkpt lat="59.482856" lon="17.8824876">
        <ele>11</ele>
        <time>2013-01-22T20:25:52Z</time>
      </trkpt>
      <trkpt lat="59.482912" lon="17.8821137">
        <ele>11.6</ele>
        <time>2013-01-22T20:25:59Z</time>
      </trkpt>
      <trkpt lat="59.4829498" lon="17.8817005">
        <ele>13</ele>
        <time>2013-01-22T20:26:06Z</time>
      </trkpt>
      <trkpt lat="59.4830076" lon="17.8813713">
        <ele>13</ele>
        <time>2013-01-22T20:26:10Z</time>
      </trkpt>
      <trkpt lat="59.4830912" lon="17.8810001">
        <ele>13.6</ele>
        <time>2013-01-22T20:26:16Z</time>
      </trkpt>
      <trkpt lat="59.4831416" lon="17.8806118">
        <ele>15.2</ele>
        <time>2013-01-22T20:26:22Z</time>
      </trkpt>
      <trkpt lat="59.4832067" lon="17.8802198">
        <ele>15.6</ele>
        <time>2013-01-22T20:26:28Z</time>
      </trkpt>
      <trkpt lat="59.4832528" lon="17.8798338">
        <ele>17.6</ele>
        <time>2013-01-22T20:26:35Z</time>
      </trkpt>
      <trkpt lat="59.4832518" lon="17.8794888">
        <ele>18</ele>
        <time>2013-01-22T20:26:40Z</time>
      </trkpt>
      <trkpt lat="59.483231" lon="17.8790743">
        <ele>17.2</ele>
        <time>2013-01-22T20:26:45Z</time>
      </trkpt>
      <trkpt lat="59.4832899" lon="17.8787263">
        <ele>17.4</ele>
        <time>2013-01-22T20:26:50Z</time>
      </trkpt>
      <trkpt lat="59.4834293" lon="17.8784172">
        <ele>16</ele>
        <time>2013-01-22T20:26:55Z</time>
      </trkpt>
      <trkpt lat="59.4835921" lon="17.8781417">
        <ele>16.4</ele>
        <time>2013-01-22T20:27:00Z</time>
      </trkpt>
      <trkpt lat="59.4836963" lon="17.8778934">
        <ele>15.8</ele>
        <time>2013-01-22T20:27:04Z</time>
      </trkpt>
      <trkpt lat="59.4837226" lon="17.8778294">
        <ele>15.4</ele>
        <time>2013-01-22T20:27:05Z</time>
      </trkpt>
      <trkpt lat="59.4837774" lon="17.8774631">
        <ele>14.8</ele>
        <time>2013-01-22T20:27:10Z</time>
      </trkpt>
      <trkpt lat="59.4836661" lon="17.8773558">
        <ele>15.2</ele>
        <time>2013-01-22T20:27:14Z</time>
      </trkpt>
      <trkpt lat="59.4836071" lon="17.8773666">
        <ele>15.2</ele>
        <time>2013-01-22T20:27:16Z</time>
      </trkpt>
      <trkpt lat="59.4834241" lon="17.8774307">
        <ele>15.6</ele>
        <time>2013-01-22T20:27:22Z</time>
      </trkpt>
      <trkpt lat="59.4832127" lon="17.8774558">
        <ele>15.2</ele>
        <time>2013-01-22T20:27:28Z</time>
      </trkpt>
      <trkpt lat="59.4830208" lon="17.8775231">
        <ele>15</ele>
        <time>2013-01-22T20:27:34Z</time>
      </trkpt>
      <trkpt lat="59.4828617" lon="17.8776729">
        <ele>15.6</ele>
        <time>2013-01-22T20:27:39Z</time>
      </trkpt>
      <trkpt lat="59.4827846" lon="17.8780178">
        <ele>16.6</ele>
        <time>2013-01-22T20:27:46Z</time>
      </trkpt>
      <trkpt lat="59.4828545" lon="17.8784089">
        <ele>17.4</ele>
        <time>2013-01-22T20:27:53Z</time>
      </trkpt>
      <trkpt lat="59.4829252" lon="17.8787461">
        <ele>17.4</ele>
        <time>2013-01-22T20:27:59Z</time>
      </trkpt>
      <trkpt lat="59.4829906" lon="17.8791168">
        <ele>19</ele>
        <time>2013-01-22T20:28:06Z</time>
      </trkpt>
      <trkpt lat="59.4830201" lon="17.8795236">
        <ele>21</ele>
        <time>2013-01-22T20:28:12Z</time>
      </trkpt>
      <trkpt lat="59.4829954" lon="17.8799215">
        <ele>21.8</ele>
        <time>2013-01-22T20:28:18Z</time>
      </trkpt>
      <trkpt lat="59.4829518" lon="17.8803245">
        <ele>20.8</ele>
        <time>2013-01-22T20:28:24Z</time>
      </trkpt>
      <trkpt lat="59.4828928" lon="17.8807022">
        <ele>20</ele>
        <time>2013-01-22T20:28:29Z</time>
      </trkpt>
      <trkpt lat="59.4828669" lon="17.881057">
        <ele>20</ele>
        <time>2013-01-22T20:28:33Z</time>
      </trkpt>
      <trkpt lat="59.482856" lon="17.8813263">
        <ele>20.4</ele>
        <time>2013-01-22T20:28:36Z</time>
      </trkpt>
      <trkpt lat="59.4828499" lon="17.8814156">
        <ele>20.8</ele>
        <time>2013-01-22T20:28:37Z</time>
      </trkpt>
      <trkpt lat="59.4828618" lon="17.8817966">
        <ele>21.4</ele>
        <time>2013-01-22T20:28:42Z</time>
      </trkpt>
      <trkpt lat="59.4828576" lon="17.882197">
        <ele>20.6</ele>
        <time>2013-01-22T20:28:48Z</time>
      </trkpt>
      <trkpt lat="59.482856" lon="17.8825462">
        <ele>20.6</ele>
        <time>2013-01-22T20:28:52Z</time>
      </trkpt>
      <trkpt lat="59.4828126" lon="17.8829342">
        <ele>19.8</ele>
        <time>2013-01-22T20:28:56Z</time>
      </trkpt>
      <trkpt lat="59.4827435" lon="17.8832881">
        <ele>20.4</ele>
        <time>2013-01-22T20:28:59Z</time>
      </trkpt>
      <trkpt lat="59.4826768" lon="17.8836595">
        <ele>20.4</ele>
        <time>2013-01-22T20:29:02Z</time>
      </trkpt>
      <trkpt lat="59.4826254" lon="17.8839086">
        <ele>20.2</ele>
        <time>2013-01-22T20:29:04Z</time>
      </trkpt>
      <trkpt lat="59.4825852" lon="17.8840273">
        <ele>19.2</ele>
        <time>2013-01-22T20:29:05Z</time>
      </trkpt>
      <trkpt lat="59.482411" lon="17.8843531">
        <ele>16.6</ele>
        <time>2013-01-22T20:29:08Z</time>
      </trkpt>
      <trkpt lat="59.4823433" lon="17.8844519">
        <ele>15.8</ele>
        <time>2013-01-22T20:29:09Z</time>
      </trkpt>
      <trkpt lat="59.482219" lon="17.8846508">
        <ele>14.4</ele>
        <time>2013-01-22T20:29:11Z</time>
      </trkpt>
      <trkpt lat="59.4821014" lon="17.8850206">
        <ele>14</ele>
        <time>2013-01-22T20:29:14Z</time>
      </trkpt>
      <trkpt lat="59.4820562" lon="17.8852783">
        <ele>14</ele>
        <time>2013-01-22T20:29:16Z</time>
      </trkpt>
      <trkpt lat="59.4820417" lon="17.8854005">
        <ele>14</ele>
        <time>2013-01-22T20:29:17Z</time>
      </trkpt>
      <trkpt lat="59.4820245" lon="17.8856153">
        <ele>14.8</ele>
        <time>2013-01-22T20:29:19Z</time>
      </trkpt>
      <trkpt lat="59.4820141" lon="17.8858445">
        <ele>13.6</ele>
        <time>2013-01-22T20:29:22Z</time>
      </trkpt>
      <trkpt lat="59.4820009" lon="17.8859921">
        <ele>13.4</ele>
        <time>2013-01-22T20:29:24Z</time>
      </trkpt>
      <trkpt lat="59.481922" lon="17.886218">
        <ele>12.6</ele>
        <time>2013-01-22T20:29:27Z</time>
      </trkpt>
      <trkpt lat="59.4818811" lon="17.886277">
        <ele>11.8</ele>
        <time>2013-01-22T20:29:28Z</time>
      </trkpt>
      <trkpt lat="59.4817599" lon="17.8864428">
        <ele>8.4</ele>
        <time>2013-01-22T20:29:31Z</time>
      </trkpt>
      <trkpt lat="59.4815798" lon="17.886651">
        <ele>5.6</ele>
        <time>2013-01-22T20:29:36Z</time>
      </trkpt>
      <trkpt lat="59.481437" lon="17.8867529">
        <ele>4</ele>
        <time>2013-01-22T20:29:40Z</time>
      </trkpt>
      <trkpt lat="59.481403" lon="17.8867738">
        <ele>3.6</ele>
        <time>2013-01-22T20:29:41Z</time>
      </trkpt>
      <trkpt lat="59.4812326" lon="17.8869016">
        <ele>2.8</ele>
        <time>2013-01-22T20:29:47Z</time>
      </trkpt>
      <trkpt lat="59.4810625" lon="17.8870062">
        <ele>2.4</ele>
        <time>2013-01-22T20:29:52Z</time>
      </trkpt>
      <trkpt lat="59.4808889" lon="17.887018">
        <ele>3</ele>
        <time>2013-01-22T20:29:57Z</time>
      </trkpt>
      <trkpt lat="59.4808648" lon="17.8869939">
        <ele>3.4</ele>
        <time>2013-01-22T20:29:58Z</time>
      </trkpt>
      <trkpt lat="59.4808317" lon="17.8869401">
        <ele>3.6</ele>
        <time>2013-01-22T20:30:00Z</time>
      </trkpt>
      <trkpt lat="59.4807631" lon="17.8867037">
        <ele>3.4</ele>
        <time>2013-01-22T20:30:04Z</time>
      </trkpt>
      <trkpt lat="59.4807276" lon="17.8864316">
        <ele>3.2</ele>
        <time>2013-01-22T20:30:08Z</time>
      </trkpt>
      <trkpt lat="59.4807166" lon="17.8862889">
        <ele>3</ele>
        <time>2013-01-22T20:30:10Z</time>
      </trkpt>
      <trkpt lat="59.480699" lon="17.885918">
        <ele>3.4</ele>
        <time>2013-01-22T20:30:15Z</time>
      </trkpt>
      <trkpt lat="59.4807012" lon="17.8855508">
        <ele>3</ele>
        <time>2013-01-22T20:30:20Z</time>
      </trkpt>
      <trkpt lat="59.4807436" lon="17.8851253">
        <ele>4.4</ele>
        <time>2013-01-22T20:30:26Z</time>
      </trkpt>
      <trkpt lat="59.4807049" lon="17.8847302">
        <ele>6.8</ele>
        <time>2013-01-22T20:30:32Z</time>
      </trkpt>
      <trkpt lat="59.4805923" lon="17.8844089">
        <ele>7.6</ele>
        <time>2013-01-22T20:30:38Z</time>
      </trkpt>
      <trkpt lat="59.480465" lon="17.8840998">
        <ele>11</ele>
        <time>2013-01-22T20:30:45Z</time>
      </trkpt>
      <trkpt lat="59.4803193" lon="17.8838428">
        <ele>14.2</ele>
        <time>2013-01-22T20:30:51Z</time>
      </trkpt>
      <trkpt lat="59.4801666" lon="17.8835921">
        <ele>15.6</ele>
        <time>2013-01-22T20:30:57Z</time>
      </trkpt>
      <trkpt lat="59.479993" lon="17.8834413">
        <ele>17.4</ele>
        <time>2013-01-22T20:31:04Z</time>
      </trkpt>
      <trkpt lat="59.4797915" lon="17.8834404">
        <ele>19</ele>
        <time>2013-01-22T20:31:10Z</time>
      </trkpt>
      <trkpt lat="59.4796092" lon="17.8834082">
        <ele>19.8</ele>
        <time>2013-01-22T20:31:15Z</time>
      </trkpt>
      <trkpt lat="59.4794326" lon="17.8833907">
        <ele>20.2</ele>
        <time>2013-01-22T20:31:20Z</time>
      </trkpt>
      <trkpt lat="59.4792346" lon="17.8833605">
        <ele>19</ele>
        <time>2013-01-22T20:31:26Z</time>
      </trkpt>
      <trkpt lat="59.4790383" lon="17.8833586">
        <ele>19.2</ele>
        <time>2013-01-22T20:31:33Z</time>
      </trkpt>
      <trkpt lat="59.4788446" lon="17.8833174">
        <ele>17.4</ele>
        <time>2013-01-22T20:31:39Z</time>
      </trkpt>
      <trkpt lat="59.478698" lon="17.8832941">
        <ele>16.4</ele>
        <time>2013-01-22T20:31:44Z</time>
      </trkpt>
      <trkpt lat="59.4786415" lon="17.8832658">
        <ele>15.8</ele>
        <time>2013-01-22T20:31:46Z</time>
      </trkpt>
      <trkpt lat="59.4785476" lon="17.8832129">
        <ele>15.6</ele>
        <time>2013-01-22T20:31:49Z</time>
      </trkpt>
      <trkpt lat="59.4784571" lon="17.8831527">
        <ele>15</ele>
        <time>2013-01-22T20:31:52Z</time>
      </trkpt>
      <trkpt lat="59.4782836" lon="17.8829695">
        <ele>15.4</ele>
        <time>2013-01-22T20:31:58Z</time>
      </trkpt>
      <trkpt lat="59.4782079" lon="17.8827658">
        <ele>16.2</ele>
        <time>2013-01-22T20:32:02Z</time>
      </trkpt>
      <trkpt lat="59.4781784" lon="17.8826504">
        <ele>16.6</ele>
        <time>2013-01-22T20:32:04Z</time>
      </trkpt>
      <trkpt lat="59.4781309" lon="17.8822816">
        <ele>17</ele>
        <time>2013-01-22T20:32:10Z</time>
      </trkpt>
      <trkpt lat="59.4781124" lon="17.8819028">
        <ele>18</ele>
        <time>2013-01-22T20:32:17Z</time>
      </trkpt>
      <trkpt lat="59.4780178" lon="17.8815611">
        <ele>20.8</ele>
        <time>2013-01-22T20:32:24Z</time>
      </trkpt>
      <trkpt lat="59.477821" lon="17.8814826">
        <ele>22.6</ele>
        <time>2013-01-22T20:32:31Z</time>
      </trkpt>
      <trkpt lat="59.4777921" lon="17.8815129">
        <ele>22.4</ele>
        <time>2013-01-22T20:32:32Z</time>
      </trkpt>
      <trkpt lat="59.4777044" lon="17.8817304">
        <ele>21.8</ele>
        <time>2013-01-22T20:32:35Z</time>
      </trkpt>
      <trkpt lat="59.4777491" lon="17.8821097">
        <ele>19.8</ele>
        <time>2013-01-22T20:32:39Z</time>
      </trkpt>
      <trkpt lat="59.4778956" lon="17.8823686">
        <ele>18.4</ele>
        <time>2013-01-22T20:32:43Z</time>
      </trkpt>
      <trkpt lat="59.477995" lon="17.8825637">
        <ele>17.6</ele>
        <time>2013-01-22T20:32:46Z</time>
      </trkpt>
      <trkpt lat="59.4780304" lon="17.8826285">
        <ele>17.2</ele>
        <time>2013-01-22T20:32:47Z</time>
      </trkpt>
      <trkpt lat="59.4781668" lon="17.8828592">
        <ele>14.8</ele>
        <time>2013-01-22T20:32:51Z</time>
      </trkpt>
      <trkpt lat="59.4782344" lon="17.8830105">
        <ele>14</ele>
        <time>2013-01-22T20:32:53Z</time>
      </trkpt>
      <trkpt lat="59.4782629" lon="17.8830911">
        <ele>13.6</ele>
        <time>2013-01-22T20:32:54Z</time>
      </trkpt>
      <trkpt lat="59.4782825" lon="17.8831835">
        <ele>13.2</ele>
        <time>2013-01-22T20:32:55Z</time>
      </trkpt>
      <trkpt lat="59.4782861" lon="17.8835767">
        <ele>11.8</ele>
        <time>2013-01-22T20:32:59Z</time>
      </trkpt>
      <trkpt lat="59.4782842" lon="17.8837812">
        <ele>10.8</ele>
        <time>2013-01-22T20:33:01Z</time>
      </trkpt>
      <trkpt lat="59.4782881" lon="17.883888">
        <ele>9.8</ele>
        <time>2013-01-22T20:33:02Z</time>
      </trkpt>
      <trkpt lat="59.4782924" lon="17.8839885">
        <ele>9.4</ele>
        <time>2013-01-22T20:33:03Z</time>
      </trkpt>
      <trkpt lat="59.4782956" lon="17.8844147">
        <ele>8.6</ele>
        <time>2013-01-22T20:33:07Z</time>
      </trkpt>
      <trkpt lat="59.4782607" lon="17.8847575">
        <ele>8.4</ele>
        <time>2013-01-22T20:33:10Z</time>
      </trkpt>
      <trkpt lat="59.47824" lon="17.8848642">
        <ele>8.2</ele>
        <time>2013-01-22T20:33:11Z</time>
      </trkpt>
      <trkpt lat="59.4782065" lon="17.8849509">
        <ele>7.8</ele>
        <time>2013-01-22T20:33:12Z</time>
      </trkpt>
      <trkpt lat="59.4781116" lon="17.8850327">
        <ele>7.2</ele>
        <time>2013-01-22T20:33:14Z</time>
      </trkpt>
      <trkpt lat="59.4779453" lon="17.8849773">
        <ele>6.8</ele>
        <time>2013-01-22T20:33:18Z</time>
      </trkpt>
      <trkpt lat="59.4779116" lon="17.8849677">
        <ele>6.8</ele>
        <time>2013-01-22T20:33:19Z</time>
      </trkpt>
      <trkpt lat="59.477807" lon="17.8849721">
        <ele>7.8</ele>
        <time>2013-01-22T20:33:22Z</time>
      </trkpt>
      <trkpt lat="59.4777348" lon="17.8849944">
        <ele>8.8</ele>
        <time>2013-01-22T20:33:24Z</time>
      </trkpt>
      <trkpt lat="59.4775393" lon="17.8851283">
        <ele>9.2</ele>
        <time>2013-01-22T20:33:29Z</time>
      </trkpt>
      <trkpt lat="59.4774258" lon="17.8852461">
        <ele>9.6</ele>
        <time>2013-01-22T20:33:32Z</time>
      </trkpt>
      <trkpt lat="59.4773601" lon="17.8853169">
        <ele>10</ele>
        <time>2013-01-22T20:33:34Z</time>
      </trkpt>
      <trkpt lat="59.4773298" lon="17.8853462">
        <ele>10.8</ele>
        <time>2013-01-22T20:33:35Z</time>
      </trkpt>
      <trkpt lat="59.4771953" lon="17.8854065">
        <ele>12.6</ele>
        <time>2013-01-22T20:33:39Z</time>
      </trkpt>
      <trkpt lat="59.4771615" lon="17.8854062">
        <ele>13</ele>
        <time>2013-01-22T20:33:40Z</time>
      </trkpt>
      <trkpt lat="59.4769615" lon="17.8854475">
        <ele>14.8</ele>
        <time>2013-01-22T20:33:46Z</time>
      </trkpt>
      <trkpt lat="59.4767678" lon="17.8855745">
        <ele>15.4</ele>
        <time>2013-01-22T20:33:51Z</time>
      </trkpt>
      <trkpt lat="59.4766198" lon="17.885815">
        <ele>15</ele>
        <time>2013-01-22T20:33:56Z</time>
      </trkpt>
      <trkpt lat="59.4764836" lon="17.8860756">
        <ele>14</ele>
        <time>2013-01-22T20:34:01Z</time>
      </trkpt>
      <trkpt lat="59.4763429" lon="17.8863982">
        <ele>13</ele>
        <time>2013-01-22T20:34:07Z</time>
      </trkpt>
      <trkpt lat="59.4762027" lon="17.8866913">
        <ele>12.4</ele>
        <time>2013-01-22T20:34:12Z</time>
      </trkpt>
      <trkpt lat="59.4761461" lon="17.8870872">
        <ele>10.6</ele>
        <time>2013-01-22T20:34:18Z</time>
      </trkpt>
      <trkpt lat="59.4761375" lon="17.887487">
        <ele>10</ele>
        <time>2013-01-22T20:34:23Z</time>
      </trkpt>
      <trkpt lat="59.4761632" lon="17.8877652">
        <ele>8.6</ele>
        <time>2013-01-22T20:34:26Z</time>
      </trkpt>
      <trkpt lat="59.4761847" lon="17.8878417">
        <ele>8</ele>
        <time>2013-01-22T20:34:27Z</time>
      </trkpt>
      <trkpt lat="59.4762228" lon="17.8879878">
        <ele>7.8</ele>
        <time>2013-01-22T20:34:29Z</time>
      </trkpt>
      <trkpt lat="59.4762916" lon="17.8882008">
        <ele>5.4</ele>
        <time>2013-01-22T20:34:33Z</time>
      </trkpt>
      <trkpt lat="59.4764193" lon="17.8885266">
        <ele>4.8</ele>
        <time>2013-01-22T20:34:38Z</time>
      </trkpt>
      <trkpt lat="59.4765892" lon="17.8886883">
        <ele>2.6</ele>
        <time>2013-01-22T20:34:42Z</time>
      </trkpt>
      <trkpt lat="59.4766753" lon="17.8887221">
        <ele>2</ele>
        <time>2013-01-22T20:34:44Z</time>
      </trkpt>
      <trkpt lat="59.4767907" lon="17.8887929">
        <ele>2.8</ele>
        <time>2013-01-22T20:34:47Z</time>
      </trkpt>
      <trkpt lat="59.4769708" lon="17.888684">
        <ele>2.6</ele>
        <time>2013-01-22T20:34:52Z</time>
      </trkpt>
      <trkpt lat="59.4770403" lon="17.8886016">
        <ele>2.8</ele>
        <time>2013-01-22T20:34:54Z</time>
      </trkpt>
      <trkpt lat="59.4771529" lon="17.888489">
        <ele>3.6</ele>
        <time>2013-01-22T20:34:57Z</time>
      </trkpt>
      <trkpt lat="59.477346" lon="17.8882863">
        <ele>4.8</ele>
        <time>2013-01-22T20:35:03Z</time>
      </trkpt>
      <trkpt lat="59.4775263" lon="17.8881065">
        <ele>7.8</ele>
        <time>2013-01-22T20:35:09Z</time>
      </trkpt>
      <trkpt lat="59.4777183" lon="17.8879393">
        <ele>10.4</ele>
        <time>2013-01-22T20:35:15Z</time>
      </trkpt>
      <trkpt lat="59.4778868" lon="17.8877859">
        <ele>10.8</ele>
        <time>2013-01-22T20:35:20Z</time>
      </trkpt>
      <trkpt lat="59.4780489" lon="17.8875901">
        <ele>10.8</ele>
        <time>2013-01-22T20:35:25Z</time>
      </trkpt>
      <trkpt lat="59.478226" lon="17.8874523">
        <ele>11.2</ele>
        <time>2013-01-22T20:35:30Z</time>
      </trkpt>
      <trkpt lat="59.4784115" lon="17.887427">
        <ele>12.6</ele>
        <time>2013-01-22T20:35:36Z</time>
      </trkpt>
      <trkpt lat="59.478595" lon="17.8875594">
        <ele>12</ele>
        <time>2013-01-22T20:35:41Z</time>
      </trkpt>
      <trkpt lat="59.4786571" lon="17.8878678">
        <ele>9.6</ele>
        <time>2013-01-22T20:35:46Z</time>
      </trkpt>
      <trkpt lat="59.4786421" lon="17.8879282">
        <ele>9.8</ele>
        <time>2013-01-22T20:35:47Z</time>
      </trkpt>
      <trkpt lat="59.4785918" lon="17.8882609">
        <ele>9.6</ele>
        <time>2013-01-22T20:35:52Z</time>
      </trkpt>
      <trkpt lat="59.4785374" lon="17.888651">
        <ele>9.4</ele>
        <time>2013-01-22T20:35:57Z</time>
      </trkpt>
      <trkpt lat="59.4784284" lon="17.8889292">
        <ele>8.6</ele>
        <time>2013-01-22T20:36:01Z</time>
      </trkpt>
      <trkpt lat="59.4783923" lon="17.8889831">
        <ele>8.4</ele>
        <time>2013-01-22T20:36:02Z</time>
      </trkpt>
      <trkpt lat="59.4782763" lon="17.8891415">
        <ele>7.6</ele>
        <time>2013-01-22T20:36:05Z</time>
      </trkpt>
      <trkpt lat="59.4780817" lon="17.8893357">
        <ele>6.8</ele>
        <time>2013-01-22T20:36:09Z</time>
      </trkpt>
      <trkpt lat="59.4780314" lon="17.8893859">
        <ele>6.4</ele>
        <time>2013-01-22T20:36:10Z</time>
      </trkpt>
      <trkpt lat="59.4779806" lon="17.8894301">
        <ele>6</ele>
        <time>2013-01-22T20:36:11Z</time>
      </trkpt>
      <trkpt lat="59.4778817" lon="17.889514">
        <ele>5.4</ele>
        <time>2013-01-22T20:36:13Z</time>
      </trkpt>
      <trkpt lat="59.477693" lon="17.8896312">
        <ele>3.6</ele>
        <time>2013-01-22T20:36:17Z</time>
      </trkpt>
      <trkpt lat="59.4775105" lon="17.8897334">
        <ele>3</ele>
        <time>2013-01-22T20:36:21Z</time>
      </trkpt>
      <trkpt lat="59.477424" lon="17.8897764">
        <ele>3</ele>
        <time>2013-01-22T20:36:23Z</time>
      </trkpt>
      <trkpt lat="59.4772983" lon="17.8898461">
        <ele>2.8</ele>
        <time>2013-01-22T20:36:26Z</time>
      </trkpt>
      <trkpt lat="59.4772046" lon="17.8898897">
        <ele>2.8</ele>
        <time>2013-01-22T20:36:28Z</time>
      </trkpt>
      <trkpt lat="59.4771072" lon="17.8898922">
        <ele>2.4</ele>
        <time>2013-01-22T20:36:30Z</time>
      </trkpt>
      <trkpt lat="59.4769591" lon="17.8898088">
        <ele>2.6</ele>
        <time>2013-01-22T20:36:33Z</time>
      </trkpt>
      <trkpt lat="59.4769093" lon="17.8897818">
        <ele>2.6</ele>
        <time>2013-01-22T20:36:34Z</time>
      </trkpt>
      <trkpt lat="59.4767823" lon="17.889728">
        <ele>2.6</ele>
        <time>2013-01-22T20:36:37Z</time>
      </trkpt>
      <trkpt lat="59.4767078" lon="17.8897171">
        <ele>2.8</ele>
        <time>2013-01-22T20:36:39Z</time>
      </trkpt>
      <trkpt lat="59.4766685" lon="17.8897158">
        <ele>3.4</ele>
        <time>2013-01-22T20:36:40Z</time>
      </trkpt>
      <trkpt lat="59.4765198" lon="17.8897984">
        <ele>3.8</ele>
        <time>2013-01-22T20:36:44Z</time>
      </trkpt>
      <trkpt lat="59.4764823" lon="17.889827">
        <ele>4.2</ele>
        <time>2013-01-22T20:36:45Z</time>
      </trkpt>
      <trkpt lat="59.4763199" lon="17.8898427">
        <ele>6.6</ele>
        <time>2013-01-22T20:36:50Z</time>
      </trkpt>
      <trkpt lat="59.4761714" lon="17.8896315">
        <ele>8.6</ele>
        <time>2013-01-22T20:36:56Z</time>
      </trkpt>
      <trkpt lat="59.4760225" lon="17.8893638">
        <ele>8.8</ele>
        <time>2013-01-22T20:37:02Z</time>
      </trkpt>
      <trkpt lat="59.4758167" lon="17.8892869">
        <ele>9.2</ele>
        <time>2013-01-22T20:37:08Z</time>
      </trkpt>
      <trkpt lat="59.4757318" lon="17.8893674">
        <ele>9.4</ele>
        <time>2013-01-22T20:37:10Z</time>
      </trkpt>
      <trkpt lat="59.4756873" lon="17.889513">
        <ele>9.8</ele>
        <time>2013-01-22T20:37:12Z</time>
      </trkpt>
      <trkpt lat="59.4757364" lon="17.8898387">
        <ele>8</ele>
        <time>2013-01-22T20:37:17Z</time>
      </trkpt>
      <trkpt lat="59.4758081" lon="17.8899185">
        <ele>7.6</ele>
        <time>2013-01-22T20:37:19Z</time>
      </trkpt>
      <trkpt lat="59.4758786" lon="17.8900066">
        <ele>6.4</ele>
        <time>2013-01-22T20:37:21Z</time>
      </trkpt>
      <trkpt lat="59.4759157" lon="17.8900722">
        <ele>6.4</ele>
        <time>2013-01-22T20:37:22Z</time>
      </trkpt>
      <trkpt lat="59.4759528" lon="17.890145">
        <ele>6.4</ele>
        <time>2013-01-22T20:37:23Z</time>
      </trkpt>
      <trkpt lat="59.4760318" lon="17.8903913">
        <ele>5.4</ele>
        <time>2013-01-22T20:37:26Z</time>
      </trkpt>
      <trkpt lat="59.4760938" lon="17.8906692">
        <ele>4.4</ele>
        <time>2013-01-22T20:37:29Z</time>
      </trkpt>
      <trkpt lat="59.4761083" lon="17.8907701">
        <ele>4.8</ele>
        <time>2013-01-22T20:37:30Z</time>
      </trkpt>
      <trkpt lat="59.4761359" lon="17.8909493">
        <ele>5.4</ele>
        <time>2013-01-22T20:37:32Z</time>
      </trkpt>
      <trkpt lat="59.4761564" lon="17.8911126">
        <ele>4.6</ele>
        <time>2013-01-22T20:37:34Z</time>
      </trkpt>
      <trkpt lat="59.4761638" lon="17.8911997">
        <ele>3.8</ele>
        <time>2013-01-22T20:37:35Z</time>
      </trkpt>
      <trkpt lat="59.4762846" lon="17.8914549">
        <ele>2</ele>
        <time>2013-01-22T20:37:40Z</time>
      </trkpt>
      <trkpt lat="59.4764005" lon="17.8911751">
        <ele>0.6</ele>
        <time>2013-01-22T20:37:46Z</time>
      </trkpt>
      <trkpt lat="59.4763141" lon="17.8908215">
        <ele>0.8</ele>
        <time>2013-01-22T20:37:51Z</time>
      </trkpt>
      <trkpt lat="59.4762678" lon="17.8904749">
        <ele>2.2</ele>
        <time>2013-01-22T20:37:56Z</time>
      </trkpt>
      <trkpt lat="59.4763762" lon="17.8901929">
        <ele>1</ele>
        <time>2013-01-22T20:38:03Z</time>
      </trkpt>
      <trkpt lat="59.4765085" lon="17.89029">
        <ele>2.6</ele>
        <time>2013-01-22T20:38:07Z</time>
      </trkpt>
      <trkpt lat="59.4765392" lon="17.8903232">
        <ele>3</ele>
        <time>2013-01-22T20:38:08Z</time>
      </trkpt>
      <trkpt lat="59.4766929" lon="17.8904823">
        <ele>4</ele>
        <time>2013-01-22T20:38:12Z</time>
      </trkpt>
      <trkpt lat="59.4768716" lon="17.8906597">
        <ele>3</ele>
        <time>2013-01-22T20:38:17Z</time>
      </trkpt>
      <trkpt lat="59.4769042" lon="17.890693">
        <ele>3.2</ele>
        <time>2013-01-22T20:38:18Z</time>
      </trkpt>
      <trkpt lat="59.4770674" lon="17.8908299">
        <ele>2</ele>
        <time>2013-01-22T20:38:22Z</time>
      </trkpt>
      <trkpt lat="59.4771513" lon="17.8908933">
        <ele>1.4</ele>
        <time>2013-01-22T20:38:24Z</time>
      </trkpt>
      <trkpt lat="59.4772801" lon="17.8909775">
        <ele>1.4</ele>
        <time>2013-01-22T20:38:27Z</time>
      </trkpt>
      <trkpt lat="59.4773254" lon="17.890997">
        <ele>1.6</ele>
        <time>2013-01-22T20:38:28Z</time>
      </trkpt>
      <trkpt lat="59.4774931" lon="17.8910697">
        <ele>0.2</ele>
        <time>2013-01-22T20:38:32Z</time>
      </trkpt>
      <trkpt lat="59.477534" lon="17.8910857">
        <ele>0.4</ele>
        <time>2013-01-22T20:38:33Z</time>
      </trkpt>
      <trkpt lat="59.4776665" lon="17.8911116">
        <ele>1.6</ele>
        <time>2013-01-22T20:38:36Z</time>
      </trkpt>
      <trkpt lat="59.477705" lon="17.8911096">
        <ele>1.6</ele>
        <time>2013-01-22T20:38:37Z</time>
      </trkpt>
      <trkpt lat="59.4778353" lon="17.8911037">
        <ele>4</ele>
        <time>2013-01-22T20:38:41Z</time>
      </trkpt>
      <trkpt lat="59.477908" lon="17.8910721">
        <ele>5.4</ele>
        <time>2013-01-22T20:38:43Z</time>
      </trkpt>
      <trkpt lat="59.4780803" lon="17.8909142">
        <ele>5.4</ele>
        <time>2013-01-22T20:38:47Z</time>
      </trkpt>
      <trkpt lat="59.4781966" lon="17.8907456">
        <ele>5.2</ele>
        <time>2013-01-22T20:38:50Z</time>
      </trkpt>
      <trkpt lat="59.4782282" lon="17.890691">
        <ele>5</ele>
        <time>2013-01-22T20:38:51Z</time>
      </trkpt>
      <trkpt lat="59.4783321" lon="17.8905768">
        <ele>5</ele>
        <time>2013-01-22T20:38:54Z</time>
      </trkpt>
      <trkpt lat="59.4783987" lon="17.8905087">
        <ele>4.6</ele>
        <time>2013-01-22T20:38:56Z</time>
      </trkpt>
      <trkpt lat="59.4785895" lon="17.8903357">
        <ele>6</ele>
        <time>2013-01-22T20:39:02Z</time>
      </trkpt>
      <trkpt lat="59.4787782" lon="17.8901367">
        <ele>7.6</ele>
        <time>2013-01-22T20:39:08Z</time>
      </trkpt>
      <trkpt lat="59.4789426" lon="17.8899652">
        <ele>9.2</ele>
        <time>2013-01-22T20:39:14Z</time>
      </trkpt>
      <trkpt lat="59.4791212" lon="17.8898971">
        <ele>11.6</ele>
        <time>2013-01-22T20:39:20Z</time>
      </trkpt>
      <trkpt lat="59.4793014" lon="17.8897078">
        <ele>14</ele>
        <time>2013-01-22T20:39:25Z</time>
      </trkpt>
      <trkpt lat="59.4794822" lon="17.8895094">
        <ele>14.6</ele>
        <time>2013-01-22T20:39:31Z</time>
      </trkpt>
      <trkpt lat="59.4796598" lon="17.8893954">
        <ele>13.8</ele>
        <time>2013-01-22T20:39:36Z</time>
      </trkpt>
      <trkpt lat="59.4798728" lon="17.8893644">
        <ele>10.6</ele>
        <time>2013-01-22T20:39:41Z</time>
      </trkpt>
      <trkpt lat="59.4800905" lon="17.8894291">
        <ele>8</ele>
        <time>2013-01-22T20:39:46Z</time>
      </trkpt>
      <trkpt lat="59.4801858" lon="17.8894787">
        <ele>7.6</ele>
        <time>2013-01-22T20:39:48Z</time>
      </trkpt>
      <trkpt lat="59.4802936" lon="17.8895125">
        <ele>6.8</ele>
        <time>2013-01-22T20:39:50Z</time>
      </trkpt>
      <trkpt lat="59.4804825" lon="17.8895315">
        <ele>6</ele>
        <time>2013-01-22T20:39:54Z</time>
      </trkpt>
      <trkpt lat="59.4806009" lon="17.8894874">
        <ele>5.6</ele>
        <time>2013-01-22T20:39:57Z</time>
      </trkpt>
      <trkpt lat="59.4806717" lon="17.8894746">
        <ele>5.4</ele>
        <time>2013-01-22T20:39:59Z</time>
      </trkpt>
      <trkpt lat="59.4808783" lon="17.8894493">
        <ele>4.2</ele>
        <time>2013-01-22T20:40:05Z</time>
      </trkpt>
      <trkpt lat="59.4809161" lon="17.8894476">
        <ele>4.4</ele>
        <time>2013-01-22T20:40:06Z</time>
      </trkpt>
      <trkpt lat="59.4810874" lon="17.8893544">
        <ele>4.4</ele>
        <time>2013-01-22T20:40:10Z</time>
      </trkpt>
      <trkpt lat="59.4812472" lon="17.8891446">
        <ele>4</ele>
        <time>2013-01-22T20:40:14Z</time>
      </trkpt>
      <trkpt lat="59.4813771" lon="17.8889854">
        <ele>4.8</ele>
        <time>2013-01-22T20:40:18Z</time>
      </trkpt>
      <trkpt lat="59.4814267" lon="17.8889442">
        <ele>5.8</ele>
        <time>2013-01-22T20:40:20Z</time>
      </trkpt>
      <trkpt lat="59.481621" lon="17.8888772">
        <ele>6.6</ele>
        <time>2013-01-22T20:40:25Z</time>
      </trkpt>
      <trkpt lat="59.4818359" lon="17.8889852">
        <ele>7.4</ele>
        <time>2013-01-22T20:40:30Z</time>
      </trkpt>
      <trkpt lat="59.4818864" lon="17.8889932">
        <ele>7.6</ele>
        <time>2013-01-22T20:40:31Z</time>
      </trkpt>
      <trkpt lat="59.4820215" lon="17.8889851">
        <ele>7.4</ele>
        <time>2013-01-22T20:40:34Z</time>
      </trkpt>
      <trkpt lat="59.4821773" lon="17.8888616">
        <ele>7</ele>
        <time>2013-01-22T20:40:38Z</time>
      </trkpt>
      <trkpt lat="59.482211" lon="17.8888176">
        <ele>6.6</ele>
        <time>2013-01-22T20:40:39Z</time>
      </trkpt>
      <trkpt lat="59.4822431" lon="17.8887728">
        <ele>6.8</ele>
        <time>2013-01-22T20:40:40Z</time>
      </trkpt>
      <trkpt lat="59.4822995" lon="17.8886736">
        <ele>7</ele>
        <time>2013-01-22T20:40:42Z</time>
      </trkpt>
      <trkpt lat="59.4823524" lon="17.8885381">
        <ele>6</ele>
        <time>2013-01-22T20:40:45Z</time>
      </trkpt>
      <trkpt lat="59.4824474" lon="17.8882288">
        <ele>2.8</ele>
        <time>2013-01-22T20:40:51Z</time>
      </trkpt>
      <trkpt lat="59.4825016" lon="17.888046">
        <ele>1.8</ele>
        <time>2013-01-22T20:40:55Z</time>
      </trkpt>
      <trkpt lat="59.4825546" lon="17.8878761">
        <ele>1.6</ele>
        <time>2013-01-22T20:40:58Z</time>
      </trkpt>
      <trkpt lat="59.4826602" lon="17.8875347">
        <ele>1</ele>
        <time>2013-01-22T20:41:03Z</time>
      </trkpt>
      <trkpt lat="59.4827991" lon="17.8872097">
        <ele>1.4</ele>
        <time>2013-01-22T20:41:09Z</time>
      </trkpt>
      <trkpt lat="59.4829455" lon="17.8869534">
        <ele>1.4</ele>
        <time>2013-01-22T20:41:15Z</time>
      </trkpt>
      <trkpt lat="59.4831161" lon="17.8867862">
        <ele>2.2</ele>
        <time>2013-01-22T20:41:20Z</time>
      </trkpt>
      <trkpt lat="59.4833171" lon="17.8867625">
        <ele>3.2</ele>
        <time>2013-01-22T20:41:25Z</time>
      </trkpt>
      <trkpt lat="59.4834075" lon="17.8867674">
        <ele>3.6</ele>
        <time>2013-01-22T20:41:27Z</time>
      </trkpt>
      <trkpt lat="59.4835268" lon="17.8866741">
        <ele>3</ele>
        <time>2013-01-22T20:41:30Z</time>
      </trkpt>
      <trkpt lat="59.4836626" lon="17.886496">
        <ele>2.2</ele>
        <time>2013-01-22T20:41:34Z</time>
      </trkpt>
      <trkpt lat="59.4836978" lon="17.8864619">
        <ele>2.4</ele>
        <time>2013-01-22T20:41:35Z</time>
      </trkpt>
      <trkpt lat="59.4837688" lon="17.886406">
        <ele>2.6</ele>
        <time>2013-01-22T20:41:37Z</time>
      </trkpt>
      <trkpt lat="59.4838499" lon="17.8863543">
        <ele>3</ele>
        <time>2013-01-22T20:41:39Z</time>
      </trkpt>
      <trkpt lat="59.4838841" lon="17.8863232">
        <ele>3</ele>
        <time>2013-01-22T20:41:40Z</time>
      </trkpt>
      <trkpt lat="59.4839584" lon="17.8862625">
        <ele>4</ele>
        <time>2013-01-22T20:41:42Z</time>
      </trkpt>
      <trkpt lat="59.4840542" lon="17.8861515">
        <ele>4.2</ele>
        <time>2013-01-22T20:41:45Z</time>
      </trkpt>
      <trkpt lat="59.4842536" lon="17.886033">
        <ele>3.8</ele>
        <time>2013-01-22T20:41:51Z</time>
      </trkpt>
      <trkpt lat="59.4844567" lon="17.8859693">
        <ele>5.4</ele>
        <time>2013-01-22T20:41:57Z</time>
      </trkpt>
      <trkpt lat="59.4846168" lon="17.885759">
        <ele>8</ele>
        <time>2013-01-22T20:42:03Z</time>
      </trkpt>
      <trkpt lat="59.4847683" lon="17.8855026">
        <ele>9.8</ele>
        <time>2013-01-22T20:42:11Z</time>
      </trkpt>
      <trkpt lat="59.4849415" lon="17.8853315">
        <ele>10</ele>
        <time>2013-01-22T20:42:17Z</time>
      </trkpt>
      <trkpt lat="59.4851546" lon="17.8853547">
        <ele>8.8</ele>
        <time>2013-01-22T20:42:22Z</time>
      </trkpt>
      <trkpt lat="59.4852512" lon="17.8855238">
        <ele>8.2</ele>
        <time>2013-01-22T20:42:25Z</time>
      </trkpt>
      <trkpt lat="59.4852729" lon="17.885601">
        <ele>7.6</ele>
        <time>2013-01-22T20:42:26Z</time>
      </trkpt>
      <trkpt lat="59.4852942" lon="17.885686">
        <ele>7</ele>
        <time>2013-01-22T20:42:27Z</time>
      </trkpt>
      <trkpt lat="59.4853487" lon="17.8859385">
        <ele>5</ele>
        <time>2013-01-22T20:42:30Z</time>
      </trkpt>
      <trkpt lat="59.4853668" lon="17.8860305">
        <ele>4.4</ele>
        <time>2013-01-22T20:42:31Z</time>
      </trkpt>
      <trkpt lat="59.4853886" lon="17.8861186">
        <ele>3.4</ele>
        <time>2013-01-22T20:42:32Z</time>
      </trkpt>
      <trkpt lat="59.4854493" lon="17.8862796">
        <ele>1.4</ele>
        <time>2013-01-22T20:42:34Z</time>
      </trkpt>
      <trkpt lat="59.4856098" lon="17.8864909">
        <ele>0</ele>
        <time>2013-01-22T20:42:38Z</time>
      </trkpt>
      <trkpt lat="59.4856541" lon="17.8865115">
        <ele>0</ele>
        <time>2013-01-22T20:42:39Z</time>
      </trkpt>
      <trkpt lat="59.4856971" lon="17.8865249">
        <ele>0</ele>
        <time>2013-01-22T20:42:40Z</time>
      </trkpt>
      <trkpt lat="59.4858226" lon="17.8865412">
        <ele>0</ele>
        <time>2013-01-22T20:42:43Z</time>
      </trkpt>
      <trkpt lat="59.4860112" lon="17.8865228">
        <ele>0</ele>
        <time>2013-01-22T20:42:48Z</time>
      </trkpt>
      <trkpt lat="59.4861339" lon="17.8864891">
        <ele>0</ele>
        <time>2013-01-22T20:42:51Z</time>
      </trkpt>
      <trkpt lat="59.4862131" lon="17.8864571">
        <ele>0</ele>
        <time>2013-01-22T20:42:53Z</time>
      </trkpt>
      <trkpt lat="59.4864179" lon="17.8863827">
        <ele>0</ele>
        <time>2013-01-22T20:42:58Z</time>
      </trkpt>
      <trkpt lat="59.4866018" lon="17.8863019">
        <ele>1</ele>
        <time>2013-01-22T20:43:03Z</time>
      </trkpt>
      <trkpt lat="59.4867858" lon="17.88624">
        <ele>3.2</ele>
        <time>2013-01-22T20:43:08Z</time>
      </trkpt>
      <trkpt lat="59.4869875" lon="17.8861916">
        <ele>3.4</ele>
        <time>2013-01-22T20:43:13Z</time>
      </trkpt>
      <trkpt lat="59.4870975" lon="17.8860597">
        <ele>3.6</ele>
        <time>2013-01-22T20:43:17Z</time>
      </trkpt>
      <trkpt lat="59.4871121" lon="17.885924">
        <ele>3</ele>
        <time>2013-01-22T20:43:20Z</time>
      </trkpt>
      <trkpt lat="59.4870041" lon="17.8856865">
        <ele>4.4</ele>
        <time>2013-01-22T20:43:28Z</time>
      </trkpt>
      <trkpt lat="59.4869735" lon="17.8856733">
        <ele>4.6</ele>
        <time>2013-01-22T20:43:29Z</time>
      </trkpt>
      <trkpt lat="59.4868085" lon="17.8856693">
        <ele>6.6</ele>
        <time>2013-01-22T20:43:34Z</time>
      </trkpt>
      <trkpt lat="59.4866192" lon="17.8856259">
        <ele>8.2</ele>
        <time>2013-01-22T20:43:39Z</time>
      </trkpt>
      <trkpt lat="59.4864459" lon="17.885455">
        <ele>12.4</ele>
        <time>2013-01-22T20:43:45Z</time>
      </trkpt>
      <trkpt lat="59.4863102" lon="17.8851643">
        <ele>12.2</ele>
        <time>2013-01-22T20:43:52Z</time>
      </trkpt>
      <trkpt lat="59.4862152" lon="17.8848598">
        <ele>10.2</ele>
        <time>2013-01-22T20:43:57Z</time>
      </trkpt>
      <trkpt lat="59.48613" lon="17.8844979">
        <ele>10</ele>
        <time>2013-01-22T20:44:03Z</time>
      </trkpt>
      <trkpt lat="59.4860459" lon="17.8841578">
        <ele>9.4</ele>
        <time>2013-01-22T20:44:09Z</time>
      </trkpt>
      <trkpt lat="59.4859796" lon="17.8837994">
        <ele>10</ele>
        <time>2013-01-22T20:44:15Z</time>
      </trkpt>
      <trkpt lat="59.4858905" lon="17.8834681">
        <ele>9.6</ele>
        <time>2013-01-22T20:44:21Z</time>
      </trkpt>
      <trkpt lat="59.4857952" lon="17.8831273">
        <ele>8.4</ele>
        <time>2013-01-22T20:44:27Z</time>
      </trkpt>
      <trkpt lat="59.485731" lon="17.8827824">
        <ele>7.4</ele>
        <time>2013-01-22T20:44:33Z</time>
      </trkpt>
      <trkpt lat="59.4857463" lon="17.8824218">
        <ele>9</ele>
        <time>2013-01-22T20:44:39Z</time>
      </trkpt>
      <trkpt lat="59.4857776" lon="17.882321">
        <ele>9.4</ele>
        <time>2013-01-22T20:44:41Z</time>
      </trkpt>
      <trkpt lat="59.4858791" lon="17.8822008">
        <ele>9.4</ele>
        <time>2013-01-22T20:44:44Z</time>
      </trkpt>
      <trkpt lat="59.4859661" lon="17.8821526">
        <ele>9.6</ele>
        <time>2013-01-22T20:44:46Z</time>
      </trkpt>
      <trkpt lat="59.4860625" lon="17.8821096">
        <ele>9.6</ele>
        <time>2013-01-22T20:44:48Z</time>
      </trkpt>
      <trkpt lat="59.4862225" lon="17.8820496">
        <ele>9</ele>
        <time>2013-01-22T20:44:51Z</time>
      </trkpt>
      <trkpt lat="59.4862779" lon="17.8820392">
        <ele>9.4</ele>
        <time>2013-01-22T20:44:52Z</time>
      </trkpt>
      <trkpt lat="59.486363" lon="17.8820299">
        <ele>8.4</ele>
        <time>2013-01-22T20:44:54Z</time>
      </trkpt>
      <trkpt lat="59.4864737" lon="17.8821169">
        <ele>8.8</ele>
        <time>2013-01-22T20:44:57Z</time>
      </trkpt>
      <trkpt lat="59.4865137" lon="17.8821619">
        <ele>9</ele>
        <time>2013-01-22T20:44:58Z</time>
      </trkpt>
      <trkpt lat="59.4866532" lon="17.8823063">
        <ele>8.2</ele>
        <time>2013-01-22T20:45:01Z</time>
      </trkpt>
      <trkpt lat="59.4867302" lon="17.8824041">
        <ele>7.6</ele>
        <time>2013-01-22T20:45:03Z</time>
      </trkpt>
      <trkpt lat="59.486825" lon="17.8825645">
        <ele>7.4</ele>
        <time>2013-01-22T20:45:06Z</time>
      </trkpt>
      <trkpt lat="59.4869085" lon="17.8826842">
        <ele>7.2</ele>
        <time>2013-01-22T20:45:08Z</time>
      </trkpt>
      <trkpt lat="59.4870038" lon="17.8827867">
        <ele>6.6</ele>
        <time>2013-01-22T20:45:10Z</time>
      </trkpt>
      <trkpt lat="59.4871866" lon="17.8829829">
        <ele>7.6</ele>
        <time>2013-01-22T20:45:14Z</time>
      </trkpt>
      <trkpt lat="59.4872906" lon="17.8831465">
        <ele>9.6</ele>
        <time>2013-01-22T20:45:18Z</time>
      </trkpt>
      <trkpt lat="59.4873151" lon="17.8832267">
        <ele>10.2</ele>
        <time>2013-01-22T20:45:20Z</time>
      </trkpt>
      <trkpt lat="59.4873335" lon="17.883286">
        <ele>10</ele>
        <time>2013-01-22T20:45:21Z</time>
      </trkpt>
      <trkpt lat="59.4874257" lon="17.8835797">
        <ele>11</ele>
        <time>2013-01-22T20:45:24Z</time>
      </trkpt>
      <trkpt lat="59.4876134" lon="17.8836624">
        <ele>11.2</ele>
        <time>2013-01-22T20:45:28Z</time>
      </trkpt>
      <trkpt lat="59.4878062" lon="17.8835108">
        <ele>10</ele>
        <time>2013-01-22T20:45:33Z</time>
      </trkpt>
      <trkpt lat="59.4878453" lon="17.8834895">
        <ele>9.8</ele>
        <time>2013-01-22T20:45:34Z</time>
      </trkpt>
      <trkpt lat="59.4879622" lon="17.88343">
        <ele>9.6</ele>
        <time>2013-01-22T20:45:37Z</time>
      </trkpt>
      <trkpt lat="59.4879986" lon="17.883405">
        <ele>10</ele>
        <time>2013-01-22T20:45:38Z</time>
      </trkpt>
      <trkpt lat="59.4881122" lon="17.8832979">
        <ele>9.2</ele>
        <time>2013-01-22T20:45:41Z</time>
      </trkpt>
      <trkpt lat="59.4881939" lon="17.8832337">
        <ele>9.6</ele>
        <time>2013-01-22T20:45:43Z</time>
      </trkpt>
      <trkpt lat="59.4882287" lon="17.8832066">
        <ele>9.6</ele>
        <time>2013-01-22T20:45:44Z</time>
      </trkpt>
      <trkpt lat="59.4883017" lon="17.8831542">
        <ele>9.4</ele>
        <time>2013-01-22T20:45:46Z</time>
      </trkpt>
      <trkpt lat="59.488367" lon="17.883089">
        <ele>10.2</ele>
        <time>2013-01-22T20:45:48Z</time>
      </trkpt>
      <trkpt lat="59.4885537" lon="17.8829367">
        <ele>10.6</ele>
        <time>2013-01-22T20:45:53Z</time>
      </trkpt>
      <trkpt lat="59.4887161" lon="17.8827529">
        <ele>10.6</ele>
        <time>2013-01-22T20:45:58Z</time>
      </trkpt>
      <trkpt lat="59.4888459" lon="17.882441">
        <ele>11.8</ele>
        <time>2013-01-22T20:46:04Z</time>
      </trkpt>
      <trkpt lat="59.4889665" lon="17.8821286">
        <ele>10.8</ele>
        <time>2013-01-22T20:46:10Z</time>
      </trkpt>
      <trkpt lat="59.4891481" lon="17.8818833">
        <ele>10.4</ele>
        <time>2013-01-22T20:46:15Z</time>
      </trkpt>
      <trkpt lat="59.4893208" lon="17.8817024">
        <ele>9.4</ele>
        <time>2013-01-22T20:46:19Z</time>
      </trkpt>
      <trkpt lat="59.4894933" lon="17.8815532">
        <ele>8.8</ele>
        <time>2013-01-22T20:46:23Z</time>
      </trkpt>
      <trkpt lat="59.4895363" lon="17.8815284">
        <ele>8.6</ele>
        <time>2013-01-22T20:46:24Z</time>
      </trkpt>
      <trkpt lat="59.4896554" lon="17.8814842">
        <ele>7.8</ele>
        <time>2013-01-22T20:46:27Z</time>
      </trkpt>
      <trkpt lat="59.4896962" lon="17.8814821">
        <ele>7.6</ele>
        <time>2013-01-22T20:46:28Z</time>
      </trkpt>
      <trkpt lat="59.489849" lon="17.8814876">
        <ele>6.6</ele>
        <time>2013-01-22T20:46:32Z</time>
      </trkpt>
      <trkpt lat="59.4898848" lon="17.8814919">
        <ele>6.6</ele>
        <time>2013-01-22T20:46:33Z</time>
      </trkpt>
      <trkpt lat="59.4900697" lon="17.8814777">
        <ele>7</ele>
        <time>2013-01-22T20:46:38Z</time>
      </trkpt>
      <trkpt lat="59.4902707" lon="17.8814986">
        <ele>7.2</ele>
        <time>2013-01-22T20:46:43Z</time>
      </trkpt>
      <trkpt lat="59.4904583" lon="17.8814884">
        <ele>7.8</ele>
        <time>2013-01-22T20:46:48Z</time>
      </trkpt>
      <trkpt lat="59.4906721" lon="17.881486">
        <ele>7.4</ele>
        <time>2013-01-22T20:46:54Z</time>
      </trkpt>
      <trkpt lat="59.4908658" lon="17.8814815">
        <ele>7.4</ele>
        <time>2013-01-22T20:46:59Z</time>
      </trkpt>
      <trkpt lat="59.4910487" lon="17.8814859">
        <ele>7</ele>
        <time>2013-01-22T20:47:04Z</time>
      </trkpt>
      <trkpt lat="59.4912494" lon="17.8815693">
        <ele>9.6</ele>
        <time>2013-01-22T20:47:09Z</time>
      </trkpt>
      <trkpt lat="59.4914529" lon="17.8816504">
        <ele>9.6</ele>
        <time>2013-01-22T20:47:14Z</time>
      </trkpt>
      <trkpt lat="59.4915317" lon="17.88168">
        <ele>9.6</ele>
        <time>2013-01-22T20:47:16Z</time>
      </trkpt>
      <trkpt lat="59.4916626" lon="17.8817287">
        <ele>10.4</ele>
        <time>2013-01-22T20:47:19Z</time>
      </trkpt>
      <trkpt lat="59.4917879" lon="17.8817667">
        <ele>8.8</ele>
        <time>2013-01-22T20:47:22Z</time>
      </trkpt>
      <trkpt lat="59.4918658" lon="17.8818015">
        <ele>8.4</ele>
        <time>2013-01-22T20:47:24Z</time>
      </trkpt>
      <trkpt lat="59.4919357" lon="17.8818381">
        <ele>7.6</ele>
        <time>2013-01-22T20:47:26Z</time>
      </trkpt>
      <trkpt lat="59.4920062" lon="17.8818675">
        <ele>6.2</ele>
        <time>2013-01-22T20:47:28Z</time>
      </trkpt>
      <trkpt lat="59.4920434" lon="17.8818817">
        <ele>6.6</ele>
        <time>2013-01-22T20:47:29Z</time>
      </trkpt>
      <trkpt lat="59.4922453" lon="17.8819847">
        <ele>8.6</ele>
        <time>2013-01-22T20:47:36Z</time>
      </trkpt>
      <trkpt lat="59.4924328" lon="17.8820846">
        <ele>10.2</ele>
        <time>2013-01-22T20:47:41Z</time>
      </trkpt>
      <trkpt lat="59.4926206" lon="17.8821931">
        <ele>10.4</ele>
        <time>2013-01-22T20:47:45Z</time>
      </trkpt>
      <trkpt lat="59.4926955" lon="17.8822384">
        <ele>10.2</ele>
        <time>2013-01-22T20:47:47Z</time>
      </trkpt>
      <trkpt lat="59.4928091" lon="17.8822788">
        <ele>8.8</ele>
        <time>2013-01-22T20:47:50Z</time>
      </trkpt>
      <trkpt lat="59.4929381" lon="17.8822065">
        <ele>8</ele>
        <time>2013-01-22T20:47:54Z</time>
      </trkpt>
      <trkpt lat="59.4929898" lon="17.8821316">
        <ele>8.2</ele>
        <time>2013-01-22T20:47:56Z</time>
      </trkpt>
      <trkpt lat="59.4930169" lon="17.8819739">
        <ele>7.2</ele>
        <time>2013-01-22T20:47:59Z</time>
      </trkpt>
      <trkpt lat="59.4930007" lon="17.8817501">
        <ele>6.8</ele>
        <time>2013-01-22T20:48:03Z</time>
      </trkpt>
      <trkpt lat="59.4929935" lon="17.8816971">
        <ele>7</ele>
        <time>2013-01-22T20:48:04Z</time>
      </trkpt>
      <trkpt lat="59.492976" lon="17.8813874">
        <ele>7.6</ele>
        <time>2013-01-22T20:48:10Z</time>
      </trkpt>
      <trkpt lat="59.4929691" lon="17.8809751">
        <ele>6.8</ele>
        <time>2013-01-22T20:48:17Z</time>
      </trkpt>
      <trkpt lat="59.4930521" lon="17.8806462">
        <ele>6.6</ele>
        <time>2013-01-22T20:48:22Z</time>
      </trkpt>
      <trkpt lat="59.4931893" lon="17.8803891">
        <ele>6.2</ele>
        <time>2013-01-22T20:48:27Z</time>
      </trkpt>
      <trkpt lat="59.4932177" lon="17.880034">
        <ele>4.2</ele>
        <time>2013-01-22T20:48:32Z</time>
      </trkpt>
      <trkpt lat="59.4931987" lon="17.8799582">
        <ele>4</ele>
        <time>2013-01-22T20:48:33Z</time>
      </trkpt>
      <trkpt lat="59.4931151" lon="17.8797272">
        <ele>2.8</ele>
        <time>2013-01-22T20:48:37Z</time>
      </trkpt>
      <trkpt lat="59.4929783" lon="17.8794905">
        <ele>3</ele>
        <time>2013-01-22T20:48:42Z</time>
      </trkpt>
      <trkpt lat="59.4928059" lon="17.879295">
        <ele>4.2</ele>
        <time>2013-01-22T20:48:48Z</time>
      </trkpt>
      <trkpt lat="59.492619" lon="17.8792016">
        <ele>6.2</ele>
        <time>2013-01-22T20:48:54Z</time>
      </trkpt>
      <trkpt lat="59.4924134" lon="17.8791743">
        <ele>7.2</ele>
        <time>2013-01-22T20:49:00Z</time>
      </trkpt>
      <trkpt lat="59.492203" lon="17.8791734">
        <ele>8.8</ele>
        <time>2013-01-22T20:49:06Z</time>
      </trkpt>
      <trkpt lat="59.4920153" lon="17.8791709">
        <ele>10.2</ele>
        <time>2013-01-22T20:49:11Z</time>
      </trkpt>
      <trkpt lat="59.4918037" lon="17.8791523">
        <ele>10.8</ele>
        <time>2013-01-22T20:49:17Z</time>
      </trkpt>
      <trkpt lat="59.4916178" lon="17.8791692">
        <ele>11</ele>
        <time>2013-01-22T20:49:23Z</time>
      </trkpt>
      <trkpt lat="59.4914295" lon="17.8791885">
        <ele>9.6</ele>
        <time>2013-01-22T20:49:29Z</time>
      </trkpt>
      <trkpt lat="59.4912347" lon="17.8791911">
        <ele>10.4</ele>
        <time>2013-01-22T20:49:35Z</time>
      </trkpt>
      <trkpt lat="59.4910608" lon="17.8791947">
        <ele>10.2</ele>
        <time>2013-01-22T20:49:40Z</time>
      </trkpt>
      <trkpt lat="59.490847" lon="17.8791941">
        <ele>10.6</ele>
        <time>2013-01-22T20:49:45Z</time>
      </trkpt>
      <trkpt lat="59.4906654" lon="17.8791831">
        <ele>10.6</ele>
        <time>2013-01-22T20:49:50Z</time>
      </trkpt>
      <trkpt lat="59.4904615" lon="17.8791512">
        <ele>9.8</ele>
        <time>2013-01-22T20:49:55Z</time>
      </trkpt>
      <trkpt lat="59.4902438" lon="17.8791388">
        <ele>10</ele>
        <time>2013-01-22T20:50:01Z</time>
      </trkpt>
      <trkpt lat="59.4900305" lon="17.879141">
        <ele>10.2</ele>
        <time>2013-01-22T20:50:07Z</time>
      </trkpt>
      <trkpt lat="59.489836" lon="17.8791394">
        <ele>11.2</ele>
        <time>2013-01-22T20:50:13Z</time>
      </trkpt>
      <trkpt lat="59.4896436" lon="17.8791213">
        <ele>11.8</ele>
        <time>2013-01-22T20:50:19Z</time>
      </trkpt>
      <trkpt lat="59.4894432" lon="17.879127">
        <ele>14</ele>
        <time>2013-01-22T20:50:26Z</time>
      </trkpt>
      <trkpt lat="59.4892488" lon="17.8791068">
        <ele>13.2</ele>
        <time>2013-01-22T20:50:33Z</time>
      </trkpt>
      <trkpt lat="59.4890628" lon="17.8791155">
        <ele>14.2</ele>
        <time>2013-01-22T20:50:39Z</time>
      </trkpt>
      <trkpt lat="59.4889687" lon="17.879118">
        <ele>15</ele>
        <time>2013-01-22T20:50:42Z</time>
      </trkpt>
      <trkpt lat="59.4889064" lon="17.8790098">
        <ele>14.6</ele>
        <time>2013-01-22T20:50:45Z</time>
      </trkpt>
      <trkpt lat="59.4890353" lon="17.8788048">
        <ele>12.8</ele>
        <time>2013-01-22T20:50:52Z</time>
      </trkpt>
      <trkpt lat="59.4892352" lon="17.8787548">
        <ele>12.4</ele>
        <time>2013-01-22T20:51:00Z</time>
      </trkpt>
      <trkpt lat="59.4894292" lon="17.8787239">
        <ele>11.4</ele>
        <time>2013-01-22T20:51:05Z</time>
      </trkpt>
      <trkpt lat="59.4896125" lon="17.878603">
        <ele>11</ele>
        <time>2013-01-22T20:51:10Z</time>
      </trkpt>
      <trkpt lat="59.4896678" lon="17.8782383">
        <ele>10</ele>
        <time>2013-01-22T20:51:17Z</time>
      </trkpt>
      <trkpt lat="59.4895364" lon="17.8779868">
        <ele>10.8</ele>
        <time>2013-01-22T20:51:23Z</time>
      </trkpt>
      <trkpt lat="59.4893346" lon="17.8779641">
        <ele>12</ele>
        <time>2013-01-22T20:51:30Z</time>
      </trkpt>
      <trkpt lat="59.4891422" lon="17.8780862">
        <ele>12.6</ele>
        <time>2013-01-22T20:51:36Z</time>
      </trkpt>
      <trkpt lat="59.4889606" lon="17.8781456">
        <ele>14.8</ele>
        <time>2013-01-22T20:51:41Z</time>
      </trkpt>
      <trkpt lat="59.4889141" lon="17.8780653">
        <ele>13.8</ele>
        <time>2013-01-22T20:51:43Z</time>
      </trkpt>
      <trkpt lat="59.4888989" lon="17.8778101">
        <ele>12.8</ele>
        <time>2013-01-22T20:51:47Z</time>
      </trkpt>
      <trkpt lat="59.4889727" lon="17.8775977">
        <ele>11.4</ele>
        <time>2013-01-22T20:51:52Z</time>
      </trkpt>
      <trkpt lat="59.4890028" lon="17.8775236">
        <ele>10.8</ele>
        <time>2013-01-22T20:51:54Z</time>
      </trkpt>
      <trkpt lat="59.4890968" lon="17.8773619">
        <ele>10.2</ele>
        <time>2013-01-22T20:51:59Z</time>
      </trkpt>
      <trkpt lat="59.4892215" lon="17.8772297">
        <ele>11.2</ele>
        <time>2013-01-22T20:53:20Z</time>
      </trkpt>
      <trkpt lat="59.489398" lon="17.8772517">
        <ele>11.4</ele>
        <time>2013-01-22T20:53:26Z</time>
      </trkpt>
      <trkpt lat="59.4895917" lon="17.8772511">
        <ele>12.2</ele>
        <time>2013-01-22T20:53:31Z</time>
      </trkpt>
      <trkpt lat="59.4897984" lon="17.877243">
        <ele>11.6</ele>
        <time>2013-01-22T20:53:36Z</time>
      </trkpt>
      <trkpt lat="59.4899854" lon="17.8771899">
        <ele>12.8</ele>
        <time>2013-01-22T20:53:41Z</time>
      </trkpt>
      <trkpt lat="59.490186" lon="17.877059">
        <ele>12</ele>
        <time>2013-01-22T20:53:46Z</time>
      </trkpt>
      <trkpt lat="59.490268" lon="17.8770025">
        <ele>12</ele>
        <time>2013-01-22T20:53:48Z</time>
      </trkpt>
      <trkpt lat="59.4903676" lon="17.8768738">
        <ele>10.2</ele>
        <time>2013-01-22T20:53:51Z</time>
      </trkpt>
      <trkpt lat="59.490564" lon="17.8767901">
        <ele>9.8</ele>
        <time>2013-01-22T20:53:56Z</time>
      </trkpt>
      <trkpt lat="59.4907604" lon="17.8768093">
        <ele>8.4</ele>
        <time>2013-01-22T20:54:01Z</time>
      </trkpt>
      <trkpt lat="59.4908073" lon="17.8768234">
        <ele>8.4</ele>
        <time>2013-01-22T20:54:02Z</time>
      </trkpt>
      <trkpt lat="59.490893" lon="17.876843">
        <ele>8.2</ele>
        <time>2013-01-22T20:54:04Z</time>
      </trkpt>
      <trkpt lat="59.4909364" lon="17.8768491">
        <ele>7.8</ele>
        <time>2013-01-22T20:54:05Z</time>
      </trkpt>
      <trkpt lat="59.4910689" lon="17.8768912">
        <ele>7.6</ele>
        <time>2013-01-22T20:54:08Z</time>
      </trkpt>
      <trkpt lat="59.491152" lon="17.8768984">
        <ele>7.8</ele>
        <time>2013-01-22T20:54:10Z</time>
      </trkpt>
      <trkpt lat="59.4911944" lon="17.8769051">
        <ele>7.8</ele>
        <time>2013-01-22T20:54:11Z</time>
      </trkpt>
      <trkpt lat="59.4913638" lon="17.8769757">
        <ele>8.6</ele>
        <time>2013-01-22T20:54:15Z</time>
      </trkpt>
      <trkpt lat="59.4914046" lon="17.8770021">
        <ele>8</ele>
        <time>2013-01-22T20:54:16Z</time>
      </trkpt>
      <trkpt lat="59.4914936" lon="17.8770491">
        <ele>8.2</ele>
        <time>2013-01-22T20:54:18Z</time>
      </trkpt>
      <trkpt lat="59.4915388" lon="17.8770503">
        <ele>7.8</ele>
        <time>2013-01-22T20:54:19Z</time>
      </trkpt>
      <trkpt lat="59.4916786" lon="17.8770481">
        <ele>7.4</ele>
        <time>2013-01-22T20:54:22Z</time>
      </trkpt>
      <trkpt lat="59.4917244" lon="17.877045">
        <ele>7.4</ele>
        <time>2013-01-22T20:54:23Z</time>
      </trkpt>
      <trkpt lat="59.4919321" lon="17.877032">
        <ele>6.6</ele>
        <time>2013-01-22T20:54:28Z</time>
      </trkpt>
      <trkpt lat="59.4921399" lon="17.8770272">
        <ele>7.8</ele>
        <time>2013-01-22T20:54:33Z</time>
      </trkpt>
      <trkpt lat="59.4923223" lon="17.8770274">
        <ele>8.6</ele>
        <time>2013-01-22T20:54:37Z</time>
      </trkpt>
      <trkpt lat="59.4923675" lon="17.8770305">
        <ele>9</ele>
        <time>2013-01-22T20:54:38Z</time>
      </trkpt>
      <trkpt lat="59.4925371" lon="17.8770393">
        <ele>9.6</ele>
        <time>2013-01-22T20:54:42Z</time>
      </trkpt>
      <trkpt lat="59.4925692" lon="17.8770547">
        <ele>8.4</ele>
        <time>2013-01-22T20:54:43Z</time>
      </trkpt>
      <trkpt lat="59.4927112" lon="17.8771284">
        <ele>6.4</ele>
        <time>2013-01-22T20:54:47Z</time>
      </trkpt>
      <trkpt lat="59.4927833" lon="17.8771363">
        <ele>5.2</ele>
        <time>2013-01-22T20:54:49Z</time>
      </trkpt>
      <trkpt lat="59.492899" lon="17.8771616">
        <ele>5.4</ele>
        <time>2013-01-22T20:54:52Z</time>
      </trkpt>
      <trkpt lat="59.4930842" lon="17.877291">
        <ele>5.2</ele>
        <time>2013-01-22T20:54:57Z</time>
      </trkpt>
      <trkpt lat="59.4932644" lon="17.8774656">
        <ele>3.4</ele>
        <time>2013-01-22T20:55:02Z</time>
      </trkpt>
      <trkpt lat="59.4933075" lon="17.877516">
        <ele>3.2</ele>
        <time>2013-01-22T20:55:03Z</time>
      </trkpt>
      <trkpt lat="59.4934505" lon="17.8776842">
        <ele>2.6</ele>
        <time>2013-01-22T20:55:06Z</time>
      </trkpt>
      <trkpt lat="59.4936258" lon="17.8779427">
        <ele>0</ele>
        <time>2013-01-22T20:55:10Z</time>
      </trkpt>
      <trkpt lat="59.4937035" lon="17.8780819">
        <ele>0</ele>
        <time>2013-01-22T20:55:12Z</time>
      </trkpt>
      <trkpt lat="59.4937985" lon="17.8781525">
        <ele>0</ele>
        <time>2013-01-22T20:55:14Z</time>
      </trkpt>
      <trkpt lat="59.4939984" lon="17.878098">
        <ele>0</ele>
        <time>2013-01-22T20:55:18Z</time>
      </trkpt>
      <trkpt lat="59.4941191" lon="17.8779628">
        <ele>0</ele>
        <time>2013-01-22T20:55:21Z</time>
      </trkpt>
      <trkpt lat="59.4941915" lon="17.8778857">
        <ele>0</ele>
        <time>2013-01-22T20:55:23Z</time>
      </trkpt>
      <trkpt lat="59.4942244" lon="17.8778422">
        <ele>0</ele>
        <time>2013-01-22T20:55:24Z</time>
      </trkpt>
      <trkpt lat="59.4943325" lon="17.8777204">
        <ele>0</ele>
        <time>2013-01-22T20:55:27Z</time>
      </trkpt>
      <trkpt lat="59.4943689" lon="17.8776893">
        <ele>0</ele>
        <time>2013-01-22T20:55:28Z</time>
      </trkpt>
      <trkpt lat="59.4945501" lon="17.8775221">
        <ele>0</ele>
        <time>2013-01-22T20:55:33Z</time>
      </trkpt>
      <trkpt lat="59.4947108" lon="17.8774536">
        <ele>0</ele>
        <time>2013-01-22T20:55:37Z</time>
      </trkpt>
      <trkpt lat="59.4947485" lon="17.8774402">
        <ele>0</ele>
        <time>2013-01-22T20:55:38Z</time>
      </trkpt>
      <trkpt lat="59.4949548" lon="17.8773304">
        <ele>1.2</ele>
        <time>2013-01-22T20:55:44Z</time>
      </trkpt>
      <trkpt lat="59.4951504" lon="17.877209">
        <ele>5</ele>
        <time>2013-01-22T20:55:50Z</time>
      </trkpt>
      <trkpt lat="59.4952721" lon="17.8769391">
        <ele>10</ele>
        <time>2013-01-22T20:56:55Z</time>
      </trkpt>
      <trkpt lat="59.4952835" lon="17.876859">
        <ele>9.8</ele>
        <time>2013-01-22T20:56:57Z</time>
      </trkpt>
      <trkpt lat="59.4952868" lon="17.8767531">
        <ele>9.6</ele>
        <time>2013-01-22T20:56:59Z</time>
      </trkpt>
      <trkpt lat="59.4952542" lon="17.8765047">
        <ele>8.8</ele>
        <time>2013-01-22T20:57:03Z</time>
      </trkpt>
      <trkpt lat="59.495207" lon="17.8761334">
        <ele>7.6</ele>
        <time>2013-01-22T20:57:09Z</time>
      </trkpt>
      <trkpt lat="59.4952014" lon="17.875768">
        <ele>4.8</ele>
        <time>2013-01-22T20:57:13Z</time>
      </trkpt>
      <trkpt lat="59.4951733" lon="17.875565">
        <ele>2.6</ele>
        <time>2013-01-22T20:57:15Z</time>
      </trkpt>
      <trkpt lat="59.4951375" lon="17.8754594">
        <ele>2.2</ele>
        <time>2013-01-22T20:57:16Z</time>
      </trkpt>
      <trkpt lat="59.4949227" lon="17.8752624">
        <ele>2</ele>
        <time>2013-01-22T20:57:20Z</time>
      </trkpt>
      <trkpt lat="59.4948765" lon="17.8752421">
        <ele>1.6</ele>
        <time>2013-01-22T20:57:21Z</time>
      </trkpt>
      <trkpt lat="59.4947874" lon="17.875201">
        <ele>1</ele>
        <time>2013-01-22T20:57:23Z</time>
      </trkpt>
      <trkpt lat="59.4947115" lon="17.8751594">
        <ele>0.4</ele>
        <time>2013-01-22T20:57:25Z</time>
      </trkpt>
      <trkpt lat="59.4945863" lon="17.8751225">
        <ele>2.6</ele>
        <time>2013-01-22T20:57:29Z</time>
      </trkpt>
      <trkpt lat="59.4945175" lon="17.8751128">
        <ele>3.6</ele>
        <time>2013-01-22T20:57:31Z</time>
      </trkpt>
      <trkpt lat="59.4943289" lon="17.8751281">
        <ele>5.2</ele>
        <time>2013-01-22T20:57:37Z</time>
      </trkpt>
      <trkpt lat="59.4942709" lon="17.8751367">
        <ele>6.2</ele>
        <time>2013-01-22T20:57:39Z</time>
      </trkpt>
      <trkpt lat="59.4941459" lon="17.875204">
        <ele>7.4</ele>
        <time>2013-01-22T20:57:43Z</time>
      </trkpt>
      <trkpt lat="59.4939545" lon="17.8753424">
        <ele>9.4</ele>
        <time>2013-01-22T20:57:49Z</time>
      </trkpt>
      <trkpt lat="59.4937601" lon="17.8754302">
        <ele>10</ele>
        <time>2013-01-22T20:57:55Z</time>
      </trkpt>
      <trkpt lat="59.4935928" lon="17.8755484">
        <ele>11</ele>
        <time>2013-01-22T20:58:01Z</time>
      </trkpt>
      <trkpt lat="59.4934057" lon="17.8757577">
        <ele>12.4</ele>
        <time>2013-01-22T20:58:07Z</time>
      </trkpt>
      <trkpt lat="59.4932503" lon="17.8760473">
        <ele>11.8</ele>
        <time>2013-01-22T20:58:12Z</time>
      </trkpt>
      <trkpt lat="59.4930816" lon="17.8762261">
        <ele>7.6</ele>
        <time>2013-01-22T20:58:18Z</time>
      </trkpt>
      <trkpt lat="59.4928863" lon="17.8762217">
        <ele>6</ele>
        <time>2013-01-22T20:58:24Z</time>
      </trkpt>
      <trkpt lat="59.4926972" lon="17.876229">
        <ele>8.2</ele>
        <time>2013-01-22T20:58:29Z</time>
      </trkpt>
      <trkpt lat="59.4925149" lon="17.8763534">
        <ele>11</ele>
        <time>2013-01-22T20:58:35Z</time>
      </trkpt>
      <trkpt lat="59.4923485" lon="17.8765204">
        <ele>12.4</ele>
        <time>2013-01-22T20:58:40Z</time>
      </trkpt>
      <trkpt lat="59.4921631" lon="17.8767071">
        <ele>13.8</ele>
        <time>2013-01-22T20:58:45Z</time>
      </trkpt>
      <trkpt lat="59.492098" lon="17.8768321">
        <ele>14.2</ele>
        <time>2013-01-22T20:58:47Z</time>
      </trkpt>
      <trkpt lat="59.4920234" lon="17.8770267">
        <ele>14.2</ele>
        <time>2013-01-22T20:58:50Z</time>
      </trkpt>
      <trkpt lat="59.4919968" lon="17.8770819">
        <ele>13.8</ele>
        <time>2013-01-22T20:58:51Z</time>
      </trkpt>
      <trkpt lat="59.4918689" lon="17.8772052">
        <ele>12.8</ele>
        <time>2013-01-22T20:58:55Z</time>
      </trkpt>
      <trkpt lat="59.4918343" lon="17.8772109">
        <ele>11.8</ele>
        <time>2013-01-22T20:58:56Z</time>
      </trkpt>
      <trkpt lat="59.4916498" lon="17.877199">
        <ele>11.2</ele>
        <time>2013-01-22T20:59:01Z</time>
      </trkpt>
      <trkpt lat="59.4914579" lon="17.8771075">
        <ele>13</ele>
        <time>2013-01-22T20:59:06Z</time>
      </trkpt>
      <trkpt lat="59.4912531" lon="17.8769712">
        <ele>12.6</ele>
        <time>2013-01-22T20:59:12Z</time>
      </trkpt>
      <trkpt lat="59.4910862" lon="17.8768334">
        <ele>11.2</ele>
        <time>2013-01-22T20:59:17Z</time>
      </trkpt>
      <trkpt lat="59.4909168" lon="17.8766565">
        <ele>11</ele>
        <time>2013-01-22T20:59:22Z</time>
      </trkpt>
      <trkpt lat="59.4907301" lon="17.8765575">
        <ele>12.2</ele>
        <time>2013-01-22T20:59:27Z</time>
      </trkpt>
      <trkpt lat="59.4905566" lon="17.8764831">
        <ele>11.8</ele>
        <time>2013-01-22T20:59:31Z</time>
      </trkpt>
      <trkpt lat="59.4905196" lon="17.8764668">
        <ele>12</ele>
        <time>2013-01-22T20:59:32Z</time>
      </trkpt>
      <trkpt lat="59.4903743" lon="17.8763487">
        <ele>11.8</ele>
        <time>2013-01-22T20:59:36Z</time>
      </trkpt>
      <trkpt lat="59.4903454" lon="17.8763089">
        <ele>11.6</ele>
        <time>2013-01-22T20:59:37Z</time>
      </trkpt>
      <trkpt lat="59.4901829" lon="17.8761276">
        <ele>11.6</ele>
        <time>2013-01-22T20:59:43Z</time>
      </trkpt>
      <trkpt lat="59.4901582" lon="17.8761025">
        <ele>11.6</ele>
        <time>2013-01-22T20:59:44Z</time>
      </trkpt>
      <trkpt lat="59.4899875" lon="17.8758663">
        <ele>14</ele>
        <time>2013-01-22T20:59:51Z</time>
      </trkpt>
      <trkpt lat="59.4898659" lon="17.8755222">
        <ele>13.6</ele>
        <time>2013-01-22T20:59:57Z</time>
      </trkpt>
      <trkpt lat="59.4898222" lon="17.8751184">
        <ele>12</ele>
        <time>2013-01-22T21:00:02Z</time>
      </trkpt>
      <trkpt lat="59.4898522" lon="17.8747979">
        <ele>11.8</ele>
        <time>2013-01-22T21:00:06Z</time>
      </trkpt>
      <trkpt lat="59.4898573" lon="17.8747336">
        <ele>12</ele>
        <time>2013-01-22T21:00:07Z</time>
      </trkpt>
      <trkpt lat="59.4897378" lon="17.8745167">
        <ele>13.6</ele>
        <time>2013-01-22T21:00:13Z</time>
      </trkpt>
      <trkpt lat="59.4896376" lon="17.8745553">
        <ele>14.6</ele>
        <time>2013-01-22T21:00:16Z</time>
      </trkpt>
      <trkpt lat="59.4895301" lon="17.8746155">
        <ele>15.8</ele>
        <time>2013-01-22T21:00:19Z</time>
      </trkpt>
      <trkpt lat="59.489337" lon="17.8747749">
        <ele>17</ele>
        <time>2013-01-22T21:00:24Z</time>
      </trkpt>
      <trkpt lat="59.4892709" lon="17.8748088">
        <ele>18.2</ele>
        <time>2013-01-22T21:00:26Z</time>
      </trkpt>
      <trkpt lat="59.4891597" lon="17.8746834">
        <ele>18.4</ele>
        <time>2013-01-22T21:00:30Z</time>
      </trkpt>
      <trkpt lat="59.4890787" lon="17.8743176">
        <ele>15.4</ele>
        <time>2013-01-22T21:00:36Z</time>
      </trkpt>
      <trkpt lat="59.4890628" lon="17.8739238">
        <ele>16.2</ele>
        <time>2013-01-22T21:00:43Z</time>
      </trkpt>
      <trkpt lat="59.4891134" lon="17.8735389">
        <ele>18</ele>
        <time>2013-01-22T21:00:50Z</time>
      </trkpt>
      <trkpt lat="59.4891866" lon="17.8732198">
        <ele>19</ele>
        <time>2013-01-22T21:00:56Z</time>
      </trkpt>
      <trkpt lat="59.4892189" lon="17.8728129">
        <ele>18.8</ele>
        <time>2013-01-22T21:01:03Z</time>
      </trkpt>
      <trkpt lat="59.4892108" lon="17.872446">
        <ele>18.2</ele>
        <time>2013-01-22T21:01:09Z</time>
      </trkpt>
      <trkpt lat="59.4892049" lon="17.8723876">
        <ele>18.2</ele>
        <time>2013-01-22T21:01:10Z</time>
      </trkpt>
      <trkpt lat="59.4891346" lon="17.8721216">
        <ele>17.8</ele>
        <time>2013-01-22T21:01:15Z</time>
      </trkpt>
      <trkpt lat="59.4890806" lon="17.8719667">
        <ele>18</ele>
        <time>2013-01-22T21:01:18Z</time>
      </trkpt>
      <trkpt lat="59.4890327" lon="17.8717654">
        <ele>18.8</ele>
        <time>2013-01-22T21:01:22Z</time>
      </trkpt>
      <trkpt lat="59.4889768" lon="17.8714233">
        <ele>19.2</ele>
        <time>2013-01-22T21:01:28Z</time>
      </trkpt>
      <trkpt lat="59.4889262" lon="17.8710761">
        <ele>19.2</ele>
        <time>2013-01-22T21:01:34Z</time>
      </trkpt>
      <trkpt lat="59.488891" lon="17.8707185">
        <ele>20.2</ele>
        <time>2013-01-22T21:01:40Z</time>
      </trkpt>
      <trkpt lat="59.4888758" lon="17.8703508">
        <ele>19.6</ele>
        <time>2013-01-22T21:01:46Z</time>
      </trkpt>
      <trkpt lat="59.4889073" lon="17.8699999">
        <ele>20.4</ele>
        <time>2013-01-22T21:01:52Z</time>
      </trkpt>
      <trkpt lat="59.4890561" lon="17.8697543">
        <ele>22.4</ele>
        <time>2013-01-22T21:01:59Z</time>
      </trkpt>
      <trkpt lat="59.4892012" lon="17.8694711">
        <ele>25</ele>
        <time>2013-01-22T21:02:05Z</time>
      </trkpt>
      <trkpt lat="59.4893641" lon="17.8692204">
        <ele>27</ele>
        <time>2013-01-22T21:02:11Z</time>
      </trkpt>
      <trkpt lat="59.489545" lon="17.8691059">
        <ele>29.6</ele>
        <time>2013-01-22T21:02:16Z</time>
      </trkpt>
      <trkpt lat="59.4897549" lon="17.869081">
        <ele>29.4</ele>
        <time>2013-01-22T21:02:22Z</time>
      </trkpt>
      <trkpt lat="59.4899523" lon="17.8690561">
        <ele>28</ele>
        <time>2013-01-22T21:02:29Z</time>
      </trkpt>
      <trkpt lat="59.4901397" lon="17.8690503">
        <ele>29.6</ele>
        <time>2013-01-22T21:02:36Z</time>
      </trkpt>
      <trkpt lat="59.4903427" lon="17.8690273">
        <ele>31.4</ele>
        <time>2013-01-22T21:02:42Z</time>
      </trkpt>
      <trkpt lat="59.4905229" lon="17.8689185">
        <ele>32.4</ele>
        <time>2013-01-22T21:02:47Z</time>
      </trkpt>
      <trkpt lat="59.4907002" lon="17.8688036">
        <ele>34.8</ele>
        <time>2013-01-22T21:02:53Z</time>
      </trkpt>
      <trkpt lat="59.4908949" lon="17.868719">
        <ele>38.6</ele>
        <time>2013-01-22T21:03:00Z</time>
      </trkpt>
      <trkpt lat="59.4910847" lon="17.8687537">
        <ele>39.6</ele>
        <time>2013-01-22T21:03:07Z</time>
      </trkpt>
      <trkpt lat="59.4912736" lon="17.868877">
        <ele>39.2</ele>
        <time>2013-01-22T21:03:12Z</time>
      </trkpt>
      <trkpt lat="59.4914419" lon="17.8690905">
        <ele>41.6</ele>
        <time>2013-01-22T21:03:18Z</time>
      </trkpt>
      <trkpt lat="59.4915969" lon="17.8693119">
        <ele>41.8</ele>
        <time>2013-01-22T21:03:25Z</time>
      </trkpt>
      <trkpt lat="59.491787" lon="17.8694523">
        <ele>42.2</ele>
        <time>2013-01-22T21:03:32Z</time>
      </trkpt>
      <trkpt lat="59.4919905" lon="17.8694544">
        <ele>42.6</ele>
        <time>2013-01-22T21:03:37Z</time>
      </trkpt>
      <trkpt lat="59.4921647" lon="17.8693412">
        <ele>42</ele>
        <time>2013-01-22T21:03:41Z</time>
      </trkpt>
      <trkpt lat="59.4923169" lon="17.8691144">
        <ele>41.4</ele>
        <time>2013-01-22T21:03:46Z</time>
      </trkpt>
      <trkpt lat="59.4923605" lon="17.8687645">
        <ele>39</ele>
        <time>2013-01-22T21:03:51Z</time>
      </trkpt>
      <trkpt lat="59.4922059" lon="17.8685667">
        <ele>36.8</ele>
        <time>2013-01-22T21:03:55Z</time>
      </trkpt>
      <trkpt lat="59.4920203" lon="17.8685662">
        <ele>35.2</ele>
        <time>2013-01-22T21:03:59Z</time>
      </trkpt>
      <trkpt lat="59.4918088" lon="17.8684621">
        <ele>32.2</ele>
        <time>2013-01-22T21:04:03Z</time>
      </trkpt>
      <trkpt lat="59.4917513" lon="17.8684098">
        <ele>31.8</ele>
        <time>2013-01-22T21:04:04Z</time>
      </trkpt>
      <trkpt lat="59.4916482" lon="17.868259">
        <ele>31</ele>
        <time>2013-01-22T21:04:06Z</time>
      </trkpt>
      <trkpt lat="59.4914897" lon="17.8680197">
        <ele>30.2</ele>
        <time>2013-01-22T21:04:09Z</time>
      </trkpt>
      <trkpt lat="59.4913326" lon="17.8677833">
        <ele>29.4</ele>
        <time>2013-01-22T21:04:12Z</time>
      </trkpt>
      <trkpt lat="59.4911681" lon="17.867552">
        <ele>29.8</ele>
        <time>2013-01-22T21:04:15Z</time>
      </trkpt>
      <trkpt lat="59.4910131" lon="17.8673365">
        <ele>30</ele>
        <time>2013-01-22T21:04:18Z</time>
      </trkpt>
      <trkpt lat="59.490792" lon="17.8672592">
        <ele>27</ele>
        <time>2013-01-22T21:04:22Z</time>
      </trkpt>
      <trkpt lat="59.490739" lon="17.8672773">
        <ele>26.2</ele>
        <time>2013-01-22T21:04:23Z</time>
      </trkpt>
      <trkpt lat="59.4905846" lon="17.867386">
        <ele>25</ele>
        <time>2013-01-22T21:04:26Z</time>
      </trkpt>
      <trkpt lat="59.490387" lon="17.8675115">
        <ele>24.4</ele>
        <time>2013-01-22T21:04:30Z</time>
      </trkpt>
      <trkpt lat="59.4903397" lon="17.8675419">
        <ele>24</ele>
        <time>2013-01-22T21:04:31Z</time>
      </trkpt>
      <trkpt lat="59.4901973" lon="17.8675659">
        <ele>23.8</ele>
        <time>2013-01-22T21:04:34Z</time>
      </trkpt>
      <trkpt lat="59.4901604" lon="17.8675659">
        <ele>23.8</ele>
        <time>2013-01-22T21:04:35Z</time>
      </trkpt>
      <trkpt lat="59.4900226" lon="17.8675709">
        <ele>24.8</ele>
        <time>2013-01-22T21:04:39Z</time>
      </trkpt>
      <trkpt lat="59.489975" lon="17.8675717">
        <ele>24.6</ele>
        <time>2013-01-22T21:04:40Z</time>
      </trkpt>
      <trkpt lat="59.4899256" lon="17.8675768">
        <ele>24.4</ele>
        <time>2013-01-22T21:04:41Z</time>
      </trkpt>
      <trkpt lat="59.4897782" lon="17.8676399">
        <ele>23.2</ele>
        <time>2013-01-22T21:04:44Z</time>
      </trkpt>
      <trkpt lat="59.4896602" lon="17.8676482">
        <ele>21.4</ele>
        <time>2013-01-22T21:04:46Z</time>
      </trkpt>
      <trkpt lat="59.4895446" lon="17.867665">
        <ele>20.6</ele>
        <time>2013-01-22T21:04:48Z</time>
      </trkpt>
      <trkpt lat="59.4893349" lon="17.8676751">
        <ele>18.8</ele>
        <time>2013-01-22T21:04:52Z</time>
      </trkpt>
      <trkpt lat="59.4891835" lon="17.8676072">
        <ele>18</ele>
        <time>2013-01-22T21:04:55Z</time>
      </trkpt>
      <trkpt lat="59.4891303" lon="17.8675854">
        <ele>17.6</ele>
        <time>2013-01-22T21:04:56Z</time>
      </trkpt>
      <trkpt lat="59.4889285" lon="17.8675171">
        <ele>17.2</ele>
        <time>2013-01-22T21:05:00Z</time>
      </trkpt>
      <trkpt lat="59.4887292" lon="17.8675597">
        <ele>16.2</ele>
        <time>2013-01-22T21:05:05Z</time>
      </trkpt>
      <trkpt lat="59.4885225" lon="17.8676364">
        <ele>14.8</ele>
        <time>2013-01-22T21:05:09Z</time>
      </trkpt>
      <trkpt lat="59.4884628" lon="17.8676321">
        <ele>14.8</ele>
        <time>2013-01-22T21:05:10Z</time>
      </trkpt>
      <trkpt lat="59.4883081" lon="17.8676079">
        <ele>14.4</ele>
        <time>2013-01-22T21:05:13Z</time>
      </trkpt>
      <trkpt lat="59.4881687" lon="17.8675837">
        <ele>12.8</ele>
        <time>2013-01-22T21:05:16Z</time>
      </trkpt>
      <trkpt lat="59.4881226" lon="17.8675678">
        <ele>13.4</ele>
        <time>2013-01-22T21:05:17Z</time>
      </trkpt>
      <trkpt lat="59.4879439" lon="17.8674836">
        <ele>13.4</ele>
        <time>2013-01-22T21:05:21Z</time>
      </trkpt>
      <trkpt lat="59.4878121" lon="17.8674162">
        <ele>14.2</ele>
        <time>2013-01-22T21:05:24Z</time>
      </trkpt>
      <trkpt lat="59.4877264" lon="17.8674116">
        <ele>14.8</ele>
        <time>2013-01-22T21:05:26Z</time>
      </trkpt>
      <trkpt lat="59.4876079" lon="17.8674214">
        <ele>15.4</ele>
        <time>2013-01-22T21:05:29Z</time>
      </trkpt>
      <trkpt lat="59.4875457" lon="17.8674924">
        <ele>14.4</ele>
        <time>2013-01-22T21:05:31Z</time>
      </trkpt>
      <trkpt lat="59.487501" lon="17.8678337">
        <ele>16.4</ele>
        <time>2013-01-22T21:05:36Z</time>
      </trkpt>
      <trkpt lat="59.4875206" lon="17.8679073">
        <ele>17</ele>
        <time>2013-01-22T21:05:37Z</time>
      </trkpt>
      <trkpt lat="59.4875438" lon="17.8680829">
        <ele>17.6</ele>
        <time>2013-01-22T21:05:39Z</time>
      </trkpt>
      <trkpt lat="59.4875312" lon="17.8682388">
        <ele>18</ele>
        <time>2013-01-22T21:05:41Z</time>
      </trkpt>
      <trkpt lat="59.4875134" lon="17.8683917">
        <ele>17.6</ele>
        <time>2013-01-22T21:05:43Z</time>
      </trkpt>
      <trkpt lat="59.4874781" lon="17.8686515">
        <ele>16.6</ele>
        <time>2013-01-22T21:05:46Z</time>
      </trkpt>
      <trkpt lat="59.4874667" lon="17.868734">
        <ele>16.8</ele>
        <time>2013-01-22T21:05:47Z</time>
      </trkpt>
      <trkpt lat="59.4874514" lon="17.869076">
        <ele>17.8</ele>
        <time>2013-01-22T21:05:51Z</time>
      </trkpt>
      <trkpt lat="59.4874271" lon="17.8694504">
        <ele>18.2</ele>
        <time>2013-01-22T21:05:55Z</time>
      </trkpt>
      <trkpt lat="59.4874118" lon="17.8695261">
        <ele>18.6</ele>
        <time>2013-01-22T21:05:56Z</time>
      </trkpt>
      <trkpt lat="59.4873263" lon="17.8697945">
        <ele>18.2</ele>
        <time>2013-01-22T21:06:00Z</time>
      </trkpt>
      <trkpt lat="59.4872449" lon="17.8701047">
        <ele>18.4</ele>
        <time>2013-01-22T21:06:04Z</time>
      </trkpt>
      <trkpt lat="59.4872258" lon="17.8701876">
        <ele>18.8</ele>
        <time>2013-01-22T21:06:05Z</time>
      </trkpt>
      <trkpt lat="59.4872105" lon="17.8702776">
        <ele>18.6</ele>
        <time>2013-01-22T21:06:06Z</time>
      </trkpt>
      <trkpt lat="59.4871814" lon="17.8705413">
        <ele>18</ele>
        <time>2013-01-22T21:06:09Z</time>
      </trkpt>
      <trkpt lat="59.4871846" lon="17.8706217">
        <ele>18.4</ele>
        <time>2013-01-22T21:06:10Z</time>
      </trkpt>
      <trkpt lat="59.4872001" lon="17.8707667">
        <ele>19</ele>
        <time>2013-01-22T21:06:12Z</time>
      </trkpt>
      <trkpt lat="59.4872818" lon="17.8709149">
        <ele>18.8</ele>
        <time>2013-01-22T21:06:15Z</time>
      </trkpt>
      <trkpt lat="59.4874675" lon="17.8710605">
        <ele>17.2</ele>
        <time>2013-01-22T21:06:19Z</time>
      </trkpt>
      <trkpt lat="59.4875218" lon="17.8711071">
        <ele>16.6</ele>
        <time>2013-01-22T21:06:20Z</time>
      </trkpt>
      <trkpt lat="59.4876259" lon="17.8712438">
        <ele>15.2</ele>
        <time>2013-01-22T21:06:22Z</time>
      </trkpt>
      <trkpt lat="59.4876741" lon="17.8712912">
        <ele>14.6</ele>
        <time>2013-01-22T21:06:23Z</time>
      </trkpt>
      <trkpt lat="59.4878212" lon="17.8713867">
        <ele>12.8</ele>
        <time>2013-01-22T21:06:26Z</time>
      </trkpt>
      <trkpt lat="59.4878642" lon="17.8714287">
        <ele>13</ele>
        <time>2013-01-22T21:06:27Z</time>
      </trkpt>
      <trkpt lat="59.4879415" lon="17.8716164">
        <ele>13</ele>
        <time>2013-01-22T21:06:29Z</time>
      </trkpt>
      <trkpt lat="59.4880055" lon="17.8718446">
        <ele>11.8</ele>
        <time>2013-01-22T21:06:31Z</time>
      </trkpt>
      <trkpt lat="59.488036" lon="17.8719588">
        <ele>11.6</ele>
        <time>2013-01-22T21:06:32Z</time>
      </trkpt>
      <trkpt lat="59.4880712" lon="17.872071">
        <ele>11.6</ele>
        <time>2013-01-22T21:06:33Z</time>
      </trkpt>
      <trkpt lat="59.4881421" lon="17.8722851">
        <ele>10.2</ele>
        <time>2013-01-22T21:06:35Z</time>
      </trkpt>
      <trkpt lat="59.4882128" lon="17.8726402">
        <ele>8.2</ele>
        <time>2013-01-22T21:06:38Z</time>
      </trkpt>
      <trkpt lat="59.4882246" lon="17.8727614">
        <ele>6.8</ele>
        <time>2013-01-22T21:06:39Z</time>
      </trkpt>
      <trkpt lat="59.4882558" lon="17.8729993">
        <ele>5.6</ele>
        <time>2013-01-22T21:06:41Z</time>
      </trkpt>
      <trkpt lat="59.4883866" lon="17.8732787">
        <ele>3.6</ele>
        <time>2013-01-22T21:06:44Z</time>
      </trkpt>
      <trkpt lat="59.4885187" lon="17.8733645">
        <ele>2.6</ele>
        <time>2013-01-22T21:06:46Z</time>
      </trkpt>
      <trkpt lat="59.4885814" lon="17.8733926">
        <ele>2.2</ele>
        <time>2013-01-22T21:06:47Z</time>
      </trkpt>
      <trkpt lat="59.4887479" lon="17.8734759">
        <ele>1.6</ele>
        <time>2013-01-22T21:06:50Z</time>
      </trkpt>
      <trkpt lat="59.4887829" lon="17.8735184">
        <ele>1</ele>
        <time>2013-01-22T21:06:51Z</time>
      </trkpt>
      <trkpt lat="59.488896" lon="17.8738737">
        <ele>2.6</ele>
        <time>2013-01-22T21:06:55Z</time>
      </trkpt>
      <trkpt lat="59.4889671" lon="17.8742936">
        <ele>3.6</ele>
        <time>2013-01-22T21:06:59Z</time>
      </trkpt>
      <trkpt lat="59.489026" lon="17.874514">
        <ele>4.8</ele>
        <time>2013-01-22T21:07:01Z</time>
      </trkpt>
      <trkpt lat="59.4890649" lon="17.8746145">
        <ele>5.4</ele>
        <time>2013-01-22T21:07:02Z</time>
      </trkpt>
      <trkpt lat="59.4891528" lon="17.8748046">
        <ele>5.8</ele>
        <time>2013-01-22T21:07:04Z</time>
      </trkpt>
      <trkpt lat="59.4891979" lon="17.8748777">
        <ele>6</ele>
        <time>2013-01-22T21:07:05Z</time>
      </trkpt>
      <trkpt lat="59.4893606" lon="17.8749828">
        <ele>4.4</ele>
        <time>2013-01-22T21:07:09Z</time>
      </trkpt>
      <trkpt lat="59.4894052" lon="17.8749926">
        <ele>4.2</ele>
        <time>2013-01-22T21:07:10Z</time>
      </trkpt>
      <trkpt lat="59.4895011" lon="17.8750123">
        <ele>3.2</ele>
        <time>2013-01-22T21:07:12Z</time>
      </trkpt>
      <trkpt lat="59.4895917" lon="17.8750434">
        <ele>2.6</ele>
        <time>2013-01-22T21:07:14Z</time>
      </trkpt>
      <trkpt lat="59.489628" lon="17.8750625">
        <ele>2.2</ele>
        <time>2013-01-22T21:07:15Z</time>
      </trkpt>
      <trkpt lat="59.4897342" lon="17.8752314">
        <ele>2</ele>
        <time>2013-01-22T21:07:18Z</time>
      </trkpt>
      <trkpt lat="59.4897937" lon="17.8754814">
        <ele>2.2</ele>
        <time>2013-01-22T21:07:21Z</time>
      </trkpt>
      <trkpt lat="59.4898114" lon="17.8755671">
        <ele>2.6</ele>
        <time>2013-01-22T21:07:22Z</time>
      </trkpt>
      <trkpt lat="59.4898295" lon="17.8756319">
        <ele>2.4</ele>
        <time>2013-01-22T21:07:23Z</time>
      </trkpt>
      <trkpt lat="59.4899481" lon="17.8758339">
        <ele>2</ele>
        <time>2013-01-22T21:07:27Z</time>
      </trkpt>
      <trkpt lat="59.4899988" lon="17.8759982">
        <ele>1.8</ele>
        <time>2013-01-22T21:07:29Z</time>
      </trkpt>
      <trkpt lat="59.4900227" lon="17.8760917">
        <ele>2.2</ele>
        <time>2013-01-22T21:07:30Z</time>
      </trkpt>
      <trkpt lat="59.4900461" lon="17.8761854">
        <ele>2</ele>
        <time>2013-01-22T21:07:31Z</time>
      </trkpt>
      <trkpt lat="59.4901826" lon="17.876458">
        <ele>2</ele>
        <time>2013-01-22T21:07:35Z</time>
      </trkpt>
      <trkpt lat="59.490281" lon="17.8768005">
        <ele>3.6</ele>
        <time>2013-01-22T21:07:40Z</time>
      </trkpt>
      <trkpt lat="59.4901392" lon="17.8770694">
        <ele>3.6</ele>
        <time>2013-01-22T21:07:45Z</time>
      </trkpt>
      <trkpt lat="59.4900533" lon="17.8771221">
        <ele>3</ele>
        <time>2013-01-22T21:07:47Z</time>
      </trkpt>
      <trkpt lat="59.4900062" lon="17.8771388">
        <ele>2.8</ele>
        <time>2013-01-22T21:07:48Z</time>
      </trkpt>
      <trkpt lat="59.4899626" lon="17.8771575">
        <ele>2.6</ele>
        <time>2013-01-22T21:07:49Z</time>
      </trkpt>
      <trkpt lat="59.4898343" lon="17.8771807">
        <ele>1.6</ele>
        <time>2013-01-22T21:07:52Z</time>
      </trkpt>
      <trkpt lat="59.4897534" lon="17.8771736">
        <ele>1.4</ele>
        <time>2013-01-22T21:07:54Z</time>
      </trkpt>
      <trkpt lat="59.4895657" lon="17.8771284">
        <ele>2</ele>
        <time>2013-01-22T21:07:58Z</time>
      </trkpt>
      <trkpt lat="59.489519" lon="17.8771059">
        <ele>2.2</ele>
        <time>2013-01-22T21:07:59Z</time>
      </trkpt>
      <trkpt lat="59.4893861" lon="17.8770327">
        <ele>2.8</ele>
        <time>2013-01-22T21:08:02Z</time>
      </trkpt>
      <trkpt lat="59.4893429" lon="17.8769973">
        <ele>3</ele>
        <time>2013-01-22T21:08:03Z</time>
      </trkpt>
      <trkpt lat="59.4892162" lon="17.8768614">
        <ele>5.6</ele>
        <time>2013-01-22T21:08:06Z</time>
      </trkpt>
      <trkpt lat="59.4890606" lon="17.876684">
        <ele>6.8</ele>
        <time>2013-01-22T21:08:10Z</time>
      </trkpt>
      <trkpt lat="59.4889098" lon="17.8765384">
        <ele>8.8</ele>
        <time>2013-01-22T21:08:14Z</time>
      </trkpt>
      <trkpt lat="59.488872" lon="17.876525">
        <ele>9.4</ele>
        <time>2013-01-22T21:08:15Z</time>
      </trkpt>
      <trkpt lat="59.4887023" lon="17.876627">
        <ele>8.8</ele>
        <time>2013-01-22T21:08:20Z</time>
      </trkpt>
      <trkpt lat="59.488665" lon="17.8766776">
        <ele>8.8</ele>
        <time>2013-01-22T21:08:21Z</time>
      </trkpt>
      <trkpt lat="59.4885075" lon="17.8767755">
        <ele>9.4</ele>
        <time>2013-01-22T21:08:25Z</time>
      </trkpt>
      <trkpt lat="59.4883167" lon="17.8767403">
        <ele>7.4</ele>
        <time>2013-01-22T21:08:30Z</time>
      </trkpt>
      <trkpt lat="59.4882097" lon="17.8770433">
        <ele>7.6</ele>
        <time>2013-01-22T21:08:35Z</time>
      </trkpt>
      <trkpt lat="59.4881853" lon="17.8773746">
        <ele>8.4</ele>
        <time>2013-01-22T21:08:39Z</time>
      </trkpt>
      <trkpt lat="59.4881833" lon="17.8774613">
        <ele>8.6</ele>
        <time>2013-01-22T21:08:40Z</time>
      </trkpt>
      <trkpt lat="59.4881929" lon="17.8776439">
        <ele>8.8</ele>
        <time>2013-01-22T21:08:42Z</time>
      </trkpt>
      <trkpt lat="59.4882207" lon="17.877842">
        <ele>9</ele>
        <time>2013-01-22T21:08:44Z</time>
      </trkpt>
      <trkpt lat="59.4881417" lon="17.8781876">
        <ele>6.4</ele>
        <time>2013-01-22T21:08:49Z</time>
      </trkpt>
      <trkpt lat="59.4879738" lon="17.8781168">
        <ele>6.4</ele>
        <time>2013-01-22T21:08:54Z</time>
      </trkpt>
      <trkpt lat="59.4878208" lon="17.8778651">
        <ele>4.6</ele>
        <time>2013-01-22T21:09:00Z</time>
      </trkpt>
      <trkpt lat="59.4876539" lon="17.8776915">
        <ele>6.4</ele>
        <time>2013-01-22T21:09:05Z</time>
      </trkpt>
      <trkpt lat="59.4875439" lon="17.8774039">
        <ele>6.8</ele>
        <time>2013-01-22T21:09:10Z</time>
      </trkpt>
      <trkpt lat="59.4874067" lon="17.877061">
        <ele>6.4</ele>
        <time>2013-01-22T21:09:15Z</time>
      </trkpt>
      <trkpt lat="59.4872554" lon="17.8767379">
        <ele>5.6</ele>
        <time>2013-01-22T21:09:20Z</time>
      </trkpt>
      <trkpt lat="59.4871986" lon="17.8766275">
        <ele>5</ele>
        <time>2013-01-22T21:09:22Z</time>
      </trkpt>
      <trkpt lat="59.4871073" lon="17.8764871">
        <ele>3.4</ele>
        <time>2013-01-22T21:09:25Z</time>
      </trkpt>
      <trkpt lat="59.4869903" lon="17.8762602">
        <ele>2</ele>
        <time>2013-01-22T21:09:29Z</time>
      </trkpt>
      <trkpt lat="59.4869633" lon="17.8762121">
        <ele>1.6</ele>
        <time>2013-01-22T21:09:30Z</time>
      </trkpt>
      <trkpt lat="59.486809" lon="17.8759327">
        <ele>0</ele>
        <time>2013-01-22T21:09:36Z</time>
      </trkpt>
      <trkpt lat="59.4867573" lon="17.8758225">
        <ele>0</ele>
        <time>2013-01-22T21:09:38Z</time>
      </trkpt>
      <trkpt lat="59.4866748" lon="17.8756262">
        <ele>0</ele>
        <time>2013-01-22T21:09:41Z</time>
      </trkpt>
      <trkpt lat="59.4865479" lon="17.8753346">
        <ele>0</ele>
        <time>2013-01-22T21:09:46Z</time>
      </trkpt>
      <trkpt lat="59.4864146" lon="17.875033">
        <ele>2.6</ele>
        <time>2013-01-22T21:09:52Z</time>
      </trkpt>
      <trkpt lat="59.4862713" lon="17.8747797">
        <ele>5.2</ele>
        <time>2013-01-22T21:09:58Z</time>
      </trkpt>
      <trkpt lat="59.4861003" lon="17.8747461">
        <ele>7.2</ele>
        <time>2013-01-22T21:10:04Z</time>
      </trkpt>
      <trkpt lat="59.4859052" lon="17.8748807">
        <ele>10.4</ele>
        <time>2013-01-22T21:10:10Z</time>
      </trkpt>
      <trkpt lat="59.48573" lon="17.8750567">
        <ele>11</ele>
        <time>2013-01-22T21:10:15Z</time>
      </trkpt>
      <trkpt lat="59.4855593" lon="17.875305">
        <ele>11.6</ele>
        <time>2013-01-22T21:10:20Z</time>
      </trkpt>
      <trkpt lat="59.4855295" lon="17.8753574">
        <ele>11.8</ele>
        <time>2013-01-22T21:10:21Z</time>
      </trkpt>
      <trkpt lat="59.4854337" lon="17.8755283">
        <ele>14.6</ele>
        <time>2013-01-22T21:10:24Z</time>
      </trkpt>
      <trkpt lat="59.4854104" lon="17.8755918">
        <ele>15.4</ele>
        <time>2013-01-22T21:10:25Z</time>
      </trkpt>
      <trkpt lat="59.4852949" lon="17.8758954">
        <ele>17.6</ele>
        <time>2013-01-22T21:10:30Z</time>
      </trkpt>
      <trkpt lat="59.4852006" lon="17.8762187">
        <ele>15.6</ele>
        <time>2013-01-22T21:10:36Z</time>
      </trkpt>
      <trkpt lat="59.48524" lon="17.8765492">
        <ele>14.2</ele>
        <time>2013-01-22T21:10:42Z</time>
      </trkpt>
      <trkpt lat="59.4852695" lon="17.8766384">
        <ele>14.2</ele>
        <time>2013-01-22T21:10:44Z</time>
      </trkpt>
      <trkpt lat="59.4851672" lon="17.876762">
        <ele>13.4</ele>
        <time>2013-01-22T21:10:50Z</time>
      </trkpt>
    </trkseg>
  </trk>
</gpx>